<?xml version="1.0" encoding="UTF-8" standalone="no" ?>
<gpx xmlns="http://www.topografix.com/GPX/1/1" xmlns:xsi="http://www.w3.org/2001/XMLSchema-instance" xsi:schemaLocation="http://www.topografix.com/GPX/1/1 http://www.topografix.com/GPX/1/1/gpx.xsd" version="1.1" creator="VisuGPX - https://www.visugpx.com">
  <metadata>
    <name>Rigol'Hard 2012 - 38km</name>
    <desc><![CDATA[Parcours 2012 de la rigol'hard 38km au depart de l'isle sur le doubs]]></desc>
  </metadata>
  <trk>
    <name><![CDATA[Rigole Hard]]></name>
    <trkseg>
      <trkpt lat="47.45142" lon="6.57965">
        <ele>290</ele>
        <time>2012-05-13T08:45:26Z</time>
      </trkpt>
      <trkpt lat="47.45133" lon="6.57954">
        <ele>290</ele>
        <time>2012-05-13T08:45:32Z</time>
      </trkpt>
      <trkpt lat="47.45134" lon="6.57938">
        <ele>290</ele>
        <time>2012-05-13T08:45:36Z</time>
      </trkpt>
      <trkpt lat="47.45142" lon="6.57921">
        <ele>290</ele>
        <time>2012-05-13T08:45:40Z</time>
      </trkpt>
      <trkpt lat="47.45145" lon="6.5791">
        <ele>290.013611</ele>
        <time>2012-05-13T08:45:42Z</time>
      </trkpt>
      <trkpt lat="47.45141" lon="6.57905">
        <ele>290.044861</ele>
        <time>2012-05-13T08:45:45Z</time>
      </trkpt>
      <trkpt lat="47.45128" lon="6.57908">
        <ele>290.006805</ele>
        <time>2012-05-13T08:45:48Z</time>
      </trkpt>
      <trkpt lat="47.4513" lon="6.57912">
        <ele>290</ele>
        <time>2012-05-13T08:45:54Z</time>
      </trkpt>
      <trkpt lat="47.45121" lon="6.5792">
        <ele>290</ele>
        <time>2012-05-13T08:46:09Z</time>
      </trkpt>
      <trkpt lat="47.45123" lon="6.57916">
        <ele>290</ele>
        <time>2012-05-13T08:46:38Z</time>
      </trkpt>
      <trkpt lat="47.45113" lon="6.57903">
        <ele>290</ele>
        <time>2012-05-13T08:46:45Z</time>
      </trkpt>
      <trkpt lat="47.45111" lon="6.579">
        <ele>290</ele>
        <time>2012-05-13T08:46:47Z</time>
      </trkpt>
      <trkpt lat="47.45101" lon="6.57905">
        <ele>290</ele>
        <time>2012-05-13T08:46:52Z</time>
      </trkpt>
      <trkpt lat="47.451" lon="6.57907">
        <ele>290</ele>
        <time>2012-05-13T08:46:53Z</time>
      </trkpt>
      <trkpt lat="47.45084" lon="6.57938">
        <ele>290</ele>
        <time>2012-05-13T08:47:02Z</time>
      </trkpt>
      <trkpt lat="47.45071" lon="6.57961">
        <ele>290</ele>
        <time>2012-05-13T08:47:08Z</time>
      </trkpt>
      <trkpt lat="47.45062" lon="6.57979">
        <ele>290</ele>
        <time>2012-05-13T08:47:14Z</time>
      </trkpt>
      <trkpt lat="47.45041" lon="6.58014">
        <ele>290</ele>
        <time>2012-05-13T08:47:22Z</time>
      </trkpt>
      <trkpt lat="47.45026" lon="6.58029">
        <ele>290.004578</ele>
        <time>2012-05-13T08:47:27Z</time>
      </trkpt>
      <trkpt lat="47.45007" lon="6.58049">
        <ele>290.536407</ele>
        <time>2012-05-13T08:47:32Z</time>
      </trkpt>
      <trkpt lat="47.45002" lon="6.58059">
        <ele>290.702332</ele>
        <time>2012-05-13T08:47:34Z</time>
      </trkpt>
      <trkpt lat="47.44977" lon="6.581">
        <ele>291</ele>
        <time>2012-05-13T08:47:42Z</time>
      </trkpt>
      <trkpt lat="47.44956" lon="6.58128">
        <ele>291</ele>
        <time>2012-05-13T08:47:48Z</time>
      </trkpt>
      <trkpt lat="47.44936" lon="6.58147">
        <ele>291</ele>
        <time>2012-05-13T08:47:54Z</time>
      </trkpt>
      <trkpt lat="47.44923" lon="6.58152">
        <ele>291</ele>
        <time>2012-05-13T08:47:57Z</time>
      </trkpt>
      <trkpt lat="47.44913" lon="6.58172">
        <ele>291</ele>
        <time>2012-05-13T08:48:01Z</time>
      </trkpt>
      <trkpt lat="47.44913" lon="6.58178">
        <ele>291</ele>
        <time>2012-05-13T08:48:02Z</time>
      </trkpt>
      <trkpt lat="47.44903" lon="6.58211">
        <ele>291</ele>
        <time>2012-05-13T08:48:08Z</time>
      </trkpt>
      <trkpt lat="47.44881" lon="6.58243">
        <ele>290.961487</ele>
        <time>2012-05-13T08:48:15Z</time>
      </trkpt>
      <trkpt lat="47.44867" lon="6.58261">
        <ele>290.860596</ele>
        <time>2012-05-13T08:48:19Z</time>
      </trkpt>
      <trkpt lat="47.44851" lon="6.58289">
        <ele>291.075012</ele>
        <time>2012-05-13T08:48:25Z</time>
      </trkpt>
      <trkpt lat="47.44831" lon="6.58319">
        <ele>292.024994</ele>
        <time>2012-05-13T08:48:31Z</time>
      </trkpt>
      <trkpt lat="47.44818" lon="6.58336">
        <ele>292.57251</ele>
        <time>2012-05-13T08:48:35Z</time>
      </trkpt>
      <trkpt lat="47.44797" lon="6.58346">
        <ele>292.92749</ele>
        <time>2012-05-13T08:48:40Z</time>
      </trkpt>
      <trkpt lat="47.44781" lon="6.58335">
        <ele>292.632507</ele>
        <time>2012-05-13T08:48:44Z</time>
      </trkpt>
      <trkpt lat="47.44765" lon="6.58314">
        <ele>292.022491</ele>
        <time>2012-05-13T08:48:49Z</time>
      </trkpt>
      <trkpt lat="47.44748" lon="6.58316">
        <ele>292.117493</ele>
        <time>2012-05-13T08:48:53Z</time>
      </trkpt>
      <trkpt lat="47.44739" lon="6.58333">
        <ele>292.674835</ele>
        <time>2012-05-13T08:48:57Z</time>
      </trkpt>
      <trkpt lat="47.44725" lon="6.58353">
        <ele>293.223877</ele>
        <time>2012-05-13T08:49:03Z</time>
      </trkpt>
      <trkpt lat="47.44708" lon="6.58378">
        <ele>293.659149</ele>
        <time>2012-05-13T08:49:10Z</time>
      </trkpt>
      <trkpt lat="47.44687" lon="6.58409">
        <ele>294.057678</ele>
        <time>2012-05-13T08:49:17Z</time>
      </trkpt>
      <trkpt lat="47.44665" lon="6.58442">
        <ele>294.733704</ele>
        <time>2012-05-13T08:49:24Z</time>
      </trkpt>
      <trkpt lat="47.44644" lon="6.58482">
        <ele>295.192505</ele>
        <time>2012-05-13T08:49:32Z</time>
      </trkpt>
      <trkpt lat="47.44635" lon="6.58504">
        <ele>295.527496</ele>
        <time>2012-05-13T08:49:36Z</time>
      </trkpt>
      <trkpt lat="47.44613" lon="6.58547">
        <ele>296.399994</ele>
        <time>2012-05-13T08:49:44Z</time>
      </trkpt>
      <trkpt lat="47.44598" lon="6.58577">
        <ele>297.431274</ele>
        <time>2012-05-13T08:49:51Z</time>
      </trkpt>
      <trkpt lat="47.44579" lon="6.58606">
        <ele>298.787292</ele>
        <time>2012-05-13T08:49:59Z</time>
      </trkpt>
      <trkpt lat="47.4456" lon="6.58625">
        <ele>300.132782</ele>
        <time>2012-05-13T08:50:06Z</time>
      </trkpt>
      <trkpt lat="47.4454" lon="6.58639">
        <ele>301.90625</ele>
        <time>2012-05-13T08:50:13Z</time>
      </trkpt>
      <trkpt lat="47.44517" lon="6.5865">
        <ele>303.972504</ele>
        <time>2012-05-13T08:50:21Z</time>
      </trkpt>
      <trkpt lat="47.44493" lon="6.58653">
        <ele>306.146149</ele>
        <time>2012-05-13T08:50:29Z</time>
      </trkpt>
      <trkpt lat="47.44481" lon="6.58658">
        <ele>307.412506</ele>
        <time>2012-05-13T08:50:35Z</time>
      </trkpt>
      <trkpt lat="47.44464" lon="6.58664">
        <ele>309.139984</ele>
        <time>2012-05-13T08:50:42Z</time>
      </trkpt>
      <trkpt lat="47.44441" lon="6.58674">
        <ele>311.017487</ele>
        <time>2012-05-13T08:50:50Z</time>
      </trkpt>
      <trkpt lat="47.44424" lon="6.58684">
        <ele>312.454987</ele>
        <time>2012-05-13T08:50:57Z</time>
      </trkpt>
      <trkpt lat="47.44403" lon="6.58694">
        <ele>313.993347</ele>
        <time>2012-05-13T08:51:05Z</time>
      </trkpt>
      <trkpt lat="47.44384" lon="6.5871">
        <ele>315.291565</ele>
        <time>2012-05-13T08:51:12Z</time>
      </trkpt>
      <trkpt lat="47.44365" lon="6.58732">
        <ele>316.555389</ele>
        <time>2012-05-13T08:51:20Z</time>
      </trkpt>
      <trkpt lat="47.44354" lon="6.5875">
        <ele>317.382385</ele>
        <time>2012-05-13T08:51:27Z</time>
      </trkpt>
      <trkpt lat="47.44338" lon="6.58768">
        <ele>318.305725</ele>
        <time>2012-05-13T08:51:33Z</time>
      </trkpt>
      <trkpt lat="47.44323" lon="6.58787">
        <ele>318.970001</ele>
        <time>2012-05-13T08:51:40Z</time>
      </trkpt>
      <trkpt lat="47.44315" lon="6.58803">
        <ele>319.320007</ele>
        <time>2012-05-13T08:51:46Z</time>
      </trkpt>
      <trkpt lat="47.44295" lon="6.58823">
        <ele>320.179993</ele>
        <time>2012-05-13T08:51:52Z</time>
      </trkpt>
      <trkpt lat="47.44274" lon="6.58839">
        <ele>321.030273</ele>
        <time>2012-05-13T08:51:59Z</time>
      </trkpt>
      <trkpt lat="47.44256" lon="6.58852">
        <ele>321.531036</ele>
        <time>2012-05-13T08:52:06Z</time>
      </trkpt>
      <trkpt lat="47.44238" lon="6.58861">
        <ele>322.124878</ele>
        <time>2012-05-13T08:52:11Z</time>
      </trkpt>
      <trkpt lat="47.44235" lon="6.58863">
        <ele>322.26001</ele>
        <time>2012-05-13T08:52:12Z</time>
      </trkpt>
      <trkpt lat="47.44216" lon="6.58879">
        <ele>322.89212</ele>
        <time>2012-05-13T08:52:18Z</time>
      </trkpt>
      <trkpt lat="47.44206" lon="6.58887">
        <ele>323.221222</ele>
        <time>2012-05-13T08:52:21Z</time>
      </trkpt>
      <trkpt lat="47.44191" lon="6.58892">
        <ele>323.672028</ele>
        <time>2012-05-13T08:52:26Z</time>
      </trkpt>
      <trkpt lat="47.44173" lon="6.589">
        <ele>324.064301</ele>
        <time>2012-05-13T08:52:31Z</time>
      </trkpt>
      <trkpt lat="47.44153" lon="6.58908">
        <ele>324.334991</ele>
        <time>2012-05-13T08:52:37Z</time>
      </trkpt>
      <trkpt lat="47.44131" lon="6.58917">
        <ele>324.857513</ele>
        <time>2012-05-13T08:52:43Z</time>
      </trkpt>
      <trkpt lat="47.44109" lon="6.58933">
        <ele>325.872498</ele>
        <time>2012-05-13T08:52:50Z</time>
      </trkpt>
      <trkpt lat="47.4409" lon="6.58952">
        <ele>326.869812</ele>
        <time>2012-05-13T08:52:57Z</time>
      </trkpt>
      <trkpt lat="47.44082" lon="6.58965">
        <ele>327.167206</ele>
        <time>2012-05-13T08:53:01Z</time>
      </trkpt>
      <trkpt lat="47.44067" lon="6.58979">
        <ele>327.54361</ele>
        <time>2012-05-13T08:53:07Z</time>
      </trkpt>
      <trkpt lat="47.44052" lon="6.58997">
        <ele>328.215393</ele>
        <time>2012-05-13T08:53:14Z</time>
      </trkpt>
      <trkpt lat="47.44039" lon="6.59015">
        <ele>328.883942</ele>
        <time>2012-05-13T08:53:20Z</time>
      </trkpt>
      <trkpt lat="47.44024" lon="6.59032">
        <ele>329.319275</ele>
        <time>2012-05-13T08:53:26Z</time>
      </trkpt>
      <trkpt lat="47.44009" lon="6.59051">
        <ele>329.90564</ele>
        <time>2012-05-13T08:53:32Z</time>
      </trkpt>
      <trkpt lat="47.43994" lon="6.59067">
        <ele>330.625</ele>
        <time>2012-05-13T08:53:38Z</time>
      </trkpt>
      <trkpt lat="47.4398" lon="6.59088">
        <ele>331.355011</ele>
        <time>2012-05-13T08:53:45Z</time>
      </trkpt>
      <trkpt lat="47.43968" lon="6.59104">
        <ele>331.609985</ele>
        <time>2012-05-13T08:53:51Z</time>
      </trkpt>
      <trkpt lat="47.43956" lon="6.59118">
        <ele>331.86499</ele>
        <time>2012-05-13T08:53:57Z</time>
      </trkpt>
      <trkpt lat="47.43941" lon="6.59132">
        <ele>332.365753</ele>
        <time>2012-05-13T08:54:05Z</time>
      </trkpt>
      <trkpt lat="47.43925" lon="6.59147">
        <ele>333.059998</ele>
        <time>2012-05-13T08:54:12Z</time>
      </trkpt>
      <trkpt lat="47.4391" lon="6.59162">
        <ele>333.720001</ele>
        <time>2012-05-13T08:54:19Z</time>
      </trkpt>
      <trkpt lat="47.43895" lon="6.59178">
        <ele>334.283508</ele>
        <time>2012-05-13T08:54:25Z</time>
      </trkpt>
      <trkpt lat="47.43873" lon="6.59196">
        <ele>335.206146</ele>
        <time>2012-05-13T08:54:33Z</time>
      </trkpt>
      <trkpt lat="47.43857" lon="6.5921">
        <ele>336.077759</ele>
        <time>2012-05-13T08:54:39Z</time>
      </trkpt>
      <trkpt lat="47.4384" lon="6.59223">
        <ele>336.670013</ele>
        <time>2012-05-13T08:54:45Z</time>
      </trkpt>
      <trkpt lat="47.43822" lon="6.59238">
        <ele>337.317505</ele>
        <time>2012-05-13T08:54:52Z</time>
      </trkpt>
      <trkpt lat="47.43803" lon="6.59251">
        <ele>338.045563</ele>
        <time>2012-05-13T08:54:58Z</time>
      </trkpt>
      <trkpt lat="47.4378" lon="6.59267">
        <ele>339.392487</ele>
        <time>2012-05-13T08:55:07Z</time>
      </trkpt>
      <trkpt lat="47.43762" lon="6.59281">
        <ele>340.620148</ele>
        <time>2012-05-13T08:55:13Z</time>
      </trkpt>
      <trkpt lat="47.43746" lon="6.59291">
        <ele>341.464203</ele>
        <time>2012-05-13T08:55:18Z</time>
      </trkpt>
      <trkpt lat="47.43732" lon="6.59301">
        <ele>342.361145</ele>
        <time>2012-05-13T08:55:24Z</time>
      </trkpt>
      <trkpt lat="47.43718" lon="6.59313">
        <ele>343.423126</ele>
        <time>2012-05-13T08:55:30Z</time>
      </trkpt>
      <trkpt lat="47.43705" lon="6.59322">
        <ele>344.202087</ele>
        <time>2012-05-13T08:55:36Z</time>
      </trkpt>
      <trkpt lat="47.43689" lon="6.59331">
        <ele>344.86499</ele>
        <time>2012-05-13T08:55:41Z</time>
      </trkpt>
      <trkpt lat="47.43676" lon="6.59341">
        <ele>345.487518</ele>
        <time>2012-05-13T08:55:46Z</time>
      </trkpt>
      <trkpt lat="47.4366" lon="6.59354">
        <ele>345.888397</ele>
        <time>2012-05-13T08:55:53Z</time>
      </trkpt>
      <trkpt lat="47.43642" lon="6.59366">
        <ele>346.211639</ele>
        <time>2012-05-13T08:56:01Z</time>
      </trkpt>
      <trkpt lat="47.43622" lon="6.59377">
        <ele>346.710175</ele>
        <time>2012-05-13T08:56:09Z</time>
      </trkpt>
      <trkpt lat="47.43614" lon="6.59385">
        <ele>347.050629</ele>
        <time>2012-05-13T08:56:14Z</time>
      </trkpt>
      <trkpt lat="47.43603" lon="6.59391">
        <ele>347.334808</ele>
        <time>2012-05-13T08:56:19Z</time>
      </trkpt>
      <trkpt lat="47.43583" lon="6.59404">
        <ele>348.005676</ele>
        <time>2012-05-13T08:56:26Z</time>
      </trkpt>
      <trkpt lat="47.43563" lon="6.59417">
        <ele>348.883698</ele>
        <time>2012-05-13T08:56:34Z</time>
      </trkpt>
      <trkpt lat="47.43541" lon="6.59429">
        <ele>349.53183</ele>
        <time>2012-05-13T08:56:42Z</time>
      </trkpt>
      <trkpt lat="47.43525" lon="6.59439">
        <ele>349.910004</ele>
        <time>2012-05-13T08:56:48Z</time>
      </trkpt>
      <trkpt lat="47.43508" lon="6.5945">
        <ele>350.141235</ele>
        <time>2012-05-13T08:56:54Z</time>
      </trkpt>
      <trkpt lat="47.43486" lon="6.59463">
        <ele>350.374023</ele>
        <time>2012-05-13T08:57:02Z</time>
      </trkpt>
      <trkpt lat="47.43467" lon="6.59478">
        <ele>350.770721</ele>
        <time>2012-05-13T08:57:09Z</time>
      </trkpt>
      <trkpt lat="47.43449" lon="6.59486">
        <ele>350.955902</ele>
        <time>2012-05-13T08:57:15Z</time>
      </trkpt>
      <trkpt lat="47.43427" lon="6.59501">
        <ele>351.293488</ele>
        <time>2012-05-13T08:57:23Z</time>
      </trkpt>
      <trkpt lat="47.43409" lon="6.59511">
        <ele>351.23349</ele>
        <time>2012-05-13T08:57:29Z</time>
      </trkpt>
      <trkpt lat="47.43389" lon="6.5952">
        <ele>351.102661</ele>
        <time>2012-05-13T08:57:35Z</time>
      </trkpt>
      <trkpt lat="47.43362" lon="6.59532">
        <ele>351.149445</ele>
        <time>2012-05-13T08:57:42Z</time>
      </trkpt>
      <trkpt lat="47.4334" lon="6.59547">
        <ele>351.40625</ele>
        <time>2012-05-13T08:57:49Z</time>
      </trkpt>
      <trkpt lat="47.43328" lon="6.59554">
        <ele>351.522491</ele>
        <time>2012-05-13T08:57:54Z</time>
      </trkpt>
      <trkpt lat="47.4332" lon="6.59558">
        <ele>351.651245</ele>
        <time>2012-05-13T08:57:59Z</time>
      </trkpt>
      <trkpt lat="47.4332" lon="6.59559">
        <ele>351.622803</ele>
        <time>2012-05-13T08:58:05Z</time>
      </trkpt>
      <trkpt lat="47.43321" lon="6.59562">
        <ele>351.524445</ele>
        <time>2012-05-13T08:58:17Z</time>
      </trkpt>
      <trkpt lat="47.43323" lon="6.59561">
        <ele>351.51825</ele>
        <time>2012-05-13T08:58:24Z</time>
      </trkpt>
      <trkpt lat="47.43319" lon="6.59561">
        <ele>351.601135</ele>
        <time>2012-05-13T08:58:27Z</time>
      </trkpt>
      <trkpt lat="47.43322" lon="6.59561">
        <ele>351.537689</ele>
        <time>2012-05-13T08:58:33Z</time>
      </trkpt>
      <trkpt lat="47.43318" lon="6.59558">
        <ele>351.67749</ele>
        <time>2012-05-13T08:58:54Z</time>
      </trkpt>
      <trkpt lat="47.43316" lon="6.5956">
        <ele>351.675751</ele>
        <time>2012-05-13T08:59:38Z</time>
      </trkpt>
      <trkpt lat="47.43315" lon="6.59576">
        <ele>351.318115</ele>
        <time>2012-05-13T08:59:44Z</time>
      </trkpt>
      <trkpt lat="47.43302" lon="6.59583">
        <ele>351.648743</ele>
        <time>2012-05-13T08:59:50Z</time>
      </trkpt>
      <trkpt lat="47.43291" lon="6.59592">
        <ele>351.96875</ele>
        <time>2012-05-13T08:59:56Z</time>
      </trkpt>
      <trkpt lat="47.43279" lon="6.596">
        <ele>352.35376</ele>
        <time>2012-05-13T09:00:02Z</time>
      </trkpt>
      <trkpt lat="47.43273" lon="6.59611">
        <ele>352.412506</ele>
        <time>2012-05-13T09:00:09Z</time>
      </trkpt>
      <trkpt lat="47.43277" lon="6.59621">
        <ele>352.077515</ele>
        <time>2012-05-13T09:00:26Z</time>
      </trkpt>
      <trkpt lat="47.43267" lon="6.5962">
        <ele>352.535004</ele>
        <time>2012-05-13T09:00:33Z</time>
      </trkpt>
      <trkpt lat="47.43264" lon="6.5962">
        <ele>352.64502</ele>
        <time>2012-05-13T09:00:40Z</time>
      </trkpt>
      <trkpt lat="47.43267" lon="6.59622">
        <ele>352.473389</ele>
        <time>2012-05-13T09:00:54Z</time>
      </trkpt>
      <trkpt lat="47.43263" lon="6.5962">
        <ele>352.684998</ele>
        <time>2012-05-13T09:00:58Z</time>
      </trkpt>
      <trkpt lat="47.43269" lon="6.59622">
        <ele>352.372925</ele>
        <time>2012-05-13T09:01:05Z</time>
      </trkpt>
      <trkpt lat="47.43272" lon="6.59624">
        <ele>352.166016</ele>
        <time>2012-05-13T09:01:13Z</time>
      </trkpt>
      <trkpt lat="47.43262" lon="6.59625">
        <ele>352.53656</ele>
        <time>2012-05-13T09:01:18Z</time>
      </trkpt>
      <trkpt lat="47.43267" lon="6.59614">
        <ele>352.609985</ele>
        <time>2012-05-13T09:01:55Z</time>
      </trkpt>
      <trkpt lat="47.43265" lon="6.59617">
        <ele>352.648743</ele>
        <time>2012-05-13T09:01:59Z</time>
      </trkpt>
      <trkpt lat="47.43254" lon="6.59627">
        <ele>352.764954</ele>
        <time>2012-05-13T09:02:05Z</time>
      </trkpt>
      <trkpt lat="47.43232" lon="6.5964">
        <ele>353.19751</ele>
        <time>2012-05-13T09:02:12Z</time>
      </trkpt>
      <trkpt lat="47.4321" lon="6.59649">
        <ele>354.022491</ele>
        <time>2012-05-13T09:02:17Z</time>
      </trkpt>
      <trkpt lat="47.43185" lon="6.5966">
        <ele>354.714996</ele>
        <time>2012-05-13T09:02:23Z</time>
      </trkpt>
      <trkpt lat="47.43167" lon="6.59673">
        <ele>355.065002</ele>
        <time>2012-05-13T09:02:30Z</time>
      </trkpt>
      <trkpt lat="47.43159" lon="6.59684">
        <ele>355.125</ele>
        <time>2012-05-13T09:02:34Z</time>
      </trkpt>
      <trkpt lat="47.43146" lon="6.59694">
        <ele>355.674988</ele>
        <time>2012-05-13T09:02:39Z</time>
      </trkpt>
      <trkpt lat="47.43125" lon="6.59706">
        <ele>356.612518</ele>
        <time>2012-05-13T09:02:44Z</time>
      </trkpt>
      <trkpt lat="47.43106" lon="6.59712">
        <ele>357.539063</ele>
        <time>2012-05-13T09:02:48Z</time>
      </trkpt>
      <trkpt lat="47.43096" lon="6.59723">
        <ele>357.817688</ele>
        <time>2012-05-13T09:02:52Z</time>
      </trkpt>
      <trkpt lat="47.43077" lon="6.59737">
        <ele>358.658203</ele>
        <time>2012-05-13T09:02:58Z</time>
      </trkpt>
      <trkpt lat="47.43053" lon="6.59748">
        <ele>358.935852</ele>
        <time>2012-05-13T09:03:05Z</time>
      </trkpt>
      <trkpt lat="47.43038" lon="6.59758">
        <ele>358.923828</ele>
        <time>2012-05-13T09:03:10Z</time>
      </trkpt>
      <trkpt lat="47.43024" lon="6.59766">
        <ele>359.089996</ele>
        <time>2012-05-13T09:03:15Z</time>
      </trkpt>
      <trkpt lat="47.43008" lon="6.5978">
        <ele>359.352509</ele>
        <time>2012-05-13T09:03:22Z</time>
      </trkpt>
      <trkpt lat="47.42976" lon="6.5979">
        <ele>360.414612</ele>
        <time>2012-05-13T09:03:28Z</time>
      </trkpt>
      <trkpt lat="47.42965" lon="6.59802">
        <ele>360.638367</ele>
        <time>2012-05-13T09:03:32Z</time>
      </trkpt>
      <trkpt lat="47.42956" lon="6.59816">
        <ele>360.388428</ele>
        <time>2012-05-13T09:03:38Z</time>
      </trkpt>
      <trkpt lat="47.42944" lon="6.59822">
        <ele>360.692596</ele>
        <time>2012-05-13T09:03:43Z</time>
      </trkpt>
      <trkpt lat="47.42918" lon="6.59836">
        <ele>360.975006</ele>
        <time>2012-05-13T09:03:50Z</time>
      </trkpt>
      <trkpt lat="47.4289" lon="6.59845">
        <ele>361.535004</ele>
        <time>2012-05-13T09:03:56Z</time>
      </trkpt>
      <trkpt lat="47.42873" lon="6.59855">
        <ele>362.588715</ele>
        <time>2012-05-13T09:04:01Z</time>
      </trkpt>
      <trkpt lat="47.42852" lon="6.59865">
        <ele>364.157257</ele>
        <time>2012-05-13T09:04:06Z</time>
      </trkpt>
      <trkpt lat="47.42837" lon="6.59876">
        <ele>364.714813</ele>
        <time>2012-05-13T09:04:11Z</time>
      </trkpt>
      <trkpt lat="47.42821" lon="6.5989">
        <ele>364.550751</ele>
        <time>2012-05-13T09:04:16Z</time>
      </trkpt>
      <trkpt lat="47.42799" lon="6.59899">
        <ele>365.280457</ele>
        <time>2012-05-13T09:04:22Z</time>
      </trkpt>
      <trkpt lat="47.4279" lon="6.59908">
        <ele>365.415863</ele>
        <time>2012-05-13T09:04:28Z</time>
      </trkpt>
      <trkpt lat="47.42771" lon="6.59918">
        <ele>365.887512</ele>
        <time>2012-05-13T09:04:34Z</time>
      </trkpt>
      <trkpt lat="47.4275" lon="6.5993">
        <ele>366.394989</ele>
        <time>2012-05-13T09:04:40Z</time>
      </trkpt>
      <trkpt lat="47.42733" lon="6.59947">
        <ele>366.605743</ele>
        <time>2012-05-13T09:04:46Z</time>
      </trkpt>
      <trkpt lat="47.42714" lon="6.59966">
        <ele>367.306396</ele>
        <time>2012-05-13T09:04:52Z</time>
      </trkpt>
      <trkpt lat="47.42682" lon="6.59977">
        <ele>369.293365</ele>
        <time>2012-05-13T09:04:59Z</time>
      </trkpt>
      <trkpt lat="47.42663" lon="6.59984">
        <ele>370.599701</ele>
        <time>2012-05-13T09:05:03Z</time>
      </trkpt>
      <trkpt lat="47.42638" lon="6.59994">
        <ele>371.977844</ele>
        <time>2012-05-13T09:05:08Z</time>
      </trkpt>
      <trkpt lat="47.42627" lon="6.60011">
        <ele>372.691986</ele>
        <time>2012-05-13T09:05:14Z</time>
      </trkpt>
      <trkpt lat="47.42608" lon="6.60021">
        <ele>373.881256</ele>
        <time>2012-05-13T09:05:19Z</time>
      </trkpt>
      <trkpt lat="47.42589" lon="6.60032">
        <ele>374.43689</ele>
        <time>2012-05-13T09:05:24Z</time>
      </trkpt>
      <trkpt lat="47.42572" lon="6.60036">
        <ele>374.737885</ele>
        <time>2012-05-13T09:05:29Z</time>
      </trkpt>
      <trkpt lat="47.42559" lon="6.60051">
        <ele>374.704193</ele>
        <time>2012-05-13T09:05:36Z</time>
      </trkpt>
      <trkpt lat="47.42555" lon="6.60057">
        <ele>374.666229</ele>
        <time>2012-05-13T09:05:40Z</time>
      </trkpt>
      <trkpt lat="47.42539" lon="6.60073">
        <ele>374.681458</ele>
        <time>2012-05-13T09:05:46Z</time>
      </trkpt>
      <trkpt lat="47.42523" lon="6.60084">
        <ele>374.912628</ele>
        <time>2012-05-13T09:05:51Z</time>
      </trkpt>
      <trkpt lat="47.42502" lon="6.60091">
        <ele>374.638458</ele>
        <time>2012-05-13T09:05:57Z</time>
      </trkpt>
      <trkpt lat="47.42484" lon="6.60102">
        <ele>373.753143</ele>
        <time>2012-05-13T09:06:02Z</time>
      </trkpt>
      <trkpt lat="47.42459" lon="6.60116">
        <ele>373.140015</ele>
        <time>2012-05-13T09:06:08Z</time>
      </trkpt>
      <trkpt lat="47.42445" lon="6.60126">
        <ele>372.797485</ele>
        <time>2012-05-13T09:06:11Z</time>
      </trkpt>
      <trkpt lat="47.42435" lon="6.60134">
        <ele>372.532501</ele>
        <time>2012-05-13T09:06:13Z</time>
      </trkpt>
      <trkpt lat="47.424" lon="6.60157">
        <ele>371.182495</ele>
        <time>2012-05-13T09:06:18Z</time>
      </trkpt>
      <trkpt lat="47.42391" lon="6.6016">
        <ele>370.869995</ele>
        <time>2012-05-13T09:06:19Z</time>
      </trkpt>
      <trkpt lat="47.42377" lon="6.60166">
        <ele>370.271149</ele>
        <time>2012-05-13T09:06:21Z</time>
      </trkpt>
      <trkpt lat="47.42338" lon="6.60197">
        <ele>366.855103</ele>
        <time>2012-05-13T09:06:27Z</time>
      </trkpt>
      <trkpt lat="47.42331" lon="6.60203">
        <ele>366.179382</ele>
        <time>2012-05-13T09:06:28Z</time>
      </trkpt>
      <trkpt lat="47.42332" lon="6.60229">
        <ele>365.087677</ele>
        <time>2012-05-13T09:06:32Z</time>
      </trkpt>
      <trkpt lat="47.42343" lon="6.60239">
        <ele>365.381256</ele>
        <time>2012-05-13T09:06:36Z</time>
      </trkpt>
      <trkpt lat="47.42357" lon="6.60259">
        <ele>365.58374</ele>
        <time>2012-05-13T09:06:42Z</time>
      </trkpt>
      <trkpt lat="47.42358" lon="6.60267">
        <ele>365.309998</ele>
        <time>2012-05-13T09:06:47Z</time>
      </trkpt>
      <trkpt lat="47.42344" lon="6.60265">
        <ele>364.380005</ele>
        <time>2012-05-13T09:06:53Z</time>
      </trkpt>
      <trkpt lat="47.42322" lon="6.60265">
        <ele>362.424591</ele>
        <time>2012-05-13T09:06:56Z</time>
      </trkpt>
      <trkpt lat="47.42287" lon="6.60279">
        <ele>357.645599</ele>
        <time>2012-05-13T09:07:01Z</time>
      </trkpt>
      <trkpt lat="47.42273" lon="6.60297">
        <ele>355.576294</ele>
        <time>2012-05-13T09:07:05Z</time>
      </trkpt>
      <trkpt lat="47.4227" lon="6.60324">
        <ele>353.026947</ele>
        <time>2012-05-13T09:07:09Z</time>
      </trkpt>
      <trkpt lat="47.42282" lon="6.60349">
        <ele>351.169342</ele>
        <time>2012-05-13T09:07:12Z</time>
      </trkpt>
      <trkpt lat="47.42287" lon="6.60366">
        <ele>350.671997</ele>
        <time>2012-05-13T09:07:14Z</time>
      </trkpt>
      <trkpt lat="47.42293" lon="6.60418">
        <ele>347.865753</ele>
        <time>2012-05-13T09:07:21Z</time>
      </trkpt>
      <trkpt lat="47.42298" lon="6.60455">
        <ele>345.782318</ele>
        <time>2012-05-13T09:07:27Z</time>
      </trkpt>
      <trkpt lat="47.42298" lon="6.60461">
        <ele>345.332275</ele>
        <time>2012-05-13T09:07:28Z</time>
      </trkpt>
      <trkpt lat="47.42299" lon="6.60511">
        <ele>341.094391</ele>
        <time>2012-05-13T09:07:34Z</time>
      </trkpt>
      <trkpt lat="47.42302" lon="6.60549">
        <ele>338.174988</ele>
        <time>2012-05-13T09:07:38Z</time>
      </trkpt>
      <trkpt lat="47.423" lon="6.60602">
        <ele>333.407501</ele>
        <time>2012-05-13T09:07:43Z</time>
      </trkpt>
      <trkpt lat="47.42307" lon="6.60649">
        <ele>327.624634</ele>
        <time>2012-05-13T09:07:47Z</time>
      </trkpt>
      <trkpt lat="47.42318" lon="6.607">
        <ele>317.143372</ele>
        <time>2012-05-13T09:07:52Z</time>
      </trkpt>
      <trkpt lat="47.42321" lon="6.60706">
        <ele>315.261597</ele>
        <time>2012-05-13T09:07:53Z</time>
      </trkpt>
      <trkpt lat="47.42338" lon="6.60729">
        <ele>308.783997</ele>
        <time>2012-05-13T09:07:58Z</time>
      </trkpt>
      <trkpt lat="47.42353" lon="6.60729">
        <ele>308.653717</ele>
        <time>2012-05-13T09:08:01Z</time>
      </trkpt>
      <trkpt lat="47.42378" lon="6.60729">
        <ele>307.325562</ele>
        <time>2012-05-13T09:08:05Z</time>
      </trkpt>
      <trkpt lat="47.42422" lon="6.6071">
        <ele>306.162506</ele>
        <time>2012-05-13T09:08:11Z</time>
      </trkpt>
      <trkpt lat="47.42458" lon="6.60697">
        <ele>304.95462</ele>
        <time>2012-05-13T09:08:15Z</time>
      </trkpt>
      <trkpt lat="47.42483" lon="6.60689">
        <ele>304.402405</ele>
        <time>2012-05-13T09:08:18Z</time>
      </trkpt>
      <trkpt lat="47.42513" lon="6.607">
        <ele>304.260498</ele>
        <time>2012-05-13T09:08:23Z</time>
      </trkpt>
      <trkpt lat="47.42512" lon="6.60702">
        <ele>304.527405</ele>
        <time>2012-05-13T09:08:27Z</time>
      </trkpt>
      <trkpt lat="47.42526" lon="6.60699">
        <ele>303.742706</ele>
        <time>2012-05-13T09:08:44Z</time>
      </trkpt>
      <trkpt lat="47.42517" lon="6.60703">
        <ele>304.477386</ele>
        <time>2012-05-13T09:08:50Z</time>
      </trkpt>
      <trkpt lat="47.42517" lon="6.60702">
        <ele>304.30835</ele>
        <time>2012-05-13T09:08:55Z</time>
      </trkpt>
      <trkpt lat="47.42504" lon="6.6069">
        <ele>303.783295</ele>
        <time>2012-05-13T09:09:09Z</time>
      </trkpt>
      <trkpt lat="47.425" lon="6.60695">
        <ele>304.252991</ele>
        <time>2012-05-13T09:09:27Z</time>
      </trkpt>
      <trkpt lat="47.42506" lon="6.607">
        <ele>304.479553</ele>
        <time>2012-05-13T09:09:45Z</time>
      </trkpt>
      <trkpt lat="47.42506" lon="6.60702">
        <ele>304.683258</ele>
        <time>2012-05-13T09:09:47Z</time>
      </trkpt>
      <trkpt lat="47.42514" lon="6.6071">
        <ele>305.222992</ele>
        <time>2012-05-13T09:09:53Z</time>
      </trkpt>
      <trkpt lat="47.42516" lon="6.60707">
        <ele>304.928772</ele>
        <time>2012-05-13T09:09:57Z</time>
      </trkpt>
      <trkpt lat="47.42514" lon="6.60699">
        <ele>304.114319</ele>
        <time>2012-05-13T09:10:02Z</time>
      </trkpt>
      <trkpt lat="47.42521" lon="6.60699">
        <ele>303.861694</ele>
        <time>2012-05-13T09:10:04Z</time>
      </trkpt>
      <trkpt lat="47.42519" lon="6.60693">
        <ele>303.280701</ele>
        <time>2012-05-13T09:10:08Z</time>
      </trkpt>
      <trkpt lat="47.42513" lon="6.60698">
        <ele>304.038086</ele>
        <time>2012-05-13T09:10:12Z</time>
      </trkpt>
      <trkpt lat="47.42519" lon="6.60702">
        <ele>304.322144</ele>
        <time>2012-05-13T09:10:16Z</time>
      </trkpt>
      <trkpt lat="47.42522" lon="6.607">
        <ele>304.060638</ele>
        <time>2012-05-13T09:10:22Z</time>
      </trkpt>
      <trkpt lat="47.42509" lon="6.60704">
        <ele>304.770264</ele>
        <time>2012-05-13T09:10:37Z</time>
      </trkpt>
      <trkpt lat="47.42506" lon="6.60708">
        <ele>305.117981</ele>
        <time>2012-05-13T09:10:44Z</time>
      </trkpt>
      <trkpt lat="47.42506" lon="6.60708">
        <ele>305.103149</ele>
        <time>2012-05-13T09:10:54Z</time>
      </trkpt>
      <trkpt lat="47.42512" lon="6.60703">
        <ele>304.625</ele>
        <time>2012-05-13T09:11:04Z</time>
      </trkpt>
      <trkpt lat="47.42524" lon="6.60692">
        <ele>302.993591</ele>
        <time>2012-05-13T09:11:44Z</time>
      </trkpt>
      <trkpt lat="47.4251" lon="6.60705">
        <ele>304.835144</ele>
        <time>2012-05-13T09:13:39Z</time>
      </trkpt>
      <trkpt lat="47.42519" lon="6.60691">
        <ele>303.131256</ele>
        <time>2012-05-13T09:17:31Z</time>
      </trkpt>
      <trkpt lat="47.42516" lon="6.60686">
        <ele>303.279388</ele>
        <time>2012-05-13T09:17:36Z</time>
      </trkpt>
      <trkpt lat="47.42517" lon="6.6069">
        <ele>303.137909</ele>
        <time>2012-05-13T09:17:54Z</time>
      </trkpt>
      <trkpt lat="47.42522" lon="6.60693">
        <ele>303.158569</ele>
        <time>2012-05-13T09:18:10Z</time>
      </trkpt>
      <trkpt lat="47.42514" lon="6.6069">
        <ele>303.320007</ele>
        <time>2012-05-13T09:19:08Z</time>
      </trkpt>
      <trkpt lat="47.42517" lon="6.60693">
        <ele>303.452423</ele>
        <time>2012-05-13T09:19:14Z</time>
      </trkpt>
      <trkpt lat="47.42515" lon="6.60692">
        <ele>303.468994</ele>
        <time>2012-05-13T09:19:20Z</time>
      </trkpt>
      <trkpt lat="47.42516" lon="6.60693">
        <ele>303.518341</ele>
        <time>2012-05-13T09:19:27Z</time>
      </trkpt>
      <trkpt lat="47.42508" lon="6.60696">
        <ele>304.106812</ele>
        <time>2012-05-13T09:19:36Z</time>
      </trkpt>
      <trkpt lat="47.42511" lon="6.60689">
        <ele>303.325165</ele>
        <time>2012-05-13T09:19:44Z</time>
      </trkpt>
      <trkpt lat="47.42513" lon="6.60688">
        <ele>303.319489</ele>
        <time>2012-05-13T09:19:49Z</time>
      </trkpt>
      <trkpt lat="47.42508" lon="6.60691">
        <ele>303.668945</ele>
        <time>2012-05-13T09:20:06Z</time>
      </trkpt>
      <trkpt lat="47.42505" lon="6.60692">
        <ele>303.881409</ele>
        <time>2012-05-13T09:20:54Z</time>
      </trkpt>
      <trkpt lat="47.42504" lon="6.60689">
        <ele>303.706818</ele>
        <time>2012-05-13T09:20:59Z</time>
      </trkpt>
      <trkpt lat="47.42505" lon="6.60693">
        <ele>303.975708</ele>
        <time>2012-05-13T09:21:05Z</time>
      </trkpt>
      <trkpt lat="47.4251" lon="6.60697">
        <ele>304.063995</ele>
        <time>2012-05-13T09:21:22Z</time>
      </trkpt>
      <trkpt lat="47.42514" lon="6.60696">
        <ele>303.824951</ele>
        <time>2012-05-13T09:21:34Z</time>
      </trkpt>
      <trkpt lat="47.42513" lon="6.60697">
        <ele>303.949097</ele>
        <time>2012-05-13T09:21:38Z</time>
      </trkpt>
      <trkpt lat="47.42504" lon="6.60703">
        <ele>304.747406</ele>
        <time>2012-05-13T09:21:45Z</time>
      </trkpt>
      <trkpt lat="47.42493" lon="6.60713">
        <ele>305.501373</ele>
        <time>2012-05-13T09:21:50Z</time>
      </trkpt>
      <trkpt lat="47.42478" lon="6.60717">
        <ele>305.5289</ele>
        <time>2012-05-13T09:21:55Z</time>
      </trkpt>
      <trkpt lat="47.42459" lon="6.60731">
        <ele>305.393799</ele>
        <time>2012-05-13T09:22:02Z</time>
      </trkpt>
      <trkpt lat="47.42444" lon="6.60742">
        <ele>304.956696</ele>
        <time>2012-05-13T09:22:09Z</time>
      </trkpt>
      <trkpt lat="47.42422" lon="6.60759">
        <ele>305.747375</ele>
        <time>2012-05-13T09:22:16Z</time>
      </trkpt>
      <trkpt lat="47.42396" lon="6.60768">
        <ele>306.112305</ele>
        <time>2012-05-13T09:22:22Z</time>
      </trkpt>
      <trkpt lat="47.42369" lon="6.60776">
        <ele>306.958191</ele>
        <time>2012-05-13T09:22:28Z</time>
      </trkpt>
      <trkpt lat="47.42365" lon="6.60777">
        <ele>307.03299</ele>
        <time>2012-05-13T09:22:29Z</time>
      </trkpt>
      <trkpt lat="47.4233" lon="6.6078">
        <ele>306.826538</ele>
        <time>2012-05-13T09:22:36Z</time>
      </trkpt>
      <trkpt lat="47.42303" lon="6.60774">
        <ele>306.726379</ele>
        <time>2012-05-13T09:22:41Z</time>
      </trkpt>
      <trkpt lat="47.4227" lon="6.60772">
        <ele>307.409393</ele>
        <time>2012-05-13T09:22:47Z</time>
      </trkpt>
      <trkpt lat="47.42226" lon="6.60768">
        <ele>307.95932</ele>
        <time>2012-05-13T09:22:56Z</time>
      </trkpt>
      <trkpt lat="47.42221" lon="6.60768">
        <ele>308.066589</ele>
        <time>2012-05-13T09:22:57Z</time>
      </trkpt>
      <trkpt lat="47.42186" lon="6.60768">
        <ele>309.491455</ele>
        <time>2012-05-13T09:23:04Z</time>
      </trkpt>
      <trkpt lat="47.42176" lon="6.60771">
        <ele>309.74057</ele>
        <time>2012-05-13T09:23:06Z</time>
      </trkpt>
      <trkpt lat="47.4215" lon="6.60787">
        <ele>309.264008</ele>
        <time>2012-05-13T09:23:12Z</time>
      </trkpt>
      <trkpt lat="47.42121" lon="6.60808">
        <ele>309.796783</ele>
        <time>2012-05-13T09:23:18Z</time>
      </trkpt>
      <trkpt lat="47.42095" lon="6.60834">
        <ele>310.325623</ele>
        <time>2012-05-13T09:23:25Z</time>
      </trkpt>
      <trkpt lat="47.42061" lon="6.60868">
        <ele>311.863251</ele>
        <time>2012-05-13T09:23:33Z</time>
      </trkpt>
      <trkpt lat="47.42046" lon="6.60885">
        <ele>312.265198</ele>
        <time>2012-05-13T09:23:37Z</time>
      </trkpt>
      <trkpt lat="47.42026" lon="6.60911">
        <ele>311.807709</ele>
        <time>2012-05-13T09:23:43Z</time>
      </trkpt>
      <trkpt lat="47.4201" lon="6.60929">
        <ele>313.400146</ele>
        <time>2012-05-13T09:23:47Z</time>
      </trkpt>
      <trkpt lat="47.41993" lon="6.60965">
        <ele>316.815125</ele>
        <time>2012-05-13T09:23:53Z</time>
      </trkpt>
      <trkpt lat="47.41972" lon="6.61003">
        <ele>319.889313</ele>
        <time>2012-05-13T09:24:00Z</time>
      </trkpt>
      <trkpt lat="47.41946" lon="6.61035">
        <ele>319.232239</ele>
        <time>2012-05-13T09:24:07Z</time>
      </trkpt>
      <trkpt lat="47.41937" lon="6.61043">
        <ele>318.419006</ele>
        <time>2012-05-13T09:24:09Z</time>
      </trkpt>
      <trkpt lat="47.4192" lon="6.6107">
        <ele>318.30899</ele>
        <time>2012-05-13T09:24:14Z</time>
      </trkpt>
      <trkpt lat="47.41901" lon="6.61103">
        <ele>316.354492</ele>
        <time>2012-05-13T09:24:21Z</time>
      </trkpt>
      <trkpt lat="47.41897" lon="6.61118">
        <ele>317.466797</ele>
        <time>2012-05-13T09:24:25Z</time>
      </trkpt>
      <trkpt lat="47.41896" lon="6.61122">
        <ele>317.818512</ele>
        <time>2012-05-13T09:24:26Z</time>
      </trkpt>
      <trkpt lat="47.4188" lon="6.61129">
        <ele>317.088013</ele>
        <time>2012-05-13T09:24:31Z</time>
      </trkpt>
      <trkpt lat="47.4187" lon="6.61135">
        <ele>316.537781</ele>
        <time>2012-05-13T09:24:33Z</time>
      </trkpt>
      <trkpt lat="47.41853" lon="6.61152">
        <ele>315.339874</ele>
        <time>2012-05-13T09:24:38Z</time>
      </trkpt>
      <trkpt lat="47.41853" lon="6.61157">
        <ele>315.491638</ele>
        <time>2012-05-13T09:24:39Z</time>
      </trkpt>
      <trkpt lat="47.4185" lon="6.61166">
        <ele>315.396301</ele>
        <time>2012-05-13T09:24:41Z</time>
      </trkpt>
      <trkpt lat="47.41818" lon="6.61198">
        <ele>320.320679</ele>
        <time>2012-05-13T09:24:48Z</time>
      </trkpt>
      <trkpt lat="47.41805" lon="6.61227">
        <ele>323.205505</ele>
        <time>2012-05-13T09:24:53Z</time>
      </trkpt>
      <trkpt lat="47.41806" lon="6.61232">
        <ele>324.024994</ele>
        <time>2012-05-13T09:24:54Z</time>
      </trkpt>
      <trkpt lat="47.41795" lon="6.61261">
        <ele>327.769501</ele>
        <time>2012-05-13T09:25:01Z</time>
      </trkpt>
      <trkpt lat="47.41777" lon="6.61287">
        <ele>330.37561</ele>
        <time>2012-05-13T09:25:10Z</time>
      </trkpt>
      <trkpt lat="47.41777" lon="6.6131">
        <ele>332.60437</ele>
        <time>2012-05-13T09:25:16Z</time>
      </trkpt>
      <trkpt lat="47.4177" lon="6.61333">
        <ele>334.190186</ele>
        <time>2012-05-13T09:25:22Z</time>
      </trkpt>
      <trkpt lat="47.4177" lon="6.61353">
        <ele>336.015656</ele>
        <time>2012-05-13T09:25:27Z</time>
      </trkpt>
      <trkpt lat="47.41765" lon="6.61375">
        <ele>337.025848</ele>
        <time>2012-05-13T09:25:32Z</time>
      </trkpt>
      <trkpt lat="47.41761" lon="6.61401">
        <ele>338.359283</ele>
        <time>2012-05-13T09:25:38Z</time>
      </trkpt>
      <trkpt lat="47.41756" lon="6.61425">
        <ele>339.272797</ele>
        <time>2012-05-13T09:25:44Z</time>
      </trkpt>
      <trkpt lat="47.41751" lon="6.61463">
        <ele>340.957123</ele>
        <time>2012-05-13T09:25:52Z</time>
      </trkpt>
      <trkpt lat="47.41747" lon="6.61487">
        <ele>341.996887</ele>
        <time>2012-05-13T09:25:58Z</time>
      </trkpt>
      <trkpt lat="47.41744" lon="6.61517">
        <ele>343.089996</ele>
        <time>2012-05-13T09:26:06Z</time>
      </trkpt>
      <trkpt lat="47.41738" lon="6.61547">
        <ele>343.762512</ele>
        <time>2012-05-13T09:26:14Z</time>
      </trkpt>
      <trkpt lat="47.41736" lon="6.61562">
        <ele>344.193207</ele>
        <time>2012-05-13T09:26:18Z</time>
      </trkpt>
      <trkpt lat="47.41743" lon="6.61568">
        <ele>345.51001</ele>
        <time>2012-05-13T09:26:24Z</time>
      </trkpt>
      <trkpt lat="47.41746" lon="6.61563">
        <ele>345.744537</ele>
        <time>2012-05-13T09:26:26Z</time>
      </trkpt>
      <trkpt lat="47.41762" lon="6.61543">
        <ele>347.030762</ele>
        <time>2012-05-13T09:26:34Z</time>
      </trkpt>
      <trkpt lat="47.41764" lon="6.61535">
        <ele>346.933868</ele>
        <time>2012-05-13T09:26:37Z</time>
      </trkpt>
      <trkpt lat="47.4178" lon="6.61524">
        <ele>348.572632</ele>
        <time>2012-05-13T09:26:43Z</time>
      </trkpt>
      <trkpt lat="47.41789" lon="6.61506">
        <ele>348.543335</ele>
        <time>2012-05-13T09:26:48Z</time>
      </trkpt>
      <trkpt lat="47.41799" lon="6.61489">
        <ele>349.074829</ele>
        <time>2012-05-13T09:26:54Z</time>
      </trkpt>
      <trkpt lat="47.41816" lon="6.61473">
        <ele>350.743439</ele>
        <time>2012-05-13T09:27:02Z</time>
      </trkpt>
      <trkpt lat="47.41831" lon="6.61459">
        <ele>351.751556</ele>
        <time>2012-05-13T09:27:08Z</time>
      </trkpt>
      <trkpt lat="47.41846" lon="6.6145">
        <ele>352.737488</ele>
        <time>2012-05-13T09:27:13Z</time>
      </trkpt>
      <trkpt lat="47.41847" lon="6.61449">
        <ele>352.887512</ele>
        <time>2012-05-13T09:27:14Z</time>
      </trkpt>
      <trkpt lat="47.41863" lon="6.61432">
        <ele>353.230713</ele>
        <time>2012-05-13T09:27:19Z</time>
      </trkpt>
      <trkpt lat="47.41876" lon="6.6142">
        <ele>353.556427</ele>
        <time>2012-05-13T09:27:22Z</time>
      </trkpt>
      <trkpt lat="47.41912" lon="6.61383">
        <ele>353.946594</ele>
        <time>2012-05-13T09:27:30Z</time>
      </trkpt>
      <trkpt lat="47.41921" lon="6.61374">
        <ele>354.062317</ele>
        <time>2012-05-13T09:27:32Z</time>
      </trkpt>
      <trkpt lat="47.41943" lon="6.61361">
        <ele>355.737885</ele>
        <time>2012-05-13T09:27:37Z</time>
      </trkpt>
      <trkpt lat="47.41952" lon="6.61353">
        <ele>356.194275</ele>
        <time>2012-05-13T09:27:41Z</time>
      </trkpt>
      <trkpt lat="47.41964" lon="6.61348">
        <ele>357.434174</ele>
        <time>2012-05-13T09:27:46Z</time>
      </trkpt>
      <trkpt lat="47.41974" lon="6.61335">
        <ele>357.31778</ele>
        <time>2012-05-13T09:27:51Z</time>
      </trkpt>
      <trkpt lat="47.41978" lon="6.61322">
        <ele>356.346771</ele>
        <time>2012-05-13T09:27:56Z</time>
      </trkpt>
      <trkpt lat="47.41994" lon="6.61317">
        <ele>357.074432</ele>
        <time>2012-05-13T09:28:03Z</time>
      </trkpt>
      <trkpt lat="47.4201" lon="6.61317">
        <ele>358.335297</ele>
        <time>2012-05-13T09:28:09Z</time>
      </trkpt>
      <trkpt lat="47.42021" lon="6.61318">
        <ele>359.300537</ele>
        <time>2012-05-13T09:28:15Z</time>
      </trkpt>
      <trkpt lat="47.42024" lon="6.61319">
        <ele>359.510254</ele>
        <time>2012-05-13T09:28:17Z</time>
      </trkpt>
      <trkpt lat="47.42031" lon="6.61319">
        <ele>359.641754</ele>
        <time>2012-05-13T09:28:21Z</time>
      </trkpt>
      <trkpt lat="47.42057" lon="6.61335">
        <ele>361.710236</ele>
        <time>2012-05-13T09:28:28Z</time>
      </trkpt>
      <trkpt lat="47.42077" lon="6.61345">
        <ele>362.677307</ele>
        <time>2012-05-13T09:28:33Z</time>
      </trkpt>
      <trkpt lat="47.42093" lon="6.61361">
        <ele>363.633209</ele>
        <time>2012-05-13T09:28:39Z</time>
      </trkpt>
      <trkpt lat="47.42106" lon="6.61383">
        <ele>364.956451</ele>
        <time>2012-05-13T09:28:44Z</time>
      </trkpt>
      <trkpt lat="47.42108" lon="6.61404">
        <ele>366.144989</ele>
        <time>2012-05-13T09:28:49Z</time>
      </trkpt>
      <trkpt lat="47.42102" lon="6.61431">
        <ele>368</ele>
        <time>2012-05-13T09:28:56Z</time>
      </trkpt>
      <trkpt lat="47.42097" lon="6.61456">
        <ele>369.710022</ele>
        <time>2012-05-13T09:29:03Z</time>
      </trkpt>
      <trkpt lat="47.42088" lon="6.61488">
        <ele>371.777252</ele>
        <time>2012-05-13T09:29:12Z</time>
      </trkpt>
      <trkpt lat="47.42081" lon="6.61518">
        <ele>373.547302</ele>
        <time>2012-05-13T09:29:21Z</time>
      </trkpt>
      <trkpt lat="47.42076" lon="6.61551">
        <ele>374.276581</ele>
        <time>2012-05-13T09:29:30Z</time>
      </trkpt>
      <trkpt lat="47.42063" lon="6.61589">
        <ele>375.536255</ele>
        <time>2012-05-13T09:29:40Z</time>
      </trkpt>
      <trkpt lat="47.42048" lon="6.61617">
        <ele>375.551453</ele>
        <time>2012-05-13T09:29:48Z</time>
      </trkpt>
      <trkpt lat="47.42029" lon="6.61651">
        <ele>375.473236</ele>
        <time>2012-05-13T09:29:56Z</time>
      </trkpt>
      <trkpt lat="47.42016" lon="6.61682">
        <ele>375.595184</ele>
        <time>2012-05-13T09:30:03Z</time>
      </trkpt>
      <trkpt lat="47.42004" lon="6.61715">
        <ele>376.015228</ele>
        <time>2012-05-13T09:30:10Z</time>
      </trkpt>
      <trkpt lat="47.41993" lon="6.61744">
        <ele>375.921356</ele>
        <time>2012-05-13T09:30:16Z</time>
      </trkpt>
      <trkpt lat="47.41985" lon="6.61771">
        <ele>375.938599</ele>
        <time>2012-05-13T09:30:22Z</time>
      </trkpt>
      <trkpt lat="47.41987" lon="6.61773">
        <ele>375.856689</ele>
        <time>2012-05-13T09:30:27Z</time>
      </trkpt>
      <trkpt lat="47.41987" lon="6.61771">
        <ele>375.873352</ele>
        <time>2012-05-13T09:30:32Z</time>
      </trkpt>
      <trkpt lat="47.41988" lon="6.61769">
        <ele>375.851013</ele>
        <time>2012-05-13T09:30:47Z</time>
      </trkpt>
      <trkpt lat="47.41985" lon="6.61763">
        <ele>376.014496</ele>
        <time>2012-05-13T09:32:59Z</time>
      </trkpt>
      <trkpt lat="47.41983" lon="6.61764">
        <ele>376.100861</ele>
        <time>2012-05-13T09:33:11Z</time>
      </trkpt>
      <trkpt lat="47.41987" lon="6.61766">
        <ele>375.901855</ele>
        <time>2012-05-13T09:33:18Z</time>
      </trkpt>
      <trkpt lat="47.41984" lon="6.61768">
        <ele>375.991669</ele>
        <time>2012-05-13T09:34:21Z</time>
      </trkpt>
      <trkpt lat="47.4198" lon="6.61767">
        <ele>376.18515</ele>
        <time>2012-05-13T09:34:32Z</time>
      </trkpt>
      <trkpt lat="47.41986" lon="6.61768">
        <ele>375.93811</ele>
        <time>2012-05-13T09:35:00Z</time>
      </trkpt>
      <trkpt lat="47.4198" lon="6.61768">
        <ele>376.165649</ele>
        <time>2012-05-13T09:36:16Z</time>
      </trkpt>
      <trkpt lat="47.41985" lon="6.61769">
        <ele>375.983063</ele>
        <time>2012-05-13T09:37:55Z</time>
      </trkpt>
      <trkpt lat="47.41987" lon="6.61771">
        <ele>375.854675</ele>
        <time>2012-05-13T09:37:59Z</time>
      </trkpt>
      <trkpt lat="47.41986" lon="6.61781">
        <ele>375.615723</ele>
        <time>2012-05-13T09:38:05Z</time>
      </trkpt>
      <trkpt lat="47.41986" lon="6.61791">
        <ele>375.328613</ele>
        <time>2012-05-13T09:38:09Z</time>
      </trkpt>
      <trkpt lat="47.41987" lon="6.6181">
        <ele>374.585327</ele>
        <time>2012-05-13T09:38:15Z</time>
      </trkpt>
      <trkpt lat="47.41987" lon="6.61834">
        <ele>373.702209</ele>
        <time>2012-05-13T09:38:20Z</time>
      </trkpt>
      <trkpt lat="47.41991" lon="6.61868">
        <ele>372.681763</ele>
        <time>2012-05-13T09:38:27Z</time>
      </trkpt>
      <trkpt lat="47.41996" lon="6.61906">
        <ele>371.578918</ele>
        <time>2012-05-13T09:38:34Z</time>
      </trkpt>
      <trkpt lat="47.42" lon="6.61949">
        <ele>370.865356</ele>
        <time>2012-05-13T09:38:41Z</time>
      </trkpt>
      <trkpt lat="47.41999" lon="6.61963">
        <ele>370.896454</ele>
        <time>2012-05-13T09:38:43Z</time>
      </trkpt>
      <trkpt lat="47.41998" lon="6.61976">
        <ele>371.00531</ele>
        <time>2012-05-13T09:38:45Z</time>
      </trkpt>
      <trkpt lat="47.41987" lon="6.62016">
        <ele>371.884949</ele>
        <time>2012-05-13T09:38:52Z</time>
      </trkpt>
      <trkpt lat="47.41977" lon="6.62061">
        <ele>373.390503</ele>
        <time>2012-05-13T09:39:01Z</time>
      </trkpt>
      <trkpt lat="47.41969" lon="6.62098">
        <ele>374.764374</ele>
        <time>2012-05-13T09:39:09Z</time>
      </trkpt>
      <trkpt lat="47.4196" lon="6.6214">
        <ele>376.68927</ele>
        <time>2012-05-13T09:39:18Z</time>
      </trkpt>
      <trkpt lat="47.41952" lon="6.62181">
        <ele>378.206543</ele>
        <time>2012-05-13T09:39:27Z</time>
      </trkpt>
      <trkpt lat="47.41942" lon="6.62209">
        <ele>379.109985</ele>
        <time>2012-05-13T09:39:33Z</time>
      </trkpt>
      <trkpt lat="47.41931" lon="6.6225">
        <ele>379.685577</ele>
        <time>2012-05-13T09:39:40Z</time>
      </trkpt>
      <trkpt lat="47.41929" lon="6.62256">
        <ele>379.809418</ele>
        <time>2012-05-13T09:39:41Z</time>
      </trkpt>
      <trkpt lat="47.41924" lon="6.62279">
        <ele>380.187164</ele>
        <time>2012-05-13T09:39:45Z</time>
      </trkpt>
      <trkpt lat="47.4191" lon="6.62324">
        <ele>380.30249</ele>
        <time>2012-05-13T09:39:54Z</time>
      </trkpt>
      <trkpt lat="47.41893" lon="6.62363">
        <ele>380.016235</ele>
        <time>2012-05-13T09:40:03Z</time>
      </trkpt>
      <trkpt lat="47.41879" lon="6.62398">
        <ele>377.778564</ele>
        <time>2012-05-13T09:40:11Z</time>
      </trkpt>
      <trkpt lat="47.41868" lon="6.62429">
        <ele>376.004364</ele>
        <time>2012-05-13T09:40:17Z</time>
      </trkpt>
      <trkpt lat="47.41855" lon="6.62467">
        <ele>373.946808</ele>
        <time>2012-05-13T09:40:22Z</time>
      </trkpt>
      <trkpt lat="47.41844" lon="6.62517">
        <ele>372.590332</ele>
        <time>2012-05-13T09:40:29Z</time>
      </trkpt>
      <trkpt lat="47.41836" lon="6.62551">
        <ele>372.716888</ele>
        <time>2012-05-13T09:40:35Z</time>
      </trkpt>
      <trkpt lat="47.41826" lon="6.62591">
        <ele>375.016235</ele>
        <time>2012-05-13T09:40:42Z</time>
      </trkpt>
      <trkpt lat="47.4182" lon="6.62604">
        <ele>376.278748</ele>
        <time>2012-05-13T09:40:46Z</time>
      </trkpt>
      <trkpt lat="47.41824" lon="6.62614">
        <ele>376.154999</ele>
        <time>2012-05-13T09:40:50Z</time>
      </trkpt>
      <trkpt lat="47.41837" lon="6.62625">
        <ele>375.142487</ele>
        <time>2012-05-13T09:40:56Z</time>
      </trkpt>
      <trkpt lat="47.4185" lon="6.62638">
        <ele>374.024994</ele>
        <time>2012-05-13T09:41:01Z</time>
      </trkpt>
      <trkpt lat="47.41863" lon="6.62655">
        <ele>372.980011</ele>
        <time>2012-05-13T09:41:05Z</time>
      </trkpt>
      <trkpt lat="47.41881" lon="6.62694">
        <ele>371.980011</ele>
        <time>2012-05-13T09:41:11Z</time>
      </trkpt>
      <trkpt lat="47.41888" lon="6.6272">
        <ele>370.315002</ele>
        <time>2012-05-13T09:41:15Z</time>
      </trkpt>
      <trkpt lat="47.41888" lon="6.62728">
        <ele>370.042511</ele>
        <time>2012-05-13T09:41:16Z</time>
      </trkpt>
      <trkpt lat="47.41888" lon="6.6275">
        <ele>369.631256</ele>
        <time>2012-05-13T09:41:19Z</time>
      </trkpt>
      <trkpt lat="47.41884" lon="6.62791">
        <ele>368.59845</ele>
        <time>2012-05-13T09:41:24Z</time>
      </trkpt>
      <trkpt lat="47.41881" lon="6.62814">
        <ele>367.785889</ele>
        <time>2012-05-13T09:41:28Z</time>
      </trkpt>
      <trkpt lat="47.41885" lon="6.62825">
        <ele>366.485382</ele>
        <time>2012-05-13T09:41:30Z</time>
      </trkpt>
      <trkpt lat="47.41893" lon="6.62855">
        <ele>364.639648</ele>
        <time>2012-05-13T09:41:34Z</time>
      </trkpt>
      <trkpt lat="47.41898" lon="6.62867">
        <ele>363.742859</ele>
        <time>2012-05-13T09:41:36Z</time>
      </trkpt>
      <trkpt lat="47.41907" lon="6.62896">
        <ele>362.149963</ele>
        <time>2012-05-13T09:41:40Z</time>
      </trkpt>
      <trkpt lat="47.41918" lon="6.62926">
        <ele>362.148346</ele>
        <time>2012-05-13T09:41:44Z</time>
      </trkpt>
      <trkpt lat="47.41935" lon="6.62941">
        <ele>362.017975</ele>
        <time>2012-05-13T09:41:48Z</time>
      </trkpt>
      <trkpt lat="47.41954" lon="6.62962">
        <ele>361.479187</ele>
        <time>2012-05-13T09:41:53Z</time>
      </trkpt>
      <trkpt lat="47.41969" lon="6.62989">
        <ele>364.394653</ele>
        <time>2012-05-13T09:41:58Z</time>
      </trkpt>
      <trkpt lat="47.41972" lon="6.63015">
        <ele>367.385406</ele>
        <time>2012-05-13T09:42:03Z</time>
      </trkpt>
      <trkpt lat="47.41979" lon="6.63028">
        <ele>369.263153</ele>
        <time>2012-05-13T09:42:07Z</time>
      </trkpt>
      <trkpt lat="47.41998" lon="6.63021">
        <ele>370.556335</ele>
        <time>2012-05-13T09:42:11Z</time>
      </trkpt>
      <trkpt lat="47.42003" lon="6.6301">
        <ele>370.592987</ele>
        <time>2012-05-13T09:42:13Z</time>
      </trkpt>
      <trkpt lat="47.41995" lon="6.62981">
        <ele>367.728455</ele>
        <time>2012-05-13T09:42:18Z</time>
      </trkpt>
      <trkpt lat="47.41992" lon="6.62974">
        <ele>366.883514</ele>
        <time>2012-05-13T09:42:19Z</time>
      </trkpt>
      <trkpt lat="47.41983" lon="6.6294">
        <ele>363.247406</ele>
        <time>2012-05-13T09:42:23Z</time>
      </trkpt>
      <trkpt lat="47.41974" lon="6.62909">
        <ele>360.52243</ele>
        <time>2012-05-13T09:42:27Z</time>
      </trkpt>
      <trkpt lat="47.41972" lon="6.62878">
        <ele>358.538513</ele>
        <time>2012-05-13T09:42:31Z</time>
      </trkpt>
      <trkpt lat="47.41981" lon="6.62852">
        <ele>357.631195</ele>
        <time>2012-05-13T09:42:36Z</time>
      </trkpt>
      <trkpt lat="47.41995" lon="6.62829">
        <ele>356.470001</ele>
        <time>2012-05-13T09:42:42Z</time>
      </trkpt>
      <trkpt lat="47.42007" lon="6.62807">
        <ele>354.255829</ele>
        <time>2012-05-13T09:42:47Z</time>
      </trkpt>
      <trkpt lat="47.42026" lon="6.62791">
        <ele>351.385193</ele>
        <time>2012-05-13T09:42:53Z</time>
      </trkpt>
      <trkpt lat="47.42041" lon="6.62782">
        <ele>349.912872</ele>
        <time>2012-05-13T09:42:58Z</time>
      </trkpt>
      <trkpt lat="47.42055" lon="6.62781">
        <ele>349.317993</ele>
        <time>2012-05-13T09:43:03Z</time>
      </trkpt>
      <trkpt lat="47.42063" lon="6.62788">
        <ele>349.144806</ele>
        <time>2012-05-13T09:43:08Z</time>
      </trkpt>
      <trkpt lat="47.42073" lon="6.628">
        <ele>348.643311</ele>
        <time>2012-05-13T09:43:14Z</time>
      </trkpt>
      <trkpt lat="47.42077" lon="6.62811">
        <ele>348.475006</ele>
        <time>2012-05-13T09:43:18Z</time>
      </trkpt>
      <trkpt lat="47.42079" lon="6.62815">
        <ele>348.423859</ele>
        <time>2012-05-13T09:43:19Z</time>
      </trkpt>
      <trkpt lat="47.42076" lon="6.62823">
        <ele>348.913086</ele>
        <time>2012-05-13T09:43:24Z</time>
      </trkpt>
      <trkpt lat="47.42062" lon="6.62819">
        <ele>350.377441</ele>
        <time>2012-05-13T09:43:31Z</time>
      </trkpt>
      <trkpt lat="47.42044" lon="6.62822">
        <ele>352.437805</ele>
        <time>2012-05-13T09:43:41Z</time>
      </trkpt>
      <trkpt lat="47.42042" lon="6.62823">
        <ele>352.672241</ele>
        <time>2012-05-13T09:43:42Z</time>
      </trkpt>
      <trkpt lat="47.42034" lon="6.62833">
        <ele>354.422241</ele>
        <time>2012-05-13T09:43:49Z</time>
      </trkpt>
      <trkpt lat="47.42031" lon="6.62837">
        <ele>355.070007</ele>
        <time>2012-05-13T09:43:51Z</time>
      </trkpt>
      <trkpt lat="47.42027" lon="6.62855">
        <ele>356.886353</ele>
        <time>2012-05-13T09:43:59Z</time>
      </trkpt>
      <trkpt lat="47.42026" lon="6.62866">
        <ele>357.831665</ele>
        <time>2012-05-13T09:44:06Z</time>
      </trkpt>
      <trkpt lat="47.42026" lon="6.62873">
        <ele>358.306641</ele>
        <time>2012-05-13T09:44:11Z</time>
      </trkpt>
      <trkpt lat="47.42024" lon="6.62888">
        <ele>359.627197</ele>
        <time>2012-05-13T09:44:19Z</time>
      </trkpt>
      <trkpt lat="47.42021" lon="6.62898">
        <ele>360.871643</ele>
        <time>2012-05-13T09:44:23Z</time>
      </trkpt>
      <trkpt lat="47.42018" lon="6.62923">
        <ele>363.182129</ele>
        <time>2012-05-13T09:44:33Z</time>
      </trkpt>
      <trkpt lat="47.42017" lon="6.62943">
        <ele>364.690796</ele>
        <time>2012-05-13T09:44:39Z</time>
      </trkpt>
      <trkpt lat="47.42016" lon="6.6296">
        <ele>366.116882</ele>
        <time>2012-05-13T09:44:45Z</time>
      </trkpt>
      <trkpt lat="47.42016" lon="6.62962">
        <ele>366.206787</ele>
        <time>2012-05-13T09:44:46Z</time>
      </trkpt>
      <trkpt lat="47.42014" lon="6.62976">
        <ele>367.566803</ele>
        <time>2012-05-13T09:44:51Z</time>
      </trkpt>
      <trkpt lat="47.42013" lon="6.62982">
        <ele>367.865784</ele>
        <time>2012-05-13T09:44:53Z</time>
      </trkpt>
      <trkpt lat="47.42015" lon="6.62998">
        <ele>368.300262</ele>
        <time>2012-05-13T09:45:00Z</time>
      </trkpt>
      <trkpt lat="47.42015" lon="6.63">
        <ele>368.417236</ele>
        <time>2012-05-13T09:45:01Z</time>
      </trkpt>
      <trkpt lat="47.42014" lon="6.63015">
        <ele>369.471191</ele>
        <time>2012-05-13T09:45:10Z</time>
      </trkpt>
      <trkpt lat="47.42014" lon="6.63019">
        <ele>369.650391</ele>
        <time>2012-05-13T09:45:12Z</time>
      </trkpt>
      <trkpt lat="47.42012" lon="6.63034">
        <ele>370.6297</ele>
        <time>2012-05-13T09:45:20Z</time>
      </trkpt>
      <trkpt lat="47.4201" lon="6.63046">
        <ele>371.667725</ele>
        <time>2012-05-13T09:45:27Z</time>
      </trkpt>
      <trkpt lat="47.42011" lon="6.63058">
        <ele>372.321716</ele>
        <time>2012-05-13T09:45:34Z</time>
      </trkpt>
      <trkpt lat="47.4201" lon="6.63069">
        <ele>373.059784</ele>
        <time>2012-05-13T09:45:40Z</time>
      </trkpt>
      <trkpt lat="47.4201" lon="6.63073">
        <ele>373.336945</ele>
        <time>2012-05-13T09:45:47Z</time>
      </trkpt>
      <trkpt lat="47.42009" lon="6.63076">
        <ele>373.626221</ele>
        <time>2012-05-13T09:45:55Z</time>
      </trkpt>
      <trkpt lat="47.42014" lon="6.63078">
        <ele>373.350006</ele>
        <time>2012-05-13T09:46:06Z</time>
      </trkpt>
      <trkpt lat="47.42011" lon="6.63086">
        <ele>374.090973</ele>
        <time>2012-05-13T09:46:14Z</time>
      </trkpt>
      <trkpt lat="47.42012" lon="6.631">
        <ele>375.011017</ele>
        <time>2012-05-13T09:46:21Z</time>
      </trkpt>
      <trkpt lat="47.42012" lon="6.63102">
        <ele>375.167206</ele>
        <time>2012-05-13T09:46:22Z</time>
      </trkpt>
      <trkpt lat="47.4201" lon="6.63111">
        <ele>376.096985</ele>
        <time>2012-05-13T09:46:27Z</time>
      </trkpt>
      <trkpt lat="47.42007" lon="6.63125">
        <ele>377.740906</ele>
        <time>2012-05-13T09:46:34Z</time>
      </trkpt>
      <trkpt lat="47.42005" lon="6.63137">
        <ele>379.054199</ele>
        <time>2012-05-13T09:46:40Z</time>
      </trkpt>
      <trkpt lat="47.42003" lon="6.63151">
        <ele>380.726379</ele>
        <time>2012-05-13T09:46:47Z</time>
      </trkpt>
      <trkpt lat="47.42001" lon="6.63163">
        <ele>382.052887</ele>
        <time>2012-05-13T09:46:53Z</time>
      </trkpt>
      <trkpt lat="47.42001" lon="6.63175">
        <ele>383.196045</ele>
        <time>2012-05-13T09:47:00Z</time>
      </trkpt>
      <trkpt lat="47.42001" lon="6.6319">
        <ele>384.580688</ele>
        <time>2012-05-13T09:47:07Z</time>
      </trkpt>
      <trkpt lat="47.41999" lon="6.63202">
        <ele>385.849365</ele>
        <time>2012-05-13T09:47:14Z</time>
      </trkpt>
      <trkpt lat="47.41998" lon="6.63208">
        <ele>386.452484</ele>
        <time>2012-05-13T09:47:20Z</time>
      </trkpt>
      <trkpt lat="47.41998" lon="6.63215">
        <ele>387.091217</ele>
        <time>2012-05-13T09:47:25Z</time>
      </trkpt>
      <trkpt lat="47.41999" lon="6.6323">
        <ele>388.329193</ele>
        <time>2012-05-13T09:47:35Z</time>
      </trkpt>
      <trkpt lat="47.41999" lon="6.63239">
        <ele>389.069794</ele>
        <time>2012-05-13T09:47:42Z</time>
      </trkpt>
      <trkpt lat="47.41998" lon="6.63245">
        <ele>389.464172</ele>
        <time>2012-05-13T09:47:48Z</time>
      </trkpt>
      <trkpt lat="47.41996" lon="6.63245">
        <ele>389.448639</ele>
        <time>2012-05-13T09:48:08Z</time>
      </trkpt>
      <trkpt lat="47.41996" lon="6.63248">
        <ele>389.716827</ele>
        <time>2012-05-13T09:48:15Z</time>
      </trkpt>
      <trkpt lat="47.41996" lon="6.63255">
        <ele>390.144989</ele>
        <time>2012-05-13T09:48:21Z</time>
      </trkpt>
      <trkpt lat="47.41997" lon="6.63267">
        <ele>390.847809</ele>
        <time>2012-05-13T09:48:27Z</time>
      </trkpt>
      <trkpt lat="47.42001" lon="6.63275">
        <ele>391.198212</ele>
        <time>2012-05-13T09:48:32Z</time>
      </trkpt>
      <trkpt lat="47.42007" lon="6.63282">
        <ele>391.577576</ele>
        <time>2012-05-13T09:48:38Z</time>
      </trkpt>
      <trkpt lat="47.4201" lon="6.63287">
        <ele>391.824158</ele>
        <time>2012-05-13T09:48:43Z</time>
      </trkpt>
      <trkpt lat="47.42014" lon="6.63295">
        <ele>392.352081</ele>
        <time>2012-05-13T09:48:51Z</time>
      </trkpt>
      <trkpt lat="47.42018" lon="6.63298">
        <ele>392.560974</ele>
        <time>2012-05-13T09:48:57Z</time>
      </trkpt>
      <trkpt lat="47.42023" lon="6.63303">
        <ele>392.867737</ele>
        <time>2012-05-13T09:49:04Z</time>
      </trkpt>
      <trkpt lat="47.42027" lon="6.63311">
        <ele>393.469788</ele>
        <time>2012-05-13T09:49:11Z</time>
      </trkpt>
      <trkpt lat="47.42032" lon="6.63319">
        <ele>394.18576</ele>
        <time>2012-05-13T09:49:18Z</time>
      </trkpt>
      <trkpt lat="47.42036" lon="6.63327">
        <ele>394.940399</ele>
        <time>2012-05-13T09:49:25Z</time>
      </trkpt>
      <trkpt lat="47.42041" lon="6.63337">
        <ele>395.177216</ele>
        <time>2012-05-13T09:49:32Z</time>
      </trkpt>
      <trkpt lat="47.42043" lon="6.6335">
        <ele>395.798401</ele>
        <time>2012-05-13T09:49:40Z</time>
      </trkpt>
      <trkpt lat="47.42043" lon="6.63358">
        <ele>396.374115</ele>
        <time>2012-05-13T09:49:46Z</time>
      </trkpt>
      <trkpt lat="47.42044" lon="6.63373">
        <ele>397.516815</ele>
        <time>2012-05-13T09:49:56Z</time>
      </trkpt>
      <trkpt lat="47.42045" lon="6.6338">
        <ele>397.764832</ele>
        <time>2012-05-13T09:50:02Z</time>
      </trkpt>
      <trkpt lat="47.42046" lon="6.6339">
        <ele>398.206451</ele>
        <time>2012-05-13T09:50:10Z</time>
      </trkpt>
      <trkpt lat="47.42042" lon="6.63394">
        <ele>399.185242</ele>
        <time>2012-05-13T09:50:22Z</time>
      </trkpt>
      <trkpt lat="47.42043" lon="6.63403">
        <ele>399.676086</ele>
        <time>2012-05-13T09:50:27Z</time>
      </trkpt>
      <trkpt lat="47.42049" lon="6.63422">
        <ele>400.050812</ele>
        <time>2012-05-13T09:50:35Z</time>
      </trkpt>
      <trkpt lat="47.42056" lon="6.63437">
        <ele>400.329987</ele>
        <time>2012-05-13T09:50:41Z</time>
      </trkpt>
      <trkpt lat="47.42064" lon="6.63452">
        <ele>400.326202</ele>
        <time>2012-05-13T09:50:48Z</time>
      </trkpt>
      <trkpt lat="47.4207" lon="6.63469">
        <ele>400.702057</ele>
        <time>2012-05-13T09:50:55Z</time>
      </trkpt>
      <trkpt lat="47.42077" lon="6.63483">
        <ele>401.143738</ele>
        <time>2012-05-13T09:51:00Z</time>
      </trkpt>
      <trkpt lat="47.42081" lon="6.635">
        <ele>401.058746</ele>
        <time>2012-05-13T09:51:06Z</time>
      </trkpt>
      <trkpt lat="47.42088" lon="6.63513">
        <ele>399.90564</ele>
        <time>2012-05-13T09:51:11Z</time>
      </trkpt>
      <trkpt lat="47.42093" lon="6.63529">
        <ele>399.103485</ele>
        <time>2012-05-13T09:51:17Z</time>
      </trkpt>
      <trkpt lat="47.42095" lon="6.63551">
        <ele>400.088562</ele>
        <time>2012-05-13T09:51:25Z</time>
      </trkpt>
      <trkpt lat="47.421" lon="6.63572">
        <ele>400.668427</ele>
        <time>2012-05-13T09:51:32Z</time>
      </trkpt>
      <trkpt lat="47.42102" lon="6.63577">
        <ele>400.733948</ele>
        <time>2012-05-13T09:51:34Z</time>
      </trkpt>
      <trkpt lat="47.42102" lon="6.63598">
        <ele>401.633484</ele>
        <time>2012-05-13T09:51:41Z</time>
      </trkpt>
      <trkpt lat="47.42102" lon="6.6361">
        <ele>402.290497</ele>
        <time>2012-05-13T09:51:45Z</time>
      </trkpt>
      <trkpt lat="47.42102" lon="6.63627">
        <ele>403.135742</ele>
        <time>2012-05-13T09:51:51Z</time>
      </trkpt>
      <trkpt lat="47.42102" lon="6.63641">
        <ele>403.86554</ele>
        <time>2012-05-13T09:51:56Z</time>
      </trkpt>
      <trkpt lat="47.42104" lon="6.63654">
        <ele>403.944397</ele>
        <time>2012-05-13T09:52:03Z</time>
      </trkpt>
      <trkpt lat="47.42112" lon="6.63668">
        <ele>403.860382</ele>
        <time>2012-05-13T09:52:10Z</time>
      </trkpt>
      <trkpt lat="47.42118" lon="6.6369">
        <ele>403.375641</ele>
        <time>2012-05-13T09:52:18Z</time>
      </trkpt>
      <trkpt lat="47.42125" lon="6.63705">
        <ele>401.868011</ele>
        <time>2012-05-13T09:52:24Z</time>
      </trkpt>
      <trkpt lat="47.42126" lon="6.63707">
        <ele>401.751678</ele>
        <time>2012-05-13T09:52:25Z</time>
      </trkpt>
      <trkpt lat="47.42136" lon="6.63714">
        <ele>399.031891</ele>
        <time>2012-05-13T09:52:31Z</time>
      </trkpt>
      <trkpt lat="47.42138" lon="6.63715">
        <ele>398.546051</ele>
        <time>2012-05-13T09:52:32Z</time>
      </trkpt>
      <trkpt lat="47.42148" lon="6.63733">
        <ele>396.950989</ele>
        <time>2012-05-13T09:52:40Z</time>
      </trkpt>
      <trkpt lat="47.42154" lon="6.63748">
        <ele>396.850861</ele>
        <time>2012-05-13T09:52:45Z</time>
      </trkpt>
      <trkpt lat="47.42162" lon="6.63767">
        <ele>395.726196</ele>
        <time>2012-05-13T09:52:52Z</time>
      </trkpt>
      <trkpt lat="47.42169" lon="6.63779">
        <ele>393.586761</ele>
        <time>2012-05-13T09:52:57Z</time>
      </trkpt>
      <trkpt lat="47.42178" lon="6.63794">
        <ele>390.580841</ele>
        <time>2012-05-13T09:53:03Z</time>
      </trkpt>
      <trkpt lat="47.42185" lon="6.63808">
        <ele>389.134796</ele>
        <time>2012-05-13T09:53:09Z</time>
      </trkpt>
      <trkpt lat="47.42187" lon="6.63827">
        <ele>390.176086</ele>
        <time>2012-05-13T09:53:16Z</time>
      </trkpt>
      <trkpt lat="47.42195" lon="6.63857">
        <ele>391.500244</ele>
        <time>2012-05-13T09:53:25Z</time>
      </trkpt>
      <trkpt lat="47.42195" lon="6.63861">
        <ele>392.105804</ele>
        <time>2012-05-13T09:53:30Z</time>
      </trkpt>
      <trkpt lat="47.42196" lon="6.63861">
        <ele>391.91626</ele>
        <time>2012-05-13T09:53:39Z</time>
      </trkpt>
      <trkpt lat="47.42199" lon="6.63858">
        <ele>390.357513</ele>
        <time>2012-05-13T09:53:48Z</time>
      </trkpt>
      <trkpt lat="47.42203" lon="6.63852">
        <ele>388.277985</ele>
        <time>2012-05-13T09:54:05Z</time>
      </trkpt>
      <trkpt lat="47.42198" lon="6.6386">
        <ele>390.998749</ele>
        <time>2012-05-13T09:54:20Z</time>
      </trkpt>
      <trkpt lat="47.42197" lon="6.63858">
        <ele>391.061157</ele>
        <time>2012-05-13T09:54:44Z</time>
      </trkpt>
      <trkpt lat="47.42203" lon="6.63865">
        <ele>390.725281</ele>
        <time>2012-05-13T09:54:53Z</time>
      </trkpt>
      <trkpt lat="47.42203" lon="6.63875">
        <ele>392.693695</ele>
        <time>2012-05-13T09:54:59Z</time>
      </trkpt>
      <trkpt lat="47.422" lon="6.63891">
        <ele>396.363739</ele>
        <time>2012-05-13T09:55:06Z</time>
      </trkpt>
      <trkpt lat="47.42198" lon="6.63904">
        <ele>399.3797</ele>
        <time>2012-05-13T09:55:12Z</time>
      </trkpt>
      <trkpt lat="47.42201" lon="6.63918">
        <ele>401.041748</ele>
        <time>2012-05-13T09:55:18Z</time>
      </trkpt>
      <trkpt lat="47.42208" lon="6.63931">
        <ele>399.892792</ele>
        <time>2012-05-13T09:55:23Z</time>
      </trkpt>
      <trkpt lat="47.42225" lon="6.63952">
        <ele>399.770508</ele>
        <time>2012-05-13T09:55:33Z</time>
      </trkpt>
      <trkpt lat="47.42235" lon="6.6397">
        <ele>402.120087</ele>
        <time>2012-05-13T09:55:40Z</time>
      </trkpt>
      <trkpt lat="47.42248" lon="6.63992">
        <ele>403.456665</ele>
        <time>2012-05-13T09:55:48Z</time>
      </trkpt>
      <trkpt lat="47.42259" lon="6.6401">
        <ele>401.992798</ele>
        <time>2012-05-13T09:55:56Z</time>
      </trkpt>
      <trkpt lat="47.4227" lon="6.64026">
        <ele>402.217316</ele>
        <time>2012-05-13T09:56:04Z</time>
      </trkpt>
      <trkpt lat="47.42282" lon="6.64043">
        <ele>404.11853</ele>
        <time>2012-05-13T09:56:12Z</time>
      </trkpt>
      <trkpt lat="47.42295" lon="6.64061">
        <ele>404.686249</ele>
        <time>2012-05-13T09:56:20Z</time>
      </trkpt>
      <trkpt lat="47.42306" lon="6.64078">
        <ele>403.717194</ele>
        <time>2012-05-13T09:56:27Z</time>
      </trkpt>
      <trkpt lat="47.42317" lon="6.64088">
        <ele>404.493866</ele>
        <time>2012-05-13T09:56:33Z</time>
      </trkpt>
      <trkpt lat="47.42328" lon="6.64099">
        <ele>405.904327</ele>
        <time>2012-05-13T09:56:40Z</time>
      </trkpt>
      <trkpt lat="47.42336" lon="6.64108">
        <ele>406.348663</ele>
        <time>2012-05-13T09:56:46Z</time>
      </trkpt>
      <trkpt lat="47.42351" lon="6.64124">
        <ele>408.398743</ele>
        <time>2012-05-13T09:56:54Z</time>
      </trkpt>
      <trkpt lat="47.4236" lon="6.64133">
        <ele>409.304901</ele>
        <time>2012-05-13T09:56:59Z</time>
      </trkpt>
      <trkpt lat="47.42369" lon="6.64144">
        <ele>409.762604</ele>
        <time>2012-05-13T09:57:04Z</time>
      </trkpt>
      <trkpt lat="47.42378" lon="6.64155">
        <ele>409.076202</ele>
        <time>2012-05-13T09:57:09Z</time>
      </trkpt>
      <trkpt lat="47.42392" lon="6.64167">
        <ele>409.446014</ele>
        <time>2012-05-13T09:57:16Z</time>
      </trkpt>
      <trkpt lat="47.42407" lon="6.64179">
        <ele>411.244324</ele>
        <time>2012-05-13T09:57:22Z</time>
      </trkpt>
      <trkpt lat="47.42421" lon="6.6419">
        <ele>411.639984</ele>
        <time>2012-05-13T09:57:26Z</time>
      </trkpt>
      <trkpt lat="47.42456" lon="6.6421">
        <ele>408.361694</ele>
        <time>2012-05-13T09:57:33Z</time>
      </trkpt>
      <trkpt lat="47.42472" lon="6.6422">
        <ele>406.81366</ele>
        <time>2012-05-13T09:57:36Z</time>
      </trkpt>
      <trkpt lat="47.42499" lon="6.64245">
        <ele>405.087219</ele>
        <time>2012-05-13T09:57:41Z</time>
      </trkpt>
      <trkpt lat="47.42514" lon="6.64265">
        <ele>404.523987</ele>
        <time>2012-05-13T09:57:46Z</time>
      </trkpt>
      <trkpt lat="47.42527" lon="6.64281">
        <ele>404.075867</ele>
        <time>2012-05-13T09:57:50Z</time>
      </trkpt>
      <trkpt lat="47.42544" lon="6.64302">
        <ele>403.494171</ele>
        <time>2012-05-13T09:57:56Z</time>
      </trkpt>
      <trkpt lat="47.42558" lon="6.64325">
        <ele>403.737366</ele>
        <time>2012-05-13T09:58:02Z</time>
      </trkpt>
      <trkpt lat="47.42567" lon="6.64346">
        <ele>404.319916</ele>
        <time>2012-05-13T09:58:08Z</time>
      </trkpt>
      <trkpt lat="47.42581" lon="6.64368">
        <ele>404.231354</ele>
        <time>2012-05-13T09:58:14Z</time>
      </trkpt>
      <trkpt lat="47.42592" lon="6.64382">
        <ele>403.92749</ele>
        <time>2012-05-13T09:58:18Z</time>
      </trkpt>
      <trkpt lat="47.42606" lon="6.64401">
        <ele>403.457489</ele>
        <time>2012-05-13T09:58:23Z</time>
      </trkpt>
      <trkpt lat="47.42622" lon="6.64419">
        <ele>402.6203</ele>
        <time>2012-05-13T09:58:29Z</time>
      </trkpt>
      <trkpt lat="47.42637" lon="6.64434">
        <ele>401.773285</ele>
        <time>2012-05-13T09:58:35Z</time>
      </trkpt>
      <trkpt lat="47.42648" lon="6.64446">
        <ele>401.23999</ele>
        <time>2012-05-13T09:58:41Z</time>
      </trkpt>
      <trkpt lat="47.42657" lon="6.6446">
        <ele>400.995178</ele>
        <time>2012-05-13T09:58:46Z</time>
      </trkpt>
      <trkpt lat="47.42669" lon="6.64478">
        <ele>400.770721</ele>
        <time>2012-05-13T09:58:51Z</time>
      </trkpt>
      <trkpt lat="47.42682" lon="6.64498">
        <ele>398.880005</ele>
        <time>2012-05-13T09:58:56Z</time>
      </trkpt>
      <trkpt lat="47.42693" lon="6.64508">
        <ele>396.880005</ele>
        <time>2012-05-13T09:59:00Z</time>
      </trkpt>
      <trkpt lat="47.42703" lon="6.64509">
        <ele>395.079987</ele>
        <time>2012-05-13T09:59:05Z</time>
      </trkpt>
      <trkpt lat="47.42705" lon="6.6451">
        <ele>394.799988</ele>
        <time>2012-05-13T09:59:06Z</time>
      </trkpt>
      <trkpt lat="47.42715" lon="6.64512">
        <ele>392.958221</ele>
        <time>2012-05-13T09:59:12Z</time>
      </trkpt>
      <trkpt lat="47.42726" lon="6.64531">
        <ele>390.6716</ele>
        <time>2012-05-13T09:59:18Z</time>
      </trkpt>
      <trkpt lat="47.42729" lon="6.64544">
        <ele>389.871124</ele>
        <time>2012-05-13T09:59:22Z</time>
      </trkpt>
      <trkpt lat="47.42725" lon="6.64553">
        <ele>390.626251</ele>
        <time>2012-05-13T09:59:27Z</time>
      </trkpt>
      <trkpt lat="47.42719" lon="6.6457">
        <ele>391.016266</ele>
        <time>2012-05-13T09:59:34Z</time>
      </trkpt>
      <trkpt lat="47.42711" lon="6.64587">
        <ele>391.685608</ele>
        <time>2012-05-13T09:59:40Z</time>
      </trkpt>
      <trkpt lat="47.42708" lon="6.64599">
        <ele>391.407257</ele>
        <time>2012-05-13T09:59:45Z</time>
      </trkpt>
      <trkpt lat="47.4271" lon="6.64607">
        <ele>390.786682</ele>
        <time>2012-05-13T09:59:48Z</time>
      </trkpt>
      <trkpt lat="47.42713" lon="6.64628">
        <ele>388.957672</ele>
        <time>2012-05-13T09:59:55Z</time>
      </trkpt>
      <trkpt lat="47.42714" lon="6.64635">
        <ele>388.09201</ele>
        <time>2012-05-13T09:59:58Z</time>
      </trkpt>
      <trkpt lat="47.4271" lon="6.64647">
        <ele>387.628326</ele>
        <time>2012-05-13T10:00:05Z</time>
      </trkpt>
      <trkpt lat="47.42699" lon="6.64657">
        <ele>387.681152</ele>
        <time>2012-05-13T10:00:12Z</time>
      </trkpt>
      <trkpt lat="47.42698" lon="6.64659">
        <ele>387.672821</ele>
        <time>2012-05-13T10:00:13Z</time>
      </trkpt>
      <trkpt lat="47.42686" lon="6.64671">
        <ele>387.571442</ele>
        <time>2012-05-13T10:00:20Z</time>
      </trkpt>
      <trkpt lat="47.42684" lon="6.64673">
        <ele>387.495758</ele>
        <time>2012-05-13T10:00:21Z</time>
      </trkpt>
      <trkpt lat="47.42671" lon="6.64688">
        <ele>386.982178</ele>
        <time>2012-05-13T10:00:29Z</time>
      </trkpt>
      <trkpt lat="47.42664" lon="6.64699">
        <ele>386.705383</ele>
        <time>2012-05-13T10:00:35Z</time>
      </trkpt>
      <trkpt lat="47.4266" lon="6.64714">
        <ele>385.350403</ele>
        <time>2012-05-13T10:00:40Z</time>
      </trkpt>
      <trkpt lat="47.42664" lon="6.64746">
        <ele>383.247284</ele>
        <time>2012-05-13T10:00:45Z</time>
      </trkpt>
      <trkpt lat="47.42666" lon="6.64776">
        <ele>379.531189</ele>
        <time>2012-05-13T10:00:50Z</time>
      </trkpt>
      <trkpt lat="47.42675" lon="6.648">
        <ele>377.839996</ele>
        <time>2012-05-13T10:00:55Z</time>
      </trkpt>
      <trkpt lat="47.42693" lon="6.64826">
        <ele>379.048004</ele>
        <time>2012-05-13T10:01:01Z</time>
      </trkpt>
      <trkpt lat="47.42704" lon="6.6485">
        <ele>379.192383</ele>
        <time>2012-05-13T10:01:06Z</time>
      </trkpt>
      <trkpt lat="47.42719" lon="6.64867">
        <ele>378.261993</ele>
        <time>2012-05-13T10:01:11Z</time>
      </trkpt>
      <trkpt lat="47.42734" lon="6.64881">
        <ele>378.381836</ele>
        <time>2012-05-13T10:01:16Z</time>
      </trkpt>
      <trkpt lat="47.42748" lon="6.64902">
        <ele>378.592468</ele>
        <time>2012-05-13T10:01:21Z</time>
      </trkpt>
      <trkpt lat="47.42761" lon="6.64925">
        <ele>378.370392</ele>
        <time>2012-05-13T10:01:26Z</time>
      </trkpt>
      <trkpt lat="47.4278" lon="6.64944">
        <ele>379.134491</ele>
        <time>2012-05-13T10:01:32Z</time>
      </trkpt>
      <trkpt lat="47.42793" lon="6.6496">
        <ele>380.18988</ele>
        <time>2012-05-13T10:01:37Z</time>
      </trkpt>
      <trkpt lat="47.42804" lon="6.64968">
        <ele>380.660156</ele>
        <time>2012-05-13T10:01:43Z</time>
      </trkpt>
      <trkpt lat="47.42812" lon="6.6497">
        <ele>381.006073</ele>
        <time>2012-05-13T10:01:48Z</time>
      </trkpt>
      <trkpt lat="47.42829" lon="6.64965">
        <ele>381.825958</ele>
        <time>2012-05-13T10:01:53Z</time>
      </trkpt>
      <trkpt lat="47.42845" lon="6.64955">
        <ele>382.180573</ele>
        <time>2012-05-13T10:01:57Z</time>
      </trkpt>
      <trkpt lat="47.42856" lon="6.64958">
        <ele>382.469543</ele>
        <time>2012-05-13T10:02:00Z</time>
      </trkpt>
      <trkpt lat="47.42869" lon="6.64963">
        <ele>382.793762</ele>
        <time>2012-05-13T10:02:04Z</time>
      </trkpt>
      <trkpt lat="47.42884" lon="6.64967">
        <ele>383.144806</ele>
        <time>2012-05-13T10:02:09Z</time>
      </trkpt>
      <trkpt lat="47.42899" lon="6.64972">
        <ele>383.442932</ele>
        <time>2012-05-13T10:02:14Z</time>
      </trkpt>
      <trkpt lat="47.42909" lon="6.64978">
        <ele>383.613251</ele>
        <time>2012-05-13T10:02:19Z</time>
      </trkpt>
      <trkpt lat="47.42925" lon="6.64993">
        <ele>383.711456</ele>
        <time>2012-05-13T10:02:24Z</time>
      </trkpt>
      <trkpt lat="47.42948" lon="6.65017">
        <ele>383.514771</ele>
        <time>2012-05-13T10:02:29Z</time>
      </trkpt>
      <trkpt lat="47.4297" lon="6.65045">
        <ele>382.187958</ele>
        <time>2012-05-13T10:02:35Z</time>
      </trkpt>
      <trkpt lat="47.42989" lon="6.65058">
        <ele>379.601135</ele>
        <time>2012-05-13T10:02:40Z</time>
      </trkpt>
      <trkpt lat="47.43003" lon="6.65072">
        <ele>377.06189</ele>
        <time>2012-05-13T10:02:45Z</time>
      </trkpt>
      <trkpt lat="47.4302" lon="6.6509">
        <ele>373.570007</ele>
        <time>2012-05-13T10:02:49Z</time>
      </trkpt>
      <trkpt lat="47.43046" lon="6.65113">
        <ele>368.522125</ele>
        <time>2012-05-13T10:02:54Z</time>
      </trkpt>
      <trkpt lat="47.43064" lon="6.65108">
        <ele>368.766052</ele>
        <time>2012-05-13T10:02:58Z</time>
      </trkpt>
      <trkpt lat="47.43075" lon="6.65093">
        <ele>370.781281</ele>
        <time>2012-05-13T10:03:01Z</time>
      </trkpt>
      <trkpt lat="47.43097" lon="6.65086">
        <ele>371.661407</ele>
        <time>2012-05-13T10:03:05Z</time>
      </trkpt>
      <trkpt lat="47.43119" lon="6.65103">
        <ele>372.220001</ele>
        <time>2012-05-13T10:03:09Z</time>
      </trkpt>
      <trkpt lat="47.43129" lon="6.65117">
        <ele>371.839996</ele>
        <time>2012-05-13T10:03:11Z</time>
      </trkpt>
      <trkpt lat="47.43155" lon="6.6517">
        <ele>370.517487</ele>
        <time>2012-05-13T10:03:17Z</time>
      </trkpt>
      <trkpt lat="47.4316" lon="6.65179">
        <ele>370.442505</ele>
        <time>2012-05-13T10:03:18Z</time>
      </trkpt>
      <trkpt lat="47.43178" lon="6.65218">
        <ele>369.347412</ele>
        <time>2012-05-13T10:03:22Z</time>
      </trkpt>
      <trkpt lat="47.43197" lon="6.65265">
        <ele>366.570953</ele>
        <time>2012-05-13T10:03:27Z</time>
      </trkpt>
      <trkpt lat="47.43221" lon="6.6532">
        <ele>362.413391</ele>
        <time>2012-05-13T10:03:33Z</time>
      </trkpt>
      <trkpt lat="47.43244" lon="6.65368">
        <ele>356.845123</ele>
        <time>2012-05-13T10:03:38Z</time>
      </trkpt>
      <trkpt lat="47.43253" lon="6.65389">
        <ele>353.216003</ele>
        <time>2012-05-13T10:03:40Z</time>
      </trkpt>
      <trkpt lat="47.43277" lon="6.65443">
        <ele>346.110992</ele>
        <time>2012-05-13T10:03:45Z</time>
      </trkpt>
      <trkpt lat="47.43286" lon="6.6546">
        <ele>344.357269</ele>
        <time>2012-05-13T10:03:47Z</time>
      </trkpt>
      <trkpt lat="47.43298" lon="6.65489">
        <ele>343.140015</ele>
        <time>2012-05-13T10:03:52Z</time>
      </trkpt>
      <trkpt lat="47.43299" lon="6.65492">
        <ele>343.027496</ele>
        <time>2012-05-13T10:03:53Z</time>
      </trkpt>
      <trkpt lat="47.43302" lon="6.65501">
        <ele>342.736237</ele>
        <time>2012-05-13T10:03:59Z</time>
      </trkpt>
      <trkpt lat="47.43302" lon="6.65504">
        <ele>342.672485</ele>
        <time>2012-05-13T10:04:03Z</time>
      </trkpt>
      <trkpt lat="47.43306" lon="6.65525">
        <ele>342.181244</ele>
        <time>2012-05-13T10:04:08Z</time>
      </trkpt>
      <trkpt lat="47.43313" lon="6.65555">
        <ele>341.733185</ele>
        <time>2012-05-13T10:04:13Z</time>
      </trkpt>
      <trkpt lat="47.43321" lon="6.65583">
        <ele>341.127625</ele>
        <time>2012-05-13T10:04:18Z</time>
      </trkpt>
      <trkpt lat="47.43326" lon="6.65611">
        <ele>340.36441</ele>
        <time>2012-05-13T10:04:23Z</time>
      </trkpt>
      <trkpt lat="47.43323" lon="6.65628">
        <ele>340.379578</ele>
        <time>2012-05-13T10:04:28Z</time>
      </trkpt>
      <trkpt lat="47.43319" lon="6.65635">
        <ele>340.761688</ele>
        <time>2012-05-13T10:04:31Z</time>
      </trkpt>
      <trkpt lat="47.43316" lon="6.65651">
        <ele>340.913391</ele>
        <time>2012-05-13T10:04:37Z</time>
      </trkpt>
      <trkpt lat="47.43312" lon="6.65668">
        <ele>341.536041</ele>
        <time>2012-05-13T10:04:44Z</time>
      </trkpt>
      <trkpt lat="47.43306" lon="6.65683">
        <ele>342.875061</ele>
        <time>2012-05-13T10:04:50Z</time>
      </trkpt>
      <trkpt lat="47.43302" lon="6.65697">
        <ele>343.740601</ele>
        <time>2012-05-13T10:04:56Z</time>
      </trkpt>
      <trkpt lat="47.43301" lon="6.65708">
        <ele>344.153595</ele>
        <time>2012-05-13T10:05:01Z</time>
      </trkpt>
      <trkpt lat="47.43296" lon="6.65726">
        <ele>345.307556</ele>
        <time>2012-05-13T10:05:07Z</time>
      </trkpt>
      <trkpt lat="47.43296" lon="6.65743">
        <ele>344.745605</ele>
        <time>2012-05-13T10:05:13Z</time>
      </trkpt>
      <trkpt lat="47.43295" lon="6.65762">
        <ele>343.660797</ele>
        <time>2012-05-13T10:05:19Z</time>
      </trkpt>
      <trkpt lat="47.43294" lon="6.6578">
        <ele>342.660675</ele>
        <time>2012-05-13T10:05:26Z</time>
      </trkpt>
      <trkpt lat="47.4329" lon="6.65795">
        <ele>342.433197</ele>
        <time>2012-05-13T10:05:31Z</time>
      </trkpt>
      <trkpt lat="47.43285" lon="6.65814">
        <ele>339.821808</ele>
        <time>2012-05-13T10:05:37Z</time>
      </trkpt>
      <trkpt lat="47.4328" lon="6.65834">
        <ele>337.217255</ele>
        <time>2012-05-13T10:05:43Z</time>
      </trkpt>
      <trkpt lat="47.43277" lon="6.65853">
        <ele>334.698761</ele>
        <time>2012-05-13T10:05:49Z</time>
      </trkpt>
      <trkpt lat="47.43272" lon="6.65873">
        <ele>332.738007</ele>
        <time>2012-05-13T10:05:54Z</time>
      </trkpt>
      <trkpt lat="47.43268" lon="6.6588">
        <ele>332.357635</ele>
        <time>2012-05-13T10:05:57Z</time>
      </trkpt>
      <trkpt lat="47.4326" lon="6.65898">
        <ele>331.210815</ele>
        <time>2012-05-13T10:06:05Z</time>
      </trkpt>
      <trkpt lat="47.43255" lon="6.65914">
        <ele>329.420898</ele>
        <time>2012-05-13T10:06:11Z</time>
      </trkpt>
      <trkpt lat="47.43252" lon="6.65936">
        <ele>326.276001</ele>
        <time>2012-05-13T10:06:17Z</time>
      </trkpt>
      <trkpt lat="47.4325" lon="6.65959">
        <ele>322.993042</ele>
        <time>2012-05-13T10:06:22Z</time>
      </trkpt>
      <trkpt lat="47.43243" lon="6.65979">
        <ele>321.081604</ele>
        <time>2012-05-13T10:06:28Z</time>
      </trkpt>
      <trkpt lat="47.43236" lon="6.66005">
        <ele>320.12146</ele>
        <time>2012-05-13T10:06:35Z</time>
      </trkpt>
      <trkpt lat="47.43228" lon="6.66024">
        <ele>320.536041</ele>
        <time>2012-05-13T10:06:40Z</time>
      </trkpt>
      <trkpt lat="47.43219" lon="6.66042">
        <ele>320.312561</ele>
        <time>2012-05-13T10:06:44Z</time>
      </trkpt>
      <trkpt lat="47.43208" lon="6.66066">
        <ele>319.640625</ele>
        <time>2012-05-13T10:06:50Z</time>
      </trkpt>
      <trkpt lat="47.43198" lon="6.66086">
        <ele>319.391998</ele>
        <time>2012-05-13T10:06:56Z</time>
      </trkpt>
      <trkpt lat="47.43191" lon="6.66101">
        <ele>319.557861</ele>
        <time>2012-05-13T10:07:01Z</time>
      </trkpt>
      <trkpt lat="47.43186" lon="6.66116">
        <ele>319.261536</ele>
        <time>2012-05-13T10:07:05Z</time>
      </trkpt>
      <trkpt lat="47.43179" lon="6.66134">
        <ele>320.011627</ele>
        <time>2012-05-13T10:07:09Z</time>
      </trkpt>
      <trkpt lat="47.43171" lon="6.66152">
        <ele>320.806976</ele>
        <time>2012-05-13T10:07:13Z</time>
      </trkpt>
      <trkpt lat="47.43158" lon="6.66167">
        <ele>321.466919</ele>
        <time>2012-05-13T10:07:18Z</time>
      </trkpt>
      <trkpt lat="47.43147" lon="6.66178">
        <ele>321.362579</ele>
        <time>2012-05-13T10:07:22Z</time>
      </trkpt>
      <trkpt lat="47.43132" lon="6.66171">
        <ele>323</ele>
        <time>2012-05-13T10:07:27Z</time>
      </trkpt>
      <trkpt lat="47.43119" lon="6.6617">
        <ele>323.967499</ele>
        <time>2012-05-13T10:07:31Z</time>
      </trkpt>
      <trkpt lat="47.43102" lon="6.66166">
        <ele>325.385742</ele>
        <time>2012-05-13T10:07:36Z</time>
      </trkpt>
      <trkpt lat="47.43096" lon="6.66166">
        <ele>325.470886</ele>
        <time>2012-05-13T10:07:38Z</time>
      </trkpt>
      <trkpt lat="47.43077" lon="6.66167">
        <ele>325.68042</ele>
        <time>2012-05-13T10:07:44Z</time>
      </trkpt>
      <trkpt lat="47.43048" lon="6.66173">
        <ele>326.018524</ele>
        <time>2012-05-13T10:07:52Z</time>
      </trkpt>
      <trkpt lat="47.43024" lon="6.6618">
        <ele>325.836884</ele>
        <time>2012-05-13T10:07:59Z</time>
      </trkpt>
      <trkpt lat="47.42998" lon="6.66193">
        <ele>325.987488</ele>
        <time>2012-05-13T10:08:08Z</time>
      </trkpt>
      <trkpt lat="47.42989" lon="6.66193">
        <ele>326.173737</ele>
        <time>2012-05-13T10:08:12Z</time>
      </trkpt>
      <trkpt lat="47.42978" lon="6.66173">
        <ele>326.725006</ele>
        <time>2012-05-13T10:08:20Z</time>
      </trkpt>
      <trkpt lat="47.42971" lon="6.66151">
        <ele>326.69812</ele>
        <time>2012-05-13T10:08:26Z</time>
      </trkpt>
      <trkpt lat="47.42967" lon="6.66132">
        <ele>326.535828</ele>
        <time>2012-05-13T10:08:31Z</time>
      </trkpt>
      <trkpt lat="47.42964" lon="6.66109">
        <ele>326.381042</ele>
        <time>2012-05-13T10:08:37Z</time>
      </trkpt>
      <trkpt lat="47.42961" lon="6.6609">
        <ele>326.295563</ele>
        <time>2012-05-13T10:08:42Z</time>
      </trkpt>
      <trkpt lat="47.42958" lon="6.66064">
        <ele>326.236176</ele>
        <time>2012-05-13T10:08:47Z</time>
      </trkpt>
      <trkpt lat="47.42953" lon="6.66023">
        <ele>326.381104</ele>
        <time>2012-05-13T10:08:54Z</time>
      </trkpt>
      <trkpt lat="47.42949" lon="6.65999">
        <ele>326.626099</ele>
        <time>2012-05-13T10:08:59Z</time>
      </trkpt>
      <trkpt lat="47.42944" lon="6.65964">
        <ele>326.777161</ele>
        <time>2012-05-13T10:09:05Z</time>
      </trkpt>
      <trkpt lat="47.4293" lon="6.65913">
        <ele>327.967743</ele>
        <time>2012-05-13T10:09:14Z</time>
      </trkpt>
      <trkpt lat="47.42924" lon="6.65886">
        <ele>328.734467</ele>
        <time>2012-05-13T10:09:19Z</time>
      </trkpt>
      <trkpt lat="47.42915" lon="6.65858">
        <ele>329.392883</ele>
        <time>2012-05-13T10:09:24Z</time>
      </trkpt>
      <trkpt lat="47.42897" lon="6.65841">
        <ele>329.968903</ele>
        <time>2012-05-13T10:09:29Z</time>
      </trkpt>
      <trkpt lat="47.42885" lon="6.65841">
        <ele>330.578552</ele>
        <time>2012-05-13T10:09:32Z</time>
      </trkpt>
      <trkpt lat="47.4288" lon="6.65843">
        <ele>330.958801</ele>
        <time>2012-05-13T10:09:35Z</time>
      </trkpt>
      <trkpt lat="47.4288" lon="6.65843">
        <ele>330.958801</ele>
        <time>2012-05-13T10:09:36Z</time>
      </trkpt>
      <trkpt lat="47.42841" lon="6.65828">
        <ele>333.478363</ele>
        <time>2012-05-13T10:09:41Z</time>
      </trkpt>
      <trkpt lat="47.42838" lon="6.65856">
        <ele>335.156799</ele>
        <time>2012-05-13T10:09:45Z</time>
      </trkpt>
      <trkpt lat="47.42842" lon="6.65886">
        <ele>335.957794</ele>
        <time>2012-05-13T10:09:50Z</time>
      </trkpt>
      <trkpt lat="47.42846" lon="6.65915">
        <ele>336.233612</ele>
        <time>2012-05-13T10:09:56Z</time>
      </trkpt>
      <trkpt lat="47.42852" lon="6.65952">
        <ele>336.355408</ele>
        <time>2012-05-13T10:10:04Z</time>
      </trkpt>
      <trkpt lat="47.42856" lon="6.65985">
        <ele>336.260376</ele>
        <time>2012-05-13T10:10:12Z</time>
      </trkpt>
      <trkpt lat="47.42859" lon="6.66007">
        <ele>336.190887</ele>
        <time>2012-05-13T10:10:17Z</time>
      </trkpt>
      <trkpt lat="47.42857" lon="6.66045">
        <ele>336.480011</ele>
        <time>2012-05-13T10:10:26Z</time>
      </trkpt>
      <trkpt lat="47.42854" lon="6.66084">
        <ele>336.76001</ele>
        <time>2012-05-13T10:10:36Z</time>
      </trkpt>
      <trkpt lat="47.42853" lon="6.66113">
        <ele>335.852936</ele>
        <time>2012-05-13T10:10:43Z</time>
      </trkpt>
      <trkpt lat="47.42852" lon="6.6615">
        <ele>333.969299</ele>
        <time>2012-05-13T10:10:50Z</time>
      </trkpt>
      <trkpt lat="47.42852" lon="6.66156">
        <ele>333.705566</ele>
        <time>2012-05-13T10:10:51Z</time>
      </trkpt>
      <trkpt lat="47.42843" lon="6.66192">
        <ele>332.848511</ele>
        <time>2012-05-13T10:10:57Z</time>
      </trkpt>
      <trkpt lat="47.42835" lon="6.66225">
        <ele>331.703674</ele>
        <time>2012-05-13T10:11:02Z</time>
      </trkpt>
      <trkpt lat="47.42832" lon="6.66243">
        <ele>331.582062</ele>
        <time>2012-05-13T10:11:06Z</time>
      </trkpt>
      <trkpt lat="47.4282" lon="6.66264">
        <ele>331.980103</ele>
        <time>2012-05-13T10:11:12Z</time>
      </trkpt>
      <trkpt lat="47.42808" lon="6.66287">
        <ele>331.070801</ele>
        <time>2012-05-13T10:11:17Z</time>
      </trkpt>
      <trkpt lat="47.42791" lon="6.66309">
        <ele>330.393646</ele>
        <time>2012-05-13T10:11:22Z</time>
      </trkpt>
      <trkpt lat="47.42763" lon="6.66344">
        <ele>329.965485</ele>
        <time>2012-05-13T10:11:29Z</time>
      </trkpt>
      <trkpt lat="47.42743" lon="6.66366">
        <ele>329.448608</ele>
        <time>2012-05-13T10:11:35Z</time>
      </trkpt>
      <trkpt lat="47.42734" lon="6.66379">
        <ele>329.220642</ele>
        <time>2012-05-13T10:11:39Z</time>
      </trkpt>
      <trkpt lat="47.42722" lon="6.66387">
        <ele>329.884247</ele>
        <time>2012-05-13T10:11:45Z</time>
      </trkpt>
      <trkpt lat="47.42717" lon="6.6639">
        <ele>330.109985</ele>
        <time>2012-05-13T10:11:49Z</time>
      </trkpt>
      <trkpt lat="47.42714" lon="6.66391">
        <ele>330.231995</ele>
        <time>2012-05-13T10:11:54Z</time>
      </trkpt>
      <trkpt lat="47.42711" lon="6.66397">
        <ele>329.915894</ele>
        <time>2012-05-13T10:11:58Z</time>
      </trkpt>
      <trkpt lat="47.42704" lon="6.66406">
        <ele>329.347137</ele>
        <time>2012-05-13T10:12:04Z</time>
      </trkpt>
      <trkpt lat="47.427" lon="6.66411">
        <ele>328.918915</ele>
        <time>2012-05-13T10:12:11Z</time>
      </trkpt>
      <trkpt lat="47.42696" lon="6.66419">
        <ele>328.755127</ele>
        <time>2012-05-13T10:12:18Z</time>
      </trkpt>
      <trkpt lat="47.42696" lon="6.66424">
        <ele>328.704742</ele>
        <time>2012-05-13T10:12:23Z</time>
      </trkpt>
      <trkpt lat="47.42695" lon="6.66426">
        <ele>328.68869</ele>
        <time>2012-05-13T10:12:25Z</time>
      </trkpt>
      <trkpt lat="47.42687" lon="6.66435">
        <ele>328.685425</ele>
        <time>2012-05-13T10:12:30Z</time>
      </trkpt>
      <trkpt lat="47.42676" lon="6.66451">
        <ele>329.345703</ele>
        <time>2012-05-13T10:12:39Z</time>
      </trkpt>
      <trkpt lat="47.42672" lon="6.66456">
        <ele>329.33432</ele>
        <time>2012-05-13T10:12:45Z</time>
      </trkpt>
      <trkpt lat="47.42667" lon="6.66464">
        <ele>329.136749</ele>
        <time>2012-05-13T10:12:50Z</time>
      </trkpt>
      <trkpt lat="47.42658" lon="6.66474">
        <ele>328.684082</ele>
        <time>2012-05-13T10:12:59Z</time>
      </trkpt>
      <trkpt lat="47.42653" lon="6.66479">
        <ele>328.692932</ele>
        <time>2012-05-13T10:13:06Z</time>
      </trkpt>
      <trkpt lat="47.42648" lon="6.66487">
        <ele>328.714752</ele>
        <time>2012-05-13T10:13:14Z</time>
      </trkpt>
      <trkpt lat="47.42646" lon="6.66489">
        <ele>328.715485</ele>
        <time>2012-05-13T10:13:20Z</time>
      </trkpt>
      <trkpt lat="47.42642" lon="6.66492">
        <ele>328.705841</ele>
        <time>2012-05-13T10:13:28Z</time>
      </trkpt>
      <trkpt lat="47.42637" lon="6.66498">
        <ele>329.194977</ele>
        <time>2012-05-13T10:13:34Z</time>
      </trkpt>
      <trkpt lat="47.42632" lon="6.66503">
        <ele>329.75235</ele>
        <time>2012-05-13T10:13:40Z</time>
      </trkpt>
      <trkpt lat="47.42632" lon="6.66504">
        <ele>329.611511</ele>
        <time>2012-05-13T10:13:48Z</time>
      </trkpt>
      <trkpt lat="47.42632" lon="6.66504">
        <ele>329.66275</ele>
        <time>2012-05-13T10:13:59Z</time>
      </trkpt>
      <trkpt lat="47.42626" lon="6.66509">
        <ele>330.167267</ele>
        <time>2012-05-13T10:14:05Z</time>
      </trkpt>
      <trkpt lat="47.42616" lon="6.6652">
        <ele>330.672394</ele>
        <time>2012-05-13T10:14:12Z</time>
      </trkpt>
      <trkpt lat="47.42609" lon="6.66529">
        <ele>330.624695</ele>
        <time>2012-05-13T10:14:17Z</time>
      </trkpt>
      <trkpt lat="47.42601" lon="6.6654">
        <ele>330.543518</ele>
        <time>2012-05-13T10:14:23Z</time>
      </trkpt>
      <trkpt lat="47.42592" lon="6.66555">
        <ele>331.23938</ele>
        <time>2012-05-13T10:14:30Z</time>
      </trkpt>
      <trkpt lat="47.42583" lon="6.6657">
        <ele>332.71817</ele>
        <time>2012-05-13T10:14:37Z</time>
      </trkpt>
      <trkpt lat="47.42576" lon="6.66591">
        <ele>333.438995</ele>
        <time>2012-05-13T10:14:42Z</time>
      </trkpt>
      <trkpt lat="47.42572" lon="6.66599">
        <ele>333.739532</ele>
        <time>2012-05-13T10:14:46Z</time>
      </trkpt>
      <trkpt lat="47.42567" lon="6.66613">
        <ele>333.999115</ele>
        <time>2012-05-13T10:14:51Z</time>
      </trkpt>
      <trkpt lat="47.42563" lon="6.66637">
        <ele>333.834808</ele>
        <time>2012-05-13T10:14:57Z</time>
      </trkpt>
      <trkpt lat="47.42559" lon="6.66659">
        <ele>333.542755</ele>
        <time>2012-05-13T10:15:03Z</time>
      </trkpt>
      <trkpt lat="47.42553" lon="6.6668">
        <ele>333.925873</ele>
        <time>2012-05-13T10:15:10Z</time>
      </trkpt>
      <trkpt lat="47.42553" lon="6.66686">
        <ele>334.074951</ele>
        <time>2012-05-13T10:15:12Z</time>
      </trkpt>
      <trkpt lat="47.42561" lon="6.66692">
        <ele>333.649628</ele>
        <time>2012-05-13T10:15:17Z</time>
      </trkpt>
      <trkpt lat="47.42571" lon="6.66694">
        <ele>333.050934</ele>
        <time>2012-05-13T10:15:20Z</time>
      </trkpt>
      <trkpt lat="47.42587" lon="6.667">
        <ele>332.029602</ele>
        <time>2012-05-13T10:15:24Z</time>
      </trkpt>
      <trkpt lat="47.42602" lon="6.66698">
        <ele>331.380005</ele>
        <time>2012-05-13T10:15:27Z</time>
      </trkpt>
      <trkpt lat="47.42618" lon="6.6669">
        <ele>330.670013</ele>
        <time>2012-05-13T10:15:30Z</time>
      </trkpt>
      <trkpt lat="47.42664" lon="6.66659">
        <ele>329.917908</ele>
        <time>2012-05-13T10:15:38Z</time>
      </trkpt>
      <trkpt lat="47.42694" lon="6.66651">
        <ele>330</ele>
        <time>2012-05-13T10:15:43Z</time>
      </trkpt>
      <trkpt lat="47.42711" lon="6.66662">
        <ele>330</ele>
        <time>2012-05-13T10:15:46Z</time>
      </trkpt>
      <trkpt lat="47.42717" lon="6.66667">
        <ele>330</ele>
        <time>2012-05-13T10:15:48Z</time>
      </trkpt>
      <trkpt lat="47.42726" lon="6.66694">
        <ele>330.894867</ele>
        <time>2012-05-13T10:15:51Z</time>
      </trkpt>
      <trkpt lat="47.42751" lon="6.66707">
        <ele>338.890991</ele>
        <time>2012-05-13T10:15:56Z</time>
      </trkpt>
      <trkpt lat="47.42752" lon="6.66722">
        <ele>341.155487</ele>
        <time>2012-05-13T10:15:59Z</time>
      </trkpt>
      <trkpt lat="47.4275" lon="6.66727">
        <ele>341.337006</ele>
        <time>2012-05-13T10:16:00Z</time>
      </trkpt>
      <trkpt lat="47.42737" lon="6.66785">
        <ele>341.53656</ele>
        <time>2012-05-13T10:16:10Z</time>
      </trkpt>
      <trkpt lat="47.42732" lon="6.66828">
        <ele>342.311218</ele>
        <time>2012-05-13T10:16:17Z</time>
      </trkpt>
      <trkpt lat="47.42722" lon="6.66888">
        <ele>341.785919</ele>
        <time>2012-05-13T10:16:27Z</time>
      </trkpt>
      <trkpt lat="47.42714" lon="6.66943">
        <ele>341.845459</ele>
        <time>2012-05-13T10:16:36Z</time>
      </trkpt>
      <trkpt lat="47.42702" lon="6.67002">
        <ele>343.198395</ele>
        <time>2012-05-13T10:16:46Z</time>
      </trkpt>
      <trkpt lat="47.42681" lon="6.67052">
        <ele>342.943146</ele>
        <time>2012-05-13T10:16:55Z</time>
      </trkpt>
      <trkpt lat="47.42659" lon="6.67094">
        <ele>341.704773</ele>
        <time>2012-05-13T10:17:03Z</time>
      </trkpt>
      <trkpt lat="47.42641" lon="6.67131">
        <ele>343.633484</ele>
        <time>2012-05-13T10:17:11Z</time>
      </trkpt>
      <trkpt lat="47.42629" lon="6.67175">
        <ele>344.76123</ele>
        <time>2012-05-13T10:17:20Z</time>
      </trkpt>
      <trkpt lat="47.42618" lon="6.6722">
        <ele>344.552734</ele>
        <time>2012-05-13T10:17:29Z</time>
      </trkpt>
      <trkpt lat="47.42606" lon="6.67263">
        <ele>343.114807</ele>
        <time>2012-05-13T10:17:38Z</time>
      </trkpt>
      <trkpt lat="47.42592" lon="6.67305">
        <ele>343.44165</ele>
        <time>2012-05-13T10:17:47Z</time>
      </trkpt>
      <trkpt lat="47.42596" lon="6.67318">
        <ele>344.47287</ele>
        <time>2012-05-13T10:17:51Z</time>
      </trkpt>
      <trkpt lat="47.42601" lon="6.67323">
        <ele>345.025238</ele>
        <time>2012-05-13T10:17:54Z</time>
      </trkpt>
      <trkpt lat="47.42605" lon="6.67325">
        <ele>345.415375</ele>
        <time>2012-05-13T10:17:57Z</time>
      </trkpt>
      <trkpt lat="47.42607" lon="6.67326">
        <ele>345.6008</ele>
        <time>2012-05-13T10:17:59Z</time>
      </trkpt>
      <trkpt lat="47.42614" lon="6.67329">
        <ele>346.128082</ele>
        <time>2012-05-13T10:18:03Z</time>
      </trkpt>
      <trkpt lat="47.42629" lon="6.67328">
        <ele>347.118744</ele>
        <time>2012-05-13T10:18:10Z</time>
      </trkpt>
      <trkpt lat="47.42638" lon="6.67331">
        <ele>347.662689</ele>
        <time>2012-05-13T10:18:16Z</time>
      </trkpt>
      <trkpt lat="47.42649" lon="6.6734">
        <ele>348.346619</ele>
        <time>2012-05-13T10:18:23Z</time>
      </trkpt>
      <trkpt lat="47.4266" lon="6.67348">
        <ele>351.026611</ele>
        <time>2012-05-13T10:18:29Z</time>
      </trkpt>
      <trkpt lat="47.42668" lon="6.67355">
        <ele>353.530701</ele>
        <time>2012-05-13T10:18:36Z</time>
      </trkpt>
      <trkpt lat="47.42678" lon="6.67362">
        <ele>355.946625</ele>
        <time>2012-05-13T10:18:43Z</time>
      </trkpt>
      <trkpt lat="47.42686" lon="6.6737">
        <ele>358.179535</ele>
        <time>2012-05-13T10:18:49Z</time>
      </trkpt>
      <trkpt lat="47.42696" lon="6.67378">
        <ele>360.49939</ele>
        <time>2012-05-13T10:18:57Z</time>
      </trkpt>
      <trkpt lat="47.42705" lon="6.67385">
        <ele>362.137512</ele>
        <time>2012-05-13T10:19:04Z</time>
      </trkpt>
      <trkpt lat="47.42708" lon="6.67387">
        <ele>362.623932</ele>
        <time>2012-05-13T10:19:06Z</time>
      </trkpt>
      <trkpt lat="47.42719" lon="6.67391">
        <ele>363.900787</ele>
        <time>2012-05-13T10:19:15Z</time>
      </trkpt>
      <trkpt lat="47.42728" lon="6.67393">
        <ele>364.742432</ele>
        <time>2012-05-13T10:19:23Z</time>
      </trkpt>
      <trkpt lat="47.4273" lon="6.67394">
        <ele>364.991638</ele>
        <time>2012-05-13T10:19:25Z</time>
      </trkpt>
      <trkpt lat="47.42743" lon="6.67397">
        <ele>366.05484</ele>
        <time>2012-05-13T10:19:34Z</time>
      </trkpt>
      <trkpt lat="47.42746" lon="6.67399">
        <ele>366.333313</ele>
        <time>2012-05-13T10:19:40Z</time>
      </trkpt>
      <trkpt lat="47.42748" lon="6.67405">
        <ele>366.876556</ele>
        <time>2012-05-13T10:19:48Z</time>
      </trkpt>
      <trkpt lat="47.42752" lon="6.67407">
        <ele>367.201691</ele>
        <time>2012-05-13T10:19:53Z</time>
      </trkpt>
      <trkpt lat="47.42756" lon="6.67403">
        <ele>367.285522</ele>
        <time>2012-05-13T10:20:00Z</time>
      </trkpt>
      <trkpt lat="47.42765" lon="6.67401">
        <ele>367.746307</ele>
        <time>2012-05-13T10:20:09Z</time>
      </trkpt>
      <trkpt lat="47.42769" lon="6.67401">
        <ele>368.069427</ele>
        <time>2012-05-13T10:20:17Z</time>
      </trkpt>
      <trkpt lat="47.42774" lon="6.67405">
        <ele>368.474579</ele>
        <time>2012-05-13T10:20:23Z</time>
      </trkpt>
      <trkpt lat="47.42778" lon="6.67408">
        <ele>368.689911</ele>
        <time>2012-05-13T10:20:32Z</time>
      </trkpt>
      <trkpt lat="47.4278" lon="6.67413">
        <ele>368.744232</ele>
        <time>2012-05-13T10:20:42Z</time>
      </trkpt>
      <trkpt lat="47.42783" lon="6.67415">
        <ele>368.937561</ele>
        <time>2012-05-13T10:20:50Z</time>
      </trkpt>
      <trkpt lat="47.42787" lon="6.6742">
        <ele>369.574036</ele>
        <time>2012-05-13T10:20:56Z</time>
      </trkpt>
      <trkpt lat="47.42796" lon="6.67424">
        <ele>370.33075</ele>
        <time>2012-05-13T10:21:04Z</time>
      </trkpt>
      <trkpt lat="47.42798" lon="6.67428">
        <ele>370.785706</ele>
        <time>2012-05-13T10:21:10Z</time>
      </trkpt>
      <trkpt lat="47.42808" lon="6.67436">
        <ele>371.884186</ele>
        <time>2012-05-13T10:21:18Z</time>
      </trkpt>
      <trkpt lat="47.42816" lon="6.67442">
        <ele>372.738373</ele>
        <time>2012-05-13T10:21:26Z</time>
      </trkpt>
      <trkpt lat="47.42823" lon="6.67445">
        <ele>373.24411</ele>
        <time>2012-05-13T10:21:33Z</time>
      </trkpt>
      <trkpt lat="47.42829" lon="6.67447">
        <ele>373.578705</ele>
        <time>2012-05-13T10:21:41Z</time>
      </trkpt>
      <trkpt lat="47.4283" lon="6.67444">
        <ele>373.301361</ele>
        <time>2012-05-13T10:21:47Z</time>
      </trkpt>
      <trkpt lat="47.4283" lon="6.67442">
        <ele>373.099243</ele>
        <time>2012-05-13T10:21:58Z</time>
      </trkpt>
      <trkpt lat="47.42829" lon="6.67439">
        <ele>372.848785</ele>
        <time>2012-05-13T10:22:10Z</time>
      </trkpt>
      <trkpt lat="47.42832" lon="6.67436">
        <ele>372.814575</ele>
        <time>2012-05-13T10:22:16Z</time>
      </trkpt>
      <trkpt lat="47.42843" lon="6.67428">
        <ele>373.859833</ele>
        <time>2012-05-13T10:22:25Z</time>
      </trkpt>
      <trkpt lat="47.42853" lon="6.67423">
        <ele>375.084534</ele>
        <time>2012-05-13T10:22:33Z</time>
      </trkpt>
      <trkpt lat="47.42861" lon="6.67419">
        <ele>376.39621</ele>
        <time>2012-05-13T10:22:39Z</time>
      </trkpt>
      <trkpt lat="47.42865" lon="6.67418">
        <ele>377.15979</ele>
        <time>2012-05-13T10:22:47Z</time>
      </trkpt>
      <trkpt lat="47.42868" lon="6.67416">
        <ele>377.65921</ele>
        <time>2012-05-13T10:22:54Z</time>
      </trkpt>
      <trkpt lat="47.42869" lon="6.67416">
        <ele>377.846802</ele>
        <time>2012-05-13T10:22:55Z</time>
      </trkpt>
      <trkpt lat="47.42882" lon="6.67415">
        <ele>379.528015</ele>
        <time>2012-05-13T10:23:04Z</time>
      </trkpt>
      <trkpt lat="47.42896" lon="6.67412">
        <ele>380.802521</ele>
        <time>2012-05-13T10:23:13Z</time>
      </trkpt>
      <trkpt lat="47.42907" lon="6.67407">
        <ele>381.501709</ele>
        <time>2012-05-13T10:23:20Z</time>
      </trkpt>
      <trkpt lat="47.42917" lon="6.67401">
        <ele>381.847992</ele>
        <time>2012-05-13T10:23:27Z</time>
      </trkpt>
      <trkpt lat="47.4293" lon="6.67399">
        <ele>382.608521</ele>
        <time>2012-05-13T10:23:36Z</time>
      </trkpt>
      <trkpt lat="47.4294" lon="6.67403">
        <ele>383.752899</ele>
        <time>2012-05-13T10:23:44Z</time>
      </trkpt>
      <trkpt lat="47.42951" lon="6.67407">
        <ele>384.98999</ele>
        <time>2012-05-13T10:23:52Z</time>
      </trkpt>
      <trkpt lat="47.42966" lon="6.6741">
        <ele>386.323242</ele>
        <time>2012-05-13T10:24:00Z</time>
      </trkpt>
      <trkpt lat="47.42977" lon="6.67413">
        <ele>387.126831</ele>
        <time>2012-05-13T10:24:07Z</time>
      </trkpt>
      <trkpt lat="47.42985" lon="6.67413">
        <ele>387.60199</ele>
        <time>2012-05-13T10:24:13Z</time>
      </trkpt>
      <trkpt lat="47.42996" lon="6.67416">
        <ele>388.315216</ele>
        <time>2012-05-13T10:24:20Z</time>
      </trkpt>
      <trkpt lat="47.43007" lon="6.67418">
        <ele>388.92572</ele>
        <time>2012-05-13T10:24:27Z</time>
      </trkpt>
      <trkpt lat="47.4302" lon="6.67421">
        <ele>389.291565</ele>
        <time>2012-05-13T10:24:36Z</time>
      </trkpt>
      <trkpt lat="47.43028" lon="6.67423">
        <ele>389.371826</ele>
        <time>2012-05-13T10:24:43Z</time>
      </trkpt>
      <trkpt lat="47.43037" lon="6.67424">
        <ele>389.449615</ele>
        <time>2012-05-13T10:24:50Z</time>
      </trkpt>
      <trkpt lat="47.43043" lon="6.67429">
        <ele>389.303711</ele>
        <time>2012-05-13T10:24:54Z</time>
      </trkpt>
      <trkpt lat="47.43053" lon="6.67435">
        <ele>389.067383</ele>
        <time>2012-05-13T10:25:03Z</time>
      </trkpt>
      <trkpt lat="47.43063" lon="6.67439">
        <ele>389.79071</ele>
        <time>2012-05-13T10:25:11Z</time>
      </trkpt>
      <trkpt lat="47.43072" lon="6.67442">
        <ele>390.776184</ele>
        <time>2012-05-13T10:25:18Z</time>
      </trkpt>
      <trkpt lat="47.43074" lon="6.67442">
        <ele>390.892487</ele>
        <time>2012-05-13T10:25:19Z</time>
      </trkpt>
      <trkpt lat="47.43077" lon="6.67443">
        <ele>391.234558</ele>
        <time>2012-05-13T10:25:21Z</time>
      </trkpt>
      <trkpt lat="47.43083" lon="6.67458">
        <ele>392.86499</ele>
        <time>2012-05-13T10:25:27Z</time>
      </trkpt>
      <trkpt lat="47.43096" lon="6.6747">
        <ele>394.562561</ele>
        <time>2012-05-13T10:25:33Z</time>
      </trkpt>
      <trkpt lat="47.43108" lon="6.67483">
        <ele>396.38739</ele>
        <time>2012-05-13T10:25:40Z</time>
      </trkpt>
      <trkpt lat="47.43114" lon="6.67492">
        <ele>397.41275</ele>
        <time>2012-05-13T10:25:45Z</time>
      </trkpt>
      <trkpt lat="47.43125" lon="6.675">
        <ele>398.585999</ele>
        <time>2012-05-13T10:25:52Z</time>
      </trkpt>
      <trkpt lat="47.43135" lon="6.67506">
        <ele>399.437378</ele>
        <time>2012-05-13T10:25:59Z</time>
      </trkpt>
      <trkpt lat="47.43148" lon="6.67509">
        <ele>400.478577</ele>
        <time>2012-05-13T10:26:06Z</time>
      </trkpt>
      <trkpt lat="47.4316" lon="6.67512">
        <ele>401.892609</ele>
        <time>2012-05-13T10:26:13Z</time>
      </trkpt>
      <trkpt lat="47.43168" lon="6.67514">
        <ele>402.842285</ele>
        <time>2012-05-13T10:26:18Z</time>
      </trkpt>
      <trkpt lat="47.43176" lon="6.67515">
        <ele>403.722626</ele>
        <time>2012-05-13T10:26:24Z</time>
      </trkpt>
      <trkpt lat="47.43183" lon="6.67519">
        <ele>404.780212</ele>
        <time>2012-05-13T10:26:31Z</time>
      </trkpt>
      <trkpt lat="47.43193" lon="6.67523">
        <ele>406.20639</ele>
        <time>2012-05-13T10:26:38Z</time>
      </trkpt>
      <trkpt lat="47.43199" lon="6.67526">
        <ele>407.366699</ele>
        <time>2012-05-13T10:26:45Z</time>
      </trkpt>
      <trkpt lat="47.43204" lon="6.67531">
        <ele>408.285736</ele>
        <time>2012-05-13T10:26:55Z</time>
      </trkpt>
      <trkpt lat="47.43206" lon="6.67531">
        <ele>408.562592</ele>
        <time>2012-05-13T10:27:01Z</time>
      </trkpt>
      <trkpt lat="47.43203" lon="6.67526">
        <ele>408.033386</ele>
        <time>2012-05-13T10:27:08Z</time>
      </trkpt>
      <trkpt lat="47.43204" lon="6.67527">
        <ele>408.275635</ele>
        <time>2012-05-13T10:27:11Z</time>
      </trkpt>
      <trkpt lat="47.43209" lon="6.67532">
        <ele>409.105957</ele>
        <time>2012-05-13T10:27:18Z</time>
      </trkpt>
      <trkpt lat="47.43214" lon="6.67535">
        <ele>409.905609</ele>
        <time>2012-05-13T10:27:26Z</time>
      </trkpt>
      <trkpt lat="47.43219" lon="6.67541">
        <ele>410.772339</ele>
        <time>2012-05-13T10:27:34Z</time>
      </trkpt>
      <trkpt lat="47.43224" lon="6.67552">
        <ele>411.531006</ele>
        <time>2012-05-13T10:27:41Z</time>
      </trkpt>
      <trkpt lat="47.43229" lon="6.6756">
        <ele>412.058838</ele>
        <time>2012-05-13T10:27:47Z</time>
      </trkpt>
      <trkpt lat="47.43234" lon="6.67565">
        <ele>412.671265</ele>
        <time>2012-05-13T10:27:55Z</time>
      </trkpt>
      <trkpt lat="47.4324" lon="6.67575">
        <ele>413.42749</ele>
        <time>2012-05-13T10:28:04Z</time>
      </trkpt>
      <trkpt lat="47.43248" lon="6.67592">
        <ele>414.571381</ele>
        <time>2012-05-13T10:28:11Z</time>
      </trkpt>
      <trkpt lat="47.43252" lon="6.676">
        <ele>415.39389</ele>
        <time>2012-05-13T10:28:16Z</time>
      </trkpt>
      <trkpt lat="47.43254" lon="6.67609">
        <ele>415.950775</ele>
        <time>2012-05-13T10:28:22Z</time>
      </trkpt>
      <trkpt lat="47.43257" lon="6.67619">
        <ele>416.511261</ele>
        <time>2012-05-13T10:28:29Z</time>
      </trkpt>
      <trkpt lat="47.43263" lon="6.67626">
        <ele>417.150482</ele>
        <time>2012-05-13T10:28:36Z</time>
      </trkpt>
      <trkpt lat="47.43268" lon="6.6763">
        <ele>417.577515</ele>
        <time>2012-05-13T10:28:42Z</time>
      </trkpt>
      <trkpt lat="47.43273" lon="6.67636">
        <ele>417.939301</ele>
        <time>2012-05-13T10:28:48Z</time>
      </trkpt>
      <trkpt lat="47.43281" lon="6.67636">
        <ele>418.555481</ele>
        <time>2012-05-13T10:28:56Z</time>
      </trkpt>
      <trkpt lat="47.43288" lon="6.67638">
        <ele>419.074982</ele>
        <time>2012-05-13T10:29:05Z</time>
      </trkpt>
      <trkpt lat="47.43295" lon="6.67641">
        <ele>419.556854</ele>
        <time>2012-05-13T10:29:12Z</time>
      </trkpt>
      <trkpt lat="47.43299" lon="6.67641">
        <ele>419.867615</ele>
        <time>2012-05-13T10:29:17Z</time>
      </trkpt>
      <trkpt lat="47.43306" lon="6.6764">
        <ele>420.372498</ele>
        <time>2012-05-13T10:29:24Z</time>
      </trkpt>
      <trkpt lat="47.43313" lon="6.67639">
        <ele>420.897278</ele>
        <time>2012-05-13T10:29:30Z</time>
      </trkpt>
      <trkpt lat="47.43317" lon="6.67639">
        <ele>421.211945</ele>
        <time>2012-05-13T10:29:34Z</time>
      </trkpt>
      <trkpt lat="47.43323" lon="6.67638">
        <ele>421.566772</ele>
        <time>2012-05-13T10:29:40Z</time>
      </trkpt>
      <trkpt lat="47.43328" lon="6.67637">
        <ele>421.864502</ele>
        <time>2012-05-13T10:29:46Z</time>
      </trkpt>
      <trkpt lat="47.43334" lon="6.67634">
        <ele>422.228607</ele>
        <time>2012-05-13T10:29:54Z</time>
      </trkpt>
      <trkpt lat="47.4334" lon="6.67634">
        <ele>422.545593</ele>
        <time>2012-05-13T10:30:00Z</time>
      </trkpt>
      <trkpt lat="47.43348" lon="6.67629">
        <ele>422.868011</ele>
        <time>2012-05-13T10:30:06Z</time>
      </trkpt>
      <trkpt lat="47.43358" lon="6.67634">
        <ele>423.497528</ele>
        <time>2012-05-13T10:30:13Z</time>
      </trkpt>
      <trkpt lat="47.43364" lon="6.67642">
        <ele>424.10498</ele>
        <time>2012-05-13T10:30:19Z</time>
      </trkpt>
      <trkpt lat="47.43371" lon="6.6765">
        <ele>424.165009</ele>
        <time>2012-05-13T10:30:23Z</time>
      </trkpt>
      <trkpt lat="47.43376" lon="6.67648">
        <ele>423.842499</ele>
        <time>2012-05-13T10:30:27Z</time>
      </trkpt>
      <trkpt lat="47.43381" lon="6.67636">
        <ele>423.07251</ele>
        <time>2012-05-13T10:30:31Z</time>
      </trkpt>
      <trkpt lat="47.43391" lon="6.67636">
        <ele>422.528748</ele>
        <time>2012-05-13T10:30:35Z</time>
      </trkpt>
      <trkpt lat="47.4341" lon="6.6763">
        <ele>421.294952</ele>
        <time>2012-05-13T10:30:41Z</time>
      </trkpt>
      <trkpt lat="47.43421" lon="6.67627">
        <ele>419.857941</ele>
        <time>2012-05-13T10:30:44Z</time>
      </trkpt>
      <trkpt lat="47.43435" lon="6.67611">
        <ele>417.332733</ele>
        <time>2012-05-13T10:30:49Z</time>
      </trkpt>
      <trkpt lat="47.43445" lon="6.67593">
        <ele>414.738739</ele>
        <time>2012-05-13T10:30:53Z</time>
      </trkpt>
      <trkpt lat="47.43456" lon="6.67586">
        <ele>412.762512</ele>
        <time>2012-05-13T10:30:56Z</time>
      </trkpt>
      <trkpt lat="47.43471" lon="6.6759">
        <ele>410.868744</ele>
        <time>2012-05-13T10:31:01Z</time>
      </trkpt>
      <trkpt lat="47.43483" lon="6.6761">
        <ele>410.700012</ele>
        <time>2012-05-13T10:31:07Z</time>
      </trkpt>
      <trkpt lat="47.43497" lon="6.67634">
        <ele>410.456238</ele>
        <time>2012-05-13T10:31:14Z</time>
      </trkpt>
      <trkpt lat="47.43506" lon="6.67654">
        <ele>410.674988</ele>
        <time>2012-05-13T10:31:19Z</time>
      </trkpt>
      <trkpt lat="47.43516" lon="6.67674">
        <ele>410.980835</ele>
        <time>2012-05-13T10:31:24Z</time>
      </trkpt>
      <trkpt lat="47.43526" lon="6.67703">
        <ele>412.016663</ele>
        <time>2012-05-13T10:31:31Z</time>
      </trkpt>
      <trkpt lat="47.43526" lon="6.67719">
        <ele>413.247742</ele>
        <time>2012-05-13T10:31:37Z</time>
      </trkpt>
      <trkpt lat="47.43529" lon="6.67738">
        <ele>414.213684</ele>
        <time>2012-05-13T10:31:43Z</time>
      </trkpt>
      <trkpt lat="47.43536" lon="6.67752">
        <ele>414.471588</ele>
        <time>2012-05-13T10:31:49Z</time>
      </trkpt>
      <trkpt lat="47.43542" lon="6.67768">
        <ele>414.950012</ele>
        <time>2012-05-13T10:31:55Z</time>
      </trkpt>
      <trkpt lat="47.4355" lon="6.67781">
        <ele>414.934998</ele>
        <time>2012-05-13T10:32:01Z</time>
      </trkpt>
      <trkpt lat="47.43552" lon="6.67786">
        <ele>415.002502</ele>
        <time>2012-05-13T10:32:03Z</time>
      </trkpt>
      <trkpt lat="47.43559" lon="6.678">
        <ele>415.287506</ele>
        <time>2012-05-13T10:32:09Z</time>
      </trkpt>
      <trkpt lat="47.43567" lon="6.67817">
        <ele>415.545868</ele>
        <time>2012-05-13T10:32:16Z</time>
      </trkpt>
      <trkpt lat="47.43578" lon="6.6784">
        <ele>416.006958</ele>
        <time>2012-05-13T10:32:25Z</time>
      </trkpt>
      <trkpt lat="47.43588" lon="6.67858">
        <ele>416.080017</ele>
        <time>2012-05-13T10:32:32Z</time>
      </trkpt>
      <trkpt lat="47.43598" lon="6.67876">
        <ele>415.964996</ele>
        <time>2012-05-13T10:32:39Z</time>
      </trkpt>
      <trkpt lat="47.43611" lon="6.67899">
        <ele>415.925629</ele>
        <time>2012-05-13T10:32:47Z</time>
      </trkpt>
      <trkpt lat="47.4362" lon="6.67914">
        <ele>415.976746</ele>
        <time>2012-05-13T10:32:54Z</time>
      </trkpt>
      <trkpt lat="47.43628" lon="6.67927">
        <ele>416.016235</ele>
        <time>2012-05-13T10:32:59Z</time>
      </trkpt>
      <trkpt lat="47.43638" lon="6.67948">
        <ele>416.506256</ele>
        <time>2012-05-13T10:33:07Z</time>
      </trkpt>
      <trkpt lat="47.43643" lon="6.6796">
        <ele>416.468903</ele>
        <time>2012-05-13T10:33:12Z</time>
      </trkpt>
      <trkpt lat="47.43651" lon="6.67973">
        <ele>416.408386</ele>
        <time>2012-05-13T10:33:18Z</time>
      </trkpt>
      <trkpt lat="47.43658" lon="6.6799">
        <ele>416.612244</ele>
        <time>2012-05-13T10:33:25Z</time>
      </trkpt>
      <trkpt lat="47.43663" lon="6.68">
        <ele>416.836304</ele>
        <time>2012-05-13T10:33:29Z</time>
      </trkpt>
      <trkpt lat="47.43669" lon="6.68023">
        <ele>417.49527</ele>
        <time>2012-05-13T10:33:38Z</time>
      </trkpt>
      <trkpt lat="47.43673" lon="6.6804">
        <ele>417.848846</ele>
        <time>2012-05-13T10:33:45Z</time>
      </trkpt>
      <trkpt lat="47.43676" lon="6.68049">
        <ele>417.977875</ele>
        <time>2012-05-13T10:33:50Z</time>
      </trkpt>
      <trkpt lat="47.4368" lon="6.68061">
        <ele>418.091888</ele>
        <time>2012-05-13T10:33:55Z</time>
      </trkpt>
      <trkpt lat="47.43688" lon="6.68082">
        <ele>418.222626</ele>
        <time>2012-05-13T10:34:02Z</time>
      </trkpt>
      <trkpt lat="47.43698" lon="6.68106">
        <ele>417.880585</ele>
        <time>2012-05-13T10:34:09Z</time>
      </trkpt>
      <trkpt lat="47.4371" lon="6.68133">
        <ele>417.331757</ele>
        <time>2012-05-13T10:34:17Z</time>
      </trkpt>
      <trkpt lat="47.43719" lon="6.68156">
        <ele>416.66394</ele>
        <time>2012-05-13T10:34:23Z</time>
      </trkpt>
      <trkpt lat="47.43723" lon="6.68173">
        <ele>416.839661</ele>
        <time>2012-05-13T10:34:28Z</time>
      </trkpt>
      <trkpt lat="47.43728" lon="6.68198">
        <ele>417.587189</ele>
        <time>2012-05-13T10:34:34Z</time>
      </trkpt>
      <trkpt lat="47.43734" lon="6.68222">
        <ele>418.296997</ele>
        <time>2012-05-13T10:34:40Z</time>
      </trkpt>
      <trkpt lat="47.4374" lon="6.68249">
        <ele>418.679993</ele>
        <time>2012-05-13T10:34:47Z</time>
      </trkpt>
      <trkpt lat="47.43746" lon="6.6828">
        <ele>419.382019</ele>
        <time>2012-05-13T10:34:54Z</time>
      </trkpt>
      <trkpt lat="47.43751" lon="6.68307">
        <ele>421.337524</ele>
        <time>2012-05-13T10:35:01Z</time>
      </trkpt>
      <trkpt lat="47.43757" lon="6.68333">
        <ele>423.310272</ele>
        <time>2012-05-13T10:35:08Z</time>
      </trkpt>
      <trkpt lat="47.43763" lon="6.68356">
        <ele>425.013763</ele>
        <time>2012-05-13T10:35:15Z</time>
      </trkpt>
      <trkpt lat="47.43763" lon="6.68359">
        <ele>425.171265</ele>
        <time>2012-05-13T10:35:16Z</time>
      </trkpt>
      <trkpt lat="47.43767" lon="6.68383">
        <ele>426.730011</ele>
        <time>2012-05-13T10:35:23Z</time>
      </trkpt>
      <trkpt lat="47.43774" lon="6.68401">
        <ele>427.743744</ele>
        <time>2012-05-13T10:35:30Z</time>
      </trkpt>
      <trkpt lat="47.43785" lon="6.68412">
        <ele>428.01001</ele>
        <time>2012-05-13T10:35:36Z</time>
      </trkpt>
      <trkpt lat="47.43797" lon="6.68422">
        <ele>428.097504</ele>
        <time>2012-05-13T10:35:42Z</time>
      </trkpt>
      <trkpt lat="47.43803" lon="6.68425">
        <ele>428.040009</ele>
        <time>2012-05-13T10:35:45Z</time>
      </trkpt>
      <trkpt lat="47.43809" lon="6.68429">
        <ele>428.017334</ele>
        <time>2012-05-13T10:35:49Z</time>
      </trkpt>
      <trkpt lat="47.43822" lon="6.68435">
        <ele>427.727783</ele>
        <time>2012-05-13T10:35:56Z</time>
      </trkpt>
      <trkpt lat="47.43829" lon="6.68438">
        <ele>427.559326</ele>
        <time>2012-05-13T10:36:01Z</time>
      </trkpt>
      <trkpt lat="47.43842" lon="6.68443">
        <ele>427.190002</ele>
        <time>2012-05-13T10:36:05Z</time>
      </trkpt>
      <trkpt lat="47.4387" lon="6.6845">
        <ele>426.220001</ele>
        <time>2012-05-13T10:36:11Z</time>
      </trkpt>
      <trkpt lat="47.43906" lon="6.68453">
        <ele>426.049988</ele>
        <time>2012-05-13T10:36:17Z</time>
      </trkpt>
      <trkpt lat="47.43941" lon="6.68455">
        <ele>426.5</ele>
        <time>2012-05-13T10:36:23Z</time>
      </trkpt>
      <trkpt lat="47.43977" lon="6.68459">
        <ele>427.054993</ele>
        <time>2012-05-13T10:36:31Z</time>
      </trkpt>
      <trkpt lat="47.43982" lon="6.68459">
        <ele>427.075012</ele>
        <time>2012-05-13T10:36:32Z</time>
      </trkpt>
      <trkpt lat="47.44017" lon="6.68466">
        <ele>427.196045</ele>
        <time>2012-05-13T10:36:39Z</time>
      </trkpt>
      <trkpt lat="47.44056" lon="6.6847">
        <ele>426.556244</ele>
        <time>2012-05-13T10:36:47Z</time>
      </trkpt>
      <trkpt lat="47.4407" lon="6.68469">
        <ele>425.779999</ele>
        <time>2012-05-13T10:36:50Z</time>
      </trkpt>
      <trkpt lat="47.44089" lon="6.68482">
        <ele>425.746246</ele>
        <time>2012-05-13T10:36:55Z</time>
      </trkpt>
      <trkpt lat="47.44097" lon="6.68497">
        <ele>426.463745</ele>
        <time>2012-05-13T10:36:59Z</time>
      </trkpt>
      <trkpt lat="47.44107" lon="6.68516">
        <ele>427.393738</ele>
        <time>2012-05-13T10:37:05Z</time>
      </trkpt>
      <trkpt lat="47.44115" lon="6.68534">
        <ele>428.28125</ele>
        <time>2012-05-13T10:37:11Z</time>
      </trkpt>
      <trkpt lat="47.4412" lon="6.68553">
        <ele>429.407501</ele>
        <time>2012-05-13T10:37:17Z</time>
      </trkpt>
      <trkpt lat="47.44129" lon="6.68572">
        <ele>430.346252</ele>
        <time>2012-05-13T10:37:24Z</time>
      </trkpt>
      <trkpt lat="47.44141" lon="6.6859">
        <ele>430.964355</ele>
        <time>2012-05-13T10:37:31Z</time>
      </trkpt>
      <trkpt lat="47.4415" lon="6.68607">
        <ele>431.147766</ele>
        <time>2012-05-13T10:37:37Z</time>
      </trkpt>
      <trkpt lat="47.4416" lon="6.68632">
        <ele>431.760284</ele>
        <time>2012-05-13T10:37:45Z</time>
      </trkpt>
      <trkpt lat="47.4417" lon="6.68663">
        <ele>432.826263</ele>
        <time>2012-05-13T10:37:54Z</time>
      </trkpt>
      <trkpt lat="47.44183" lon="6.68703">
        <ele>433.826233</ele>
        <time>2012-05-13T10:38:05Z</time>
      </trkpt>
      <trkpt lat="47.44193" lon="6.68735">
        <ele>434.359985</ele>
        <time>2012-05-13T10:38:14Z</time>
      </trkpt>
      <trkpt lat="47.44202" lon="6.68778">
        <ele>434.889984</ele>
        <time>2012-05-13T10:38:25Z</time>
      </trkpt>
      <trkpt lat="47.44208" lon="6.68812">
        <ele>435.404999</ele>
        <time>2012-05-13T10:38:34Z</time>
      </trkpt>
      <trkpt lat="47.44212" lon="6.68836">
        <ele>435.792511</ele>
        <time>2012-05-13T10:38:42Z</time>
      </trkpt>
      <trkpt lat="47.44213" lon="6.68842">
        <ele>435.904999</ele>
        <time>2012-05-13T10:38:48Z</time>
      </trkpt>
      <trkpt lat="47.44213" lon="6.68847">
        <ele>436.015015</ele>
        <time>2012-05-13T10:38:54Z</time>
      </trkpt>
      <trkpt lat="47.44212" lon="6.68849">
        <ele>436.160004</ele>
        <time>2012-05-13T10:38:56Z</time>
      </trkpt>
      <trkpt lat="47.44206" lon="6.68854">
        <ele>436.727509</ele>
        <time>2012-05-13T10:39:03Z</time>
      </trkpt>
      <trkpt lat="47.44205" lon="6.6886">
        <ele>436.910126</ele>
        <time>2012-05-13T10:39:09Z</time>
      </trkpt>
      <trkpt lat="47.44205" lon="6.6886">
        <ele>436.924927</ele>
        <time>2012-05-13T10:39:11Z</time>
      </trkpt>
      <trkpt lat="47.44203" lon="6.68862">
        <ele>437.02301</ele>
        <time>2012-05-13T10:39:27Z</time>
      </trkpt>
      <trkpt lat="47.44203" lon="6.68862">
        <ele>437.008972</ele>
        <time>2012-05-13T10:39:56Z</time>
      </trkpt>
      <trkpt lat="47.44204" lon="6.68861">
        <ele>437.004852</ele>
        <time>2012-05-13T10:40:08Z</time>
      </trkpt>
      <trkpt lat="47.44204" lon="6.68862">
        <ele>436.980011</ele>
        <time>2012-05-13T10:47:06Z</time>
      </trkpt>
      <trkpt lat="47.44204" lon="6.68861">
        <ele>436.976013</ele>
        <time>2012-05-13T10:47:51Z</time>
      </trkpt>
      <trkpt lat="47.44203" lon="6.68862">
        <ele>437.023438</ele>
        <time>2012-05-13T10:48:14Z</time>
      </trkpt>
      <trkpt lat="47.44204" lon="6.68862">
        <ele>436.9776</ele>
        <time>2012-05-13T10:48:32Z</time>
      </trkpt>
      <trkpt lat="47.44204" lon="6.68861">
        <ele>436.990021</ele>
        <time>2012-05-13T10:48:47Z</time>
      </trkpt>
      <trkpt lat="47.44203" lon="6.68862">
        <ele>437.039124</ele>
        <time>2012-05-13T10:48:57Z</time>
      </trkpt>
      <trkpt lat="47.44203" lon="6.68861">
        <ele>437.022156</ele>
        <time>2012-05-13T10:49:08Z</time>
      </trkpt>
      <trkpt lat="47.44203" lon="6.68861">
        <ele>437.019226</ele>
        <time>2012-05-13T10:49:22Z</time>
      </trkpt>
      <trkpt lat="47.44203" lon="6.68861">
        <ele>437.050537</ele>
        <time>2012-05-13T10:49:37Z</time>
      </trkpt>
      <trkpt lat="47.44203" lon="6.68862">
        <ele>437.039124</ele>
        <time>2012-05-13T10:49:46Z</time>
      </trkpt>
      <trkpt lat="47.44203" lon="6.68862">
        <ele>437.039978</ele>
        <time>2012-05-13T10:49:55Z</time>
      </trkpt>
      <trkpt lat="47.44205" lon="6.68858">
        <ele>436.899994</ele>
        <time>2012-05-13T10:51:03Z</time>
      </trkpt>
      <trkpt lat="47.44209" lon="6.68852">
        <ele>436.497498</ele>
        <time>2012-05-13T10:51:10Z</time>
      </trkpt>
      <trkpt lat="47.44213" lon="6.68857">
        <ele>436.327515</ele>
        <time>2012-05-13T10:51:18Z</time>
      </trkpt>
      <trkpt lat="47.44213" lon="6.68857">
        <ele>436.357513</ele>
        <time>2012-05-13T10:51:28Z</time>
      </trkpt>
      <trkpt lat="47.44213" lon="6.68859">
        <ele>436.387512</ele>
        <time>2012-05-13T10:51:48Z</time>
      </trkpt>
      <trkpt lat="47.44212" lon="6.68858">
        <ele>436.399994</ele>
        <time>2012-05-13T10:52:16Z</time>
      </trkpt>
      <trkpt lat="47.44213" lon="6.68858">
        <ele>436.382507</ele>
        <time>2012-05-13T10:52:40Z</time>
      </trkpt>
      <trkpt lat="47.44213" lon="6.68858">
        <ele>436.329987</ele>
        <time>2012-05-13T10:53:05Z</time>
      </trkpt>
      <trkpt lat="47.44212" lon="6.6886">
        <ele>436.438263</ele>
        <time>2012-05-13T10:53:25Z</time>
      </trkpt>
      <trkpt lat="47.44214" lon="6.68859">
        <ele>436.315521</ele>
        <time>2012-05-13T10:53:33Z</time>
      </trkpt>
      <trkpt lat="47.44215" lon="6.68858">
        <ele>436.214996</ele>
        <time>2012-05-13T10:53:52Z</time>
      </trkpt>
      <trkpt lat="47.44216" lon="6.68856">
        <ele>436.109985</ele>
        <time>2012-05-13T10:54:44Z</time>
      </trkpt>
      <trkpt lat="47.44217" lon="6.68856">
        <ele>436.002502</ele>
        <time>2012-05-13T10:55:07Z</time>
      </trkpt>
      <trkpt lat="47.44215" lon="6.68859">
        <ele>436.227509</ele>
        <time>2012-05-13T10:57:55Z</time>
      </trkpt>
      <trkpt lat="47.44213" lon="6.68857">
        <ele>436.295013</ele>
        <time>2012-05-13T10:58:06Z</time>
      </trkpt>
      <trkpt lat="47.44214" lon="6.68855">
        <ele>436.1875</ele>
        <time>2012-05-13T10:58:19Z</time>
      </trkpt>
      <trkpt lat="47.44214" lon="6.68854">
        <ele>436.207489</ele>
        <time>2012-05-13T10:58:26Z</time>
      </trkpt>
      <trkpt lat="47.44211" lon="6.68855">
        <ele>436.382507</ele>
        <time>2012-05-13T10:58:40Z</time>
      </trkpt>
      <trkpt lat="47.44212" lon="6.68852">
        <ele>436.227509</ele>
        <time>2012-05-13T10:58:52Z</time>
      </trkpt>
      <trkpt lat="47.44215" lon="6.68844">
        <ele>435.795013</ele>
        <time>2012-05-13T10:58:58Z</time>
      </trkpt>
      <trkpt lat="47.44216" lon="6.68837">
        <ele>435.570007</ele>
        <time>2012-05-13T10:59:01Z</time>
      </trkpt>
      <trkpt lat="47.44213" lon="6.68837">
        <ele>435.782501</ele>
        <time>2012-05-13T10:59:06Z</time>
      </trkpt>
      <trkpt lat="47.44213" lon="6.68838">
        <ele>435.772491</ele>
        <time>2012-05-13T10:59:07Z</time>
      </trkpt>
      <trkpt lat="47.44217" lon="6.68846">
        <ele>435.742493</ele>
        <time>2012-05-13T10:59:14Z</time>
      </trkpt>
      <trkpt lat="47.44218" lon="6.68847">
        <ele>435.737488</ele>
        <time>2012-05-13T10:59:32Z</time>
      </trkpt>
      <trkpt lat="47.44219" lon="6.68848">
        <ele>435.665009</ele>
        <time>2012-05-13T10:59:35Z</time>
      </trkpt>
      <trkpt lat="47.44225" lon="6.68849">
        <ele>435.142487</ele>
        <time>2012-05-13T10:59:39Z</time>
      </trkpt>
      <trkpt lat="47.44234" lon="6.68865">
        <ele>434.619995</ele>
        <time>2012-05-13T10:59:45Z</time>
      </trkpt>
      <trkpt lat="47.44237" lon="6.68889">
        <ele>434.220001</ele>
        <time>2012-05-13T10:59:52Z</time>
      </trkpt>
      <trkpt lat="47.4424" lon="6.68921">
        <ele>433.880005</ele>
        <time>2012-05-13T11:00:01Z</time>
      </trkpt>
      <trkpt lat="47.44243" lon="6.68954">
        <ele>433.297852</ele>
        <time>2012-05-13T11:00:10Z</time>
      </trkpt>
      <trkpt lat="47.44244" lon="6.68985">
        <ele>432.742126</ele>
        <time>2012-05-13T11:00:18Z</time>
      </trkpt>
      <trkpt lat="47.44246" lon="6.69026">
        <ele>431.979553</ele>
        <time>2012-05-13T11:00:28Z</time>
      </trkpt>
      <trkpt lat="47.44248" lon="6.69067">
        <ele>431.523987</ele>
        <time>2012-05-13T11:00:36Z</time>
      </trkpt>
      <trkpt lat="47.4425" lon="6.69101">
        <ele>433.023224</ele>
        <time>2012-05-13T11:00:43Z</time>
      </trkpt>
      <trkpt lat="47.44254" lon="6.69141">
        <ele>434.463745</ele>
        <time>2012-05-13T11:00:52Z</time>
      </trkpt>
      <trkpt lat="47.44262" lon="6.69169">
        <ele>434.665009</ele>
        <time>2012-05-13T11:00:59Z</time>
      </trkpt>
      <trkpt lat="47.44274" lon="6.6919">
        <ele>434.181244</ele>
        <time>2012-05-13T11:01:05Z</time>
      </trkpt>
      <trkpt lat="47.44277" lon="6.69222">
        <ele>433.739044</ele>
        <time>2012-05-13T11:01:12Z</time>
      </trkpt>
      <trkpt lat="47.44274" lon="6.69252">
        <ele>433.756714</ele>
        <time>2012-05-13T11:01:18Z</time>
      </trkpt>
      <trkpt lat="47.44267" lon="6.69268">
        <ele>434.628265</ele>
        <time>2012-05-13T11:01:23Z</time>
      </trkpt>
      <trkpt lat="47.44264" lon="6.69275">
        <ele>435.124451</ele>
        <time>2012-05-13T11:01:26Z</time>
      </trkpt>
      <trkpt lat="47.44265" lon="6.69291">
        <ele>435.10611</ele>
        <time>2012-05-13T11:01:31Z</time>
      </trkpt>
      <trkpt lat="47.44276" lon="6.69302">
        <ele>434.274078</ele>
        <time>2012-05-13T11:01:36Z</time>
      </trkpt>
      <trkpt lat="47.44295" lon="6.69314">
        <ele>432.847198</ele>
        <time>2012-05-13T11:01:42Z</time>
      </trkpt>
      <trkpt lat="47.44304" lon="6.69325">
        <ele>431.88266</ele>
        <time>2012-05-13T11:01:46Z</time>
      </trkpt>
      <trkpt lat="47.44321" lon="6.69335">
        <ele>430.15451</ele>
        <time>2012-05-13T11:01:51Z</time>
      </trkpt>
      <trkpt lat="47.44339" lon="6.69342">
        <ele>428.293793</ele>
        <time>2012-05-13T11:01:56Z</time>
      </trkpt>
      <trkpt lat="47.44359" lon="6.69349">
        <ele>426.286438</ele>
        <time>2012-05-13T11:02:03Z</time>
      </trkpt>
      <trkpt lat="47.44366" lon="6.69358">
        <ele>426.23175</ele>
        <time>2012-05-13T11:02:07Z</time>
      </trkpt>
      <trkpt lat="47.44375" lon="6.69369">
        <ele>426.417877</ele>
        <time>2012-05-13T11:02:13Z</time>
      </trkpt>
      <trkpt lat="47.44392" lon="6.69391">
        <ele>426.710754</ele>
        <time>2012-05-13T11:02:21Z</time>
      </trkpt>
      <trkpt lat="47.44415" lon="6.69423">
        <ele>426.448364</ele>
        <time>2012-05-13T11:02:28Z</time>
      </trkpt>
      <trkpt lat="47.44438" lon="6.69455">
        <ele>426.168793</ele>
        <time>2012-05-13T11:02:35Z</time>
      </trkpt>
      <trkpt lat="47.44462" lon="6.6949">
        <ele>425.406006</ele>
        <time>2012-05-13T11:02:44Z</time>
      </trkpt>
      <trkpt lat="47.4448" lon="6.69504">
        <ele>424.206238</ele>
        <time>2012-05-13T11:02:49Z</time>
      </trkpt>
      <trkpt lat="47.44511" lon="6.69526">
        <ele>422.22821</ele>
        <time>2012-05-13T11:02:56Z</time>
      </trkpt>
      <trkpt lat="47.44549" lon="6.6955">
        <ele>420.350006</ele>
        <time>2012-05-13T11:03:04Z</time>
      </trkpt>
      <trkpt lat="47.44555" lon="6.69554">
        <ele>420.045013</ele>
        <time>2012-05-13T11:03:05Z</time>
      </trkpt>
      <trkpt lat="47.4458" lon="6.69575">
        <ele>419.470001</ele>
        <time>2012-05-13T11:03:11Z</time>
      </trkpt>
      <trkpt lat="47.44591" lon="6.69592">
        <ele>419.670013</ele>
        <time>2012-05-13T11:03:15Z</time>
      </trkpt>
      <trkpt lat="47.44618" lon="6.69604">
        <ele>419.168396</ele>
        <time>2012-05-13T11:03:20Z</time>
      </trkpt>
      <trkpt lat="47.44624" lon="6.69603">
        <ele>418.802917</ele>
        <time>2012-05-13T11:03:21Z</time>
      </trkpt>
      <trkpt lat="47.44649" lon="6.69596">
        <ele>417</ele>
        <time>2012-05-13T11:03:25Z</time>
      </trkpt>
      <trkpt lat="47.44683" lon="6.69601">
        <ele>415.797485</ele>
        <time>2012-05-13T11:03:30Z</time>
      </trkpt>
      <trkpt lat="47.4473" lon="6.69608">
        <ele>412.582794</ele>
        <time>2012-05-13T11:03:36Z</time>
      </trkpt>
      <trkpt lat="47.44764" lon="6.69609">
        <ele>408.494019</ele>
        <time>2012-05-13T11:03:40Z</time>
      </trkpt>
      <trkpt lat="47.44778" lon="6.69611">
        <ele>406.857849</ele>
        <time>2012-05-13T11:03:42Z</time>
      </trkpt>
      <trkpt lat="47.44813" lon="6.69625">
        <ele>402.337616</ele>
        <time>2012-05-13T11:03:48Z</time>
      </trkpt>
      <trkpt lat="47.44832" lon="6.69638">
        <ele>401.304993</ele>
        <time>2012-05-13T11:03:53Z</time>
      </trkpt>
      <trkpt lat="47.44854" lon="6.69646">
        <ele>400.910004</ele>
        <time>2012-05-13T11:03:59Z</time>
      </trkpt>
      <trkpt lat="47.44872" lon="6.69653">
        <ele>401.513306</ele>
        <time>2012-05-13T11:04:04Z</time>
      </trkpt>
      <trkpt lat="47.44875" lon="6.69651">
        <ele>401.627411</ele>
        <time>2012-05-13T11:04:05Z</time>
      </trkpt>
      <trkpt lat="47.44889" lon="6.69634">
        <ele>401.536255</ele>
        <time>2012-05-13T11:04:09Z</time>
      </trkpt>
      <trkpt lat="47.44893" lon="6.69625">
        <ele>401.457184</ele>
        <time>2012-05-13T11:04:11Z</time>
      </trkpt>
      <trkpt lat="47.44904" lon="6.69624">
        <ele>402.417603</ele>
        <time>2012-05-13T11:04:16Z</time>
      </trkpt>
      <trkpt lat="47.44913" lon="6.6962">
        <ele>402.80899</ele>
        <time>2012-05-13T11:04:21Z</time>
      </trkpt>
      <trkpt lat="47.44914" lon="6.69618">
        <ele>402.744141</ele>
        <time>2012-05-13T11:04:22Z</time>
      </trkpt>
      <trkpt lat="47.44925" lon="6.69613">
        <ele>402.418335</ele>
        <time>2012-05-13T11:04:29Z</time>
      </trkpt>
      <trkpt lat="47.44936" lon="6.69616">
        <ele>402.561951</ele>
        <time>2012-05-13T11:04:36Z</time>
      </trkpt>
      <trkpt lat="47.44937" lon="6.69616">
        <ele>402.568085</ele>
        <time>2012-05-13T11:04:37Z</time>
      </trkpt>
      <trkpt lat="47.4495" lon="6.69623">
        <ele>402.971039</ele>
        <time>2012-05-13T11:04:45Z</time>
      </trkpt>
      <trkpt lat="47.44957" lon="6.69626">
        <ele>402.949219</ele>
        <time>2012-05-13T11:04:49Z</time>
      </trkpt>
      <trkpt lat="47.44969" lon="6.69629">
        <ele>400.118073</ele>
        <time>2012-05-13T11:04:57Z</time>
      </trkpt>
      <trkpt lat="47.4497" lon="6.6963">
        <ele>399.79599</ele>
        <time>2012-05-13T11:04:58Z</time>
      </trkpt>
      <trkpt lat="47.44974" lon="6.69636">
        <ele>399.542633</ele>
        <time>2012-05-13T11:05:02Z</time>
      </trkpt>
      <trkpt lat="47.4498" lon="6.69654">
        <ele>400.300995</ele>
        <time>2012-05-13T11:05:10Z</time>
      </trkpt>
      <trkpt lat="47.44988" lon="6.69671">
        <ele>400.829163</ele>
        <time>2012-05-13T11:05:18Z</time>
      </trkpt>
      <trkpt lat="47.44991" lon="6.69685">
        <ele>402.407166</ele>
        <time>2012-05-13T11:05:23Z</time>
      </trkpt>
      <trkpt lat="47.45" lon="6.69703">
        <ele>403.43988</ele>
        <time>2012-05-13T11:05:29Z</time>
      </trkpt>
      <trkpt lat="47.45" lon="6.69718">
        <ele>405.482117</ele>
        <time>2012-05-13T11:05:34Z</time>
      </trkpt>
      <trkpt lat="47.45003" lon="6.69727">
        <ele>405.437073</ele>
        <time>2012-05-13T11:05:38Z</time>
      </trkpt>
      <trkpt lat="47.4501" lon="6.69744">
        <ele>404.416382</ele>
        <time>2012-05-13T11:05:45Z</time>
      </trkpt>
      <trkpt lat="47.45013" lon="6.69761">
        <ele>405.436554</ele>
        <time>2012-05-13T11:05:52Z</time>
      </trkpt>
      <trkpt lat="47.45022" lon="6.69781">
        <ele>405.253876</ele>
        <time>2012-05-13T11:05:59Z</time>
      </trkpt>
      <trkpt lat="47.45032" lon="6.69802">
        <ele>405.711304</ele>
        <time>2012-05-13T11:06:06Z</time>
      </trkpt>
      <trkpt lat="47.45036" lon="6.69812">
        <ele>406.144379</ele>
        <time>2012-05-13T11:06:10Z</time>
      </trkpt>
      <trkpt lat="47.45045" lon="6.69832">
        <ele>406.676636</ele>
        <time>2012-05-13T11:06:17Z</time>
      </trkpt>
      <trkpt lat="47.45051" lon="6.69847">
        <ele>407.442291</ele>
        <time>2012-05-13T11:06:22Z</time>
      </trkpt>
      <trkpt lat="47.45061" lon="6.69867">
        <ele>407.861938</ele>
        <time>2012-05-13T11:06:29Z</time>
      </trkpt>
      <trkpt lat="47.45066" lon="6.69882">
        <ele>408.686005</ele>
        <time>2012-05-13T11:06:33Z</time>
      </trkpt>
      <trkpt lat="47.45075" lon="6.69899">
        <ele>409.42453</ele>
        <time>2012-05-13T11:06:38Z</time>
      </trkpt>
      <trkpt lat="47.45082" lon="6.69917">
        <ele>410.714172</ele>
        <time>2012-05-13T11:06:43Z</time>
      </trkpt>
      <trkpt lat="47.45092" lon="6.69937">
        <ele>411.043823</ele>
        <time>2012-05-13T11:06:49Z</time>
      </trkpt>
      <trkpt lat="47.45103" lon="6.69959">
        <ele>411.471588</ele>
        <time>2012-05-13T11:06:56Z</time>
      </trkpt>
      <trkpt lat="47.45108" lon="6.69982">
        <ele>414.037445</ele>
        <time>2012-05-13T11:07:03Z</time>
      </trkpt>
      <trkpt lat="47.45113" lon="6.70002">
        <ele>416.096008</ele>
        <time>2012-05-13T11:07:10Z</time>
      </trkpt>
      <trkpt lat="47.45118" lon="6.70024">
        <ele>417.423676</ele>
        <time>2012-05-13T11:07:19Z</time>
      </trkpt>
      <trkpt lat="47.45122" lon="6.70041">
        <ele>418.478851</ele>
        <time>2012-05-13T11:07:26Z</time>
      </trkpt>
      <trkpt lat="47.45128" lon="6.70064">
        <ele>420.164978</ele>
        <time>2012-05-13T11:07:34Z</time>
      </trkpt>
      <trkpt lat="47.45133" lon="6.70073">
        <ele>420.119202</ele>
        <time>2012-05-13T11:07:38Z</time>
      </trkpt>
      <trkpt lat="47.45149" lon="6.70078">
        <ele>418.814301</ele>
        <time>2012-05-13T11:07:44Z</time>
      </trkpt>
      <trkpt lat="47.45165" lon="6.70083">
        <ele>417.278839</ele>
        <time>2012-05-13T11:07:48Z</time>
      </trkpt>
      <trkpt lat="47.45188" lon="6.70079">
        <ele>413.003357</ele>
        <time>2012-05-13T11:07:53Z</time>
      </trkpt>
      <trkpt lat="47.4521" lon="6.7008">
        <ele>409.058868</ele>
        <time>2012-05-13T11:07:58Z</time>
      </trkpt>
      <trkpt lat="47.45221" lon="6.70089">
        <ele>407.359772</ele>
        <time>2012-05-13T11:08:02Z</time>
      </trkpt>
      <trkpt lat="47.45234" lon="6.70098">
        <ele>405.735016</ele>
        <time>2012-05-13T11:08:07Z</time>
      </trkpt>
      <trkpt lat="47.45245" lon="6.7011">
        <ele>405.733673</ele>
        <time>2012-05-13T11:08:12Z</time>
      </trkpt>
      <trkpt lat="47.45263" lon="6.70136">
        <ele>407.506226</ele>
        <time>2012-05-13T11:08:19Z</time>
      </trkpt>
      <trkpt lat="47.45265" lon="6.70152">
        <ele>409.203339</ele>
        <time>2012-05-13T11:08:23Z</time>
      </trkpt>
      <trkpt lat="47.45272" lon="6.70167">
        <ele>409.185303</ele>
        <time>2012-05-13T11:08:28Z</time>
      </trkpt>
      <trkpt lat="47.45294" lon="6.70177">
        <ele>406.008759</ele>
        <time>2012-05-13T11:08:34Z</time>
      </trkpt>
      <trkpt lat="47.45317" lon="6.70186">
        <ele>401.631348</ele>
        <time>2012-05-13T11:08:39Z</time>
      </trkpt>
      <trkpt lat="47.45333" lon="6.70196">
        <ele>398.890961</ele>
        <time>2012-05-13T11:08:42Z</time>
      </trkpt>
      <trkpt lat="47.45348" lon="6.70212">
        <ele>397.264221</ele>
        <time>2012-05-13T11:08:45Z</time>
      </trkpt>
      <trkpt lat="47.45363" lon="6.70241">
        <ele>393.031128</ele>
        <time>2012-05-13T11:08:49Z</time>
      </trkpt>
      <trkpt lat="47.45369" lon="6.7025">
        <ele>390.967407</ele>
        <time>2012-05-13T11:08:51Z</time>
      </trkpt>
      <trkpt lat="47.45371" lon="6.70261">
        <ele>389.762024</ele>
        <time>2012-05-13T11:08:55Z</time>
      </trkpt>
      <trkpt lat="47.45365" lon="6.70274">
        <ele>390.261322</ele>
        <time>2012-05-13T11:09:01Z</time>
      </trkpt>
      <trkpt lat="47.45358" lon="6.70298">
        <ele>391.957367</ele>
        <time>2012-05-13T11:09:07Z</time>
      </trkpt>
      <trkpt lat="47.45362" lon="6.70329">
        <ele>391.367188</ele>
        <time>2012-05-13T11:09:14Z</time>
      </trkpt>
      <trkpt lat="47.45364" lon="6.70347">
        <ele>390.710724</ele>
        <time>2012-05-13T11:09:18Z</time>
      </trkpt>
      <trkpt lat="47.45368" lon="6.70379">
        <ele>392.45636</ele>
        <time>2012-05-13T11:09:25Z</time>
      </trkpt>
      <trkpt lat="47.45374" lon="6.70403">
        <ele>392.723938</ele>
        <time>2012-05-13T11:09:30Z</time>
      </trkpt>
      <trkpt lat="47.45384" lon="6.70433">
        <ele>394.878815</ele>
        <time>2012-05-13T11:09:37Z</time>
      </trkpt>
      <trkpt lat="47.45393" lon="6.70449">
        <ele>395.901398</ele>
        <time>2012-05-13T11:09:41Z</time>
      </trkpt>
      <trkpt lat="47.45408" lon="6.70458">
        <ele>393.823914</ele>
        <time>2012-05-13T11:09:45Z</time>
      </trkpt>
      <trkpt lat="47.45428" lon="6.70474">
        <ele>392.312012</ele>
        <time>2012-05-13T11:09:51Z</time>
      </trkpt>
      <trkpt lat="47.4544" lon="6.70479">
        <ele>390.998322</ele>
        <time>2012-05-13T11:09:54Z</time>
      </trkpt>
      <trkpt lat="47.45456" lon="6.70491">
        <ele>389.876984</ele>
        <time>2012-05-13T11:09:59Z</time>
      </trkpt>
      <trkpt lat="47.45472" lon="6.70498">
        <ele>389.112732</ele>
        <time>2012-05-13T11:10:04Z</time>
      </trkpt>
      <trkpt lat="47.45483" lon="6.70504">
        <ele>389.028015</ele>
        <time>2012-05-13T11:10:09Z</time>
      </trkpt>
      <trkpt lat="47.45495" lon="6.70515">
        <ele>389.594513</ele>
        <time>2012-05-13T11:10:15Z</time>
      </trkpt>
      <trkpt lat="47.45507" lon="6.70525">
        <ele>390.015015</ele>
        <time>2012-05-13T11:10:21Z</time>
      </trkpt>
      <trkpt lat="47.45523" lon="6.70537">
        <ele>391.184998</ele>
        <time>2012-05-13T11:10:28Z</time>
      </trkpt>
      <trkpt lat="47.45537" lon="6.70552">
        <ele>393.079987</ele>
        <time>2012-05-13T11:10:35Z</time>
      </trkpt>
      <trkpt lat="47.45552" lon="6.70562">
        <ele>393.96994</ele>
        <time>2012-05-13T11:10:41Z</time>
      </trkpt>
      <trkpt lat="47.45555" lon="6.70564">
        <ele>394.227509</ele>
        <time>2012-05-13T11:10:42Z</time>
      </trkpt>
      <trkpt lat="47.45565" lon="6.70569">
        <ele>395.251251</ele>
        <time>2012-05-13T11:10:47Z</time>
      </trkpt>
      <trkpt lat="47.45575" lon="6.70581">
        <ele>397.428741</ele>
        <time>2012-05-13T11:10:53Z</time>
      </trkpt>
      <trkpt lat="47.45584" lon="6.70589">
        <ele>398.663757</ele>
        <time>2012-05-13T11:10:58Z</time>
      </trkpt>
      <trkpt lat="47.45588" lon="6.70592">
        <ele>399.248749</ele>
        <time>2012-05-13T11:11:00Z</time>
      </trkpt>
      <trkpt lat="47.45591" lon="6.70595">
        <ele>399.801239</ele>
        <time>2012-05-13T11:11:02Z</time>
      </trkpt>
      <trkpt lat="47.45601" lon="6.70599">
        <ele>400.549683</ele>
        <time>2012-05-13T11:11:06Z</time>
      </trkpt>
      <trkpt lat="47.45611" lon="6.7061">
        <ele>402.784119</ele>
        <time>2012-05-13T11:11:12Z</time>
      </trkpt>
      <trkpt lat="47.45621" lon="6.70614">
        <ele>403.374573</ele>
        <time>2012-05-13T11:11:16Z</time>
      </trkpt>
      <trkpt lat="47.45631" lon="6.70611">
        <ele>402.839386</ele>
        <time>2012-05-13T11:11:21Z</time>
      </trkpt>
      <trkpt lat="47.45634" lon="6.70612">
        <ele>403.044952</ele>
        <time>2012-05-13T11:11:22Z</time>
      </trkpt>
      <trkpt lat="47.4565" lon="6.70623">
        <ele>403.545013</ele>
        <time>2012-05-13T11:11:29Z</time>
      </trkpt>
      <trkpt lat="47.45658" lon="6.70626">
        <ele>403.07959</ele>
        <time>2012-05-13T11:11:33Z</time>
      </trkpt>
      <trkpt lat="47.45671" lon="6.7064">
        <ele>403.439209</ele>
        <time>2012-05-13T11:11:40Z</time>
      </trkpt>
      <trkpt lat="47.45678" lon="6.70647">
        <ele>403.18866</ele>
        <time>2012-05-13T11:11:44Z</time>
      </trkpt>
      <trkpt lat="47.45684" lon="6.70656">
        <ele>402.929688</ele>
        <time>2012-05-13T11:11:48Z</time>
      </trkpt>
      <trkpt lat="47.45692" lon="6.70666">
        <ele>401.386902</ele>
        <time>2012-05-13T11:11:53Z</time>
      </trkpt>
      <trkpt lat="47.45696" lon="6.70677">
        <ele>400.844696</ele>
        <time>2012-05-13T11:11:57Z</time>
      </trkpt>
      <trkpt lat="47.45703" lon="6.70699">
        <ele>400</ele>
        <time>2012-05-13T11:12:06Z</time>
      </trkpt>
      <trkpt lat="47.45709" lon="6.70715">
        <ele>398.743073</ele>
        <time>2012-05-13T11:12:12Z</time>
      </trkpt>
      <trkpt lat="47.45711" lon="6.70726">
        <ele>397.77301</ele>
        <time>2012-05-13T11:12:17Z</time>
      </trkpt>
      <trkpt lat="47.45712" lon="6.70737">
        <ele>397.396667</ele>
        <time>2012-05-13T11:12:22Z</time>
      </trkpt>
      <trkpt lat="47.45713" lon="6.70755">
        <ele>396.582306</ele>
        <time>2012-05-13T11:12:28Z</time>
      </trkpt>
      <trkpt lat="47.45713" lon="6.70775">
        <ele>396.085907</ele>
        <time>2012-05-13T11:12:34Z</time>
      </trkpt>
      <trkpt lat="47.4571" lon="6.70795">
        <ele>394.57193</ele>
        <time>2012-05-13T11:12:41Z</time>
      </trkpt>
      <trkpt lat="47.45708" lon="6.70805">
        <ele>393.957764</ele>
        <time>2012-05-13T11:12:46Z</time>
      </trkpt>
      <trkpt lat="47.45704" lon="6.70817">
        <ele>393.983521</ele>
        <time>2012-05-13T11:12:51Z</time>
      </trkpt>
      <trkpt lat="47.457" lon="6.70832">
        <ele>393.672821</ele>
        <time>2012-05-13T11:12:57Z</time>
      </trkpt>
      <trkpt lat="47.45694" lon="6.70854">
        <ele>391.679993</ele>
        <time>2012-05-13T11:13:03Z</time>
      </trkpt>
      <trkpt lat="47.45687" lon="6.70872">
        <ele>390.743744</ele>
        <time>2012-05-13T11:13:10Z</time>
      </trkpt>
      <trkpt lat="47.45682" lon="6.70883">
        <ele>390.125</ele>
        <time>2012-05-13T11:13:14Z</time>
      </trkpt>
      <trkpt lat="47.45678" lon="6.70896">
        <ele>388.88501</ele>
        <time>2012-05-13T11:13:20Z</time>
      </trkpt>
      <trkpt lat="47.45678" lon="6.70897">
        <ele>388.730011</ele>
        <time>2012-05-13T11:13:21Z</time>
      </trkpt>
      <trkpt lat="47.45669" lon="6.70911">
        <ele>388.480621</ele>
        <time>2012-05-13T11:13:27Z</time>
      </trkpt>
      <trkpt lat="47.45663" lon="6.70916">
        <ele>389.142761</ele>
        <time>2012-05-13T11:13:31Z</time>
      </trkpt>
      <trkpt lat="47.45656" lon="6.70928">
        <ele>387.855011</ele>
        <time>2012-05-13T11:13:35Z</time>
      </trkpt>
      <trkpt lat="47.45649" lon="6.70934">
        <ele>388.049072</ele>
        <time>2012-05-13T11:13:38Z</time>
      </trkpt>
      <trkpt lat="47.45638" lon="6.70949">
        <ele>386.582123</ele>
        <time>2012-05-13T11:13:44Z</time>
      </trkpt>
      <trkpt lat="47.45627" lon="6.70957">
        <ele>386.823547</ele>
        <time>2012-05-13T11:13:49Z</time>
      </trkpt>
      <trkpt lat="47.45613" lon="6.70958">
        <ele>388.620392</ele>
        <time>2012-05-13T11:13:55Z</time>
      </trkpt>
      <trkpt lat="47.45601" lon="6.7095">
        <ele>392.843262</ele>
        <time>2012-05-13T11:14:00Z</time>
      </trkpt>
      <trkpt lat="47.45584" lon="6.70946">
        <ele>396.348877</ele>
        <time>2012-05-13T11:14:05Z</time>
      </trkpt>
      <trkpt lat="47.45574" lon="6.7094">
        <ele>398.540924</ele>
        <time>2012-05-13T11:14:09Z</time>
      </trkpt>
      <trkpt lat="47.45561" lon="6.7093">
        <ele>401.667206</ele>
        <time>2012-05-13T11:14:13Z</time>
      </trkpt>
      <trkpt lat="47.45551" lon="6.70919">
        <ele>405.143768</ele>
        <time>2012-05-13T11:14:18Z</time>
      </trkpt>
      <trkpt lat="47.45535" lon="6.70908">
        <ele>407.73587</ele>
        <time>2012-05-13T11:14:24Z</time>
      </trkpt>
      <trkpt lat="47.45515" lon="6.70906">
        <ele>405.44046</ele>
        <time>2012-05-13T11:14:29Z</time>
      </trkpt>
      <trkpt lat="47.45499" lon="6.70903">
        <ele>404.103424</ele>
        <time>2012-05-13T11:14:33Z</time>
      </trkpt>
      <trkpt lat="47.45484" lon="6.709">
        <ele>402.129761</ele>
        <time>2012-05-13T11:14:37Z</time>
      </trkpt>
      <trkpt lat="47.4547" lon="6.7089">
        <ele>402.130707</ele>
        <time>2012-05-13T11:14:42Z</time>
      </trkpt>
      <trkpt lat="47.45457" lon="6.7088">
        <ele>401.606812</ele>
        <time>2012-05-13T11:14:47Z</time>
      </trkpt>
      <trkpt lat="47.45444" lon="6.70861">
        <ele>403.657806</ele>
        <time>2012-05-13T11:14:53Z</time>
      </trkpt>
      <trkpt lat="47.45431" lon="6.70842">
        <ele>405.953613</ele>
        <time>2012-05-13T11:14:59Z</time>
      </trkpt>
      <trkpt lat="47.45422" lon="6.70828">
        <ele>408.088409</ele>
        <time>2012-05-13T11:15:04Z</time>
      </trkpt>
      <trkpt lat="47.45414" lon="6.70811">
        <ele>410.517578</ele>
        <time>2012-05-13T11:15:10Z</time>
      </trkpt>
      <trkpt lat="47.45403" lon="6.70797">
        <ele>410.603668</ele>
        <time>2012-05-13T11:15:16Z</time>
      </trkpt>
      <trkpt lat="47.45396" lon="6.70782">
        <ele>411.769989</ele>
        <time>2012-05-13T11:15:22Z</time>
      </trkpt>
      <trkpt lat="47.45389" lon="6.70766">
        <ele>413.374817</ele>
        <time>2012-05-13T11:15:28Z</time>
      </trkpt>
      <trkpt lat="47.45379" lon="6.70748">
        <ele>415.475189</ele>
        <time>2012-05-13T11:15:34Z</time>
      </trkpt>
      <trkpt lat="47.45369" lon="6.70729">
        <ele>415.697998</ele>
        <time>2012-05-13T11:15:40Z</time>
      </trkpt>
      <trkpt lat="47.45356" lon="6.70705">
        <ele>415.85495</ele>
        <time>2012-05-13T11:15:48Z</time>
      </trkpt>
      <trkpt lat="47.4535" lon="6.70694">
        <ele>415.905914</ele>
        <time>2012-05-13T11:15:52Z</time>
      </trkpt>
      <trkpt lat="47.45345" lon="6.70684">
        <ele>416.717743</ele>
        <time>2012-05-13T11:15:57Z</time>
      </trkpt>
      <trkpt lat="47.45344" lon="6.70675">
        <ele>417.612701</ele>
        <time>2012-05-13T11:16:02Z</time>
      </trkpt>
      <trkpt lat="47.45338" lon="6.70661">
        <ele>417.470398</ele>
        <time>2012-05-13T11:16:08Z</time>
      </trkpt>
      <trkpt lat="47.45335" lon="6.70654">
        <ele>417.489044</ele>
        <time>2012-05-13T11:16:13Z</time>
      </trkpt>
      <trkpt lat="47.45333" lon="6.70647">
        <ele>417.730865</ele>
        <time>2012-05-13T11:16:17Z</time>
      </trkpt>
      <trkpt lat="47.45328" lon="6.70636">
        <ele>418.000702</ele>
        <time>2012-05-13T11:16:22Z</time>
      </trkpt>
      <trkpt lat="47.45319" lon="6.70622">
        <ele>418.15799</ele>
        <time>2012-05-13T11:16:27Z</time>
      </trkpt>
      <trkpt lat="47.45313" lon="6.7061">
        <ele>418.432404</ele>
        <time>2012-05-13T11:16:31Z</time>
      </trkpt>
      <trkpt lat="47.45312" lon="6.70607">
        <ele>418.424744</ele>
        <time>2012-05-13T11:16:32Z</time>
      </trkpt>
      <trkpt lat="47.45304" lon="6.70594">
        <ele>417.667633</ele>
        <time>2012-05-13T11:16:39Z</time>
      </trkpt>
      <trkpt lat="47.45295" lon="6.70579">
        <ele>417.273285</ele>
        <time>2012-05-13T11:16:46Z</time>
      </trkpt>
      <trkpt lat="47.45291" lon="6.70575">
        <ele>417.214996</ele>
        <time>2012-05-13T11:16:48Z</time>
      </trkpt>
      <trkpt lat="47.45279" lon="6.70559">
        <ele>417.295807</ele>
        <time>2012-05-13T11:16:54Z</time>
      </trkpt>
      <trkpt lat="47.45272" lon="6.70551">
        <ele>417.098999</ele>
        <time>2012-05-13T11:16:57Z</time>
      </trkpt>
      <trkpt lat="47.45269" lon="6.70545">
        <ele>417.212952</ele>
        <time>2012-05-13T11:16:59Z</time>
      </trkpt>
      <trkpt lat="47.45257" lon="6.70539">
        <ele>416.609406</ele>
        <time>2012-05-13T11:17:05Z</time>
      </trkpt>
      <trkpt lat="47.45245" lon="6.70532">
        <ele>416.201752</ele>
        <time>2012-05-13T11:17:10Z</time>
      </trkpt>
      <trkpt lat="47.45232" lon="6.70519">
        <ele>416.309509</ele>
        <time>2012-05-13T11:17:16Z</time>
      </trkpt>
      <trkpt lat="47.45223" lon="6.70509">
        <ele>416.829254</ele>
        <time>2012-05-13T11:17:20Z</time>
      </trkpt>
      <trkpt lat="47.45214" lon="6.70493">
        <ele>418.306396</ele>
        <time>2012-05-13T11:17:25Z</time>
      </trkpt>
      <trkpt lat="47.45204" lon="6.70479">
        <ele>420.109985</ele>
        <time>2012-05-13T11:17:31Z</time>
      </trkpt>
      <trkpt lat="47.45203" lon="6.70477">
        <ele>420.381195</ele>
        <time>2012-05-13T11:17:32Z</time>
      </trkpt>
      <trkpt lat="47.45189" lon="6.70475">
        <ele>420.263763</ele>
        <time>2012-05-13T11:17:37Z</time>
      </trkpt>
      <trkpt lat="47.45177" lon="6.70475">
        <ele>419.792145</ele>
        <time>2012-05-13T11:17:39Z</time>
      </trkpt>
      <trkpt lat="47.45166" lon="6.70476">
        <ele>419.297089</ele>
        <time>2012-05-13T11:17:41Z</time>
      </trkpt>
      <trkpt lat="47.45146" lon="6.70488">
        <ele>416.823761</ele>
        <time>2012-05-13T11:17:45Z</time>
      </trkpt>
      <trkpt lat="47.45138" lon="6.70497">
        <ele>415.450012</ele>
        <time>2012-05-13T11:17:47Z</time>
      </trkpt>
      <trkpt lat="47.45124" lon="6.70516">
        <ele>412.298737</ele>
        <time>2012-05-13T11:17:51Z</time>
      </trkpt>
      <trkpt lat="47.45097" lon="6.70541">
        <ele>410.452515</ele>
        <time>2012-05-13T11:17:57Z</time>
      </trkpt>
      <trkpt lat="47.45084" lon="6.70562">
        <ele>409.753113</ele>
        <time>2012-05-13T11:18:01Z</time>
      </trkpt>
      <trkpt lat="47.45079" lon="6.70574">
        <ele>409.029297</ele>
        <time>2012-05-13T11:18:03Z</time>
      </trkpt>
      <trkpt lat="47.45076" lon="6.70605">
        <ele>410.029205</ele>
        <time>2012-05-13T11:18:08Z</time>
      </trkpt>
      <trkpt lat="47.45075" lon="6.70611">
        <ele>410.700806</ele>
        <time>2012-05-13T11:18:09Z</time>
      </trkpt>
      <trkpt lat="47.45074" lon="6.7063">
        <ele>413.183929</ele>
        <time>2012-05-13T11:18:14Z</time>
      </trkpt>
      <trkpt lat="47.45082" lon="6.70644">
        <ele>415.275574</ele>
        <time>2012-05-13T11:18:19Z</time>
      </trkpt>
      <trkpt lat="47.45094" lon="6.7067">
        <ele>418.799988</ele>
        <time>2012-05-13T11:18:28Z</time>
      </trkpt>
      <trkpt lat="47.45105" lon="6.70684">
        <ele>420.492126</ele>
        <time>2012-05-13T11:18:35Z</time>
      </trkpt>
      <trkpt lat="47.45119" lon="6.70694">
        <ele>421.902008</ele>
        <time>2012-05-13T11:18:42Z</time>
      </trkpt>
      <trkpt lat="47.45125" lon="6.70709">
        <ele>423.24173</ele>
        <time>2012-05-13T11:18:48Z</time>
      </trkpt>
      <trkpt lat="47.45127" lon="6.70733">
        <ele>424.704987</ele>
        <time>2012-05-13T11:18:56Z</time>
      </trkpt>
      <trkpt lat="47.45124" lon="6.70754">
        <ele>425.502502</ele>
        <time>2012-05-13T11:19:03Z</time>
      </trkpt>
      <trkpt lat="47.4512" lon="6.70764">
        <ele>425.816986</ele>
        <time>2012-05-13T11:19:08Z</time>
      </trkpt>
      <trkpt lat="47.45116" lon="6.70776">
        <ele>426.308105</ele>
        <time>2012-05-13T11:19:14Z</time>
      </trkpt>
      <trkpt lat="47.45113" lon="6.70793">
        <ele>427.084991</ele>
        <time>2012-05-13T11:19:20Z</time>
      </trkpt>
      <trkpt lat="47.45118" lon="6.70807">
        <ele>427.929993</ele>
        <time>2012-05-13T11:19:27Z</time>
      </trkpt>
      <trkpt lat="47.4512" lon="6.70816">
        <ele>428.440002</ele>
        <time>2012-05-13T11:19:32Z</time>
      </trkpt>
      <trkpt lat="47.45125" lon="6.70836">
        <ele>429.595001</ele>
        <time>2012-05-13T11:19:39Z</time>
      </trkpt>
      <trkpt lat="47.45131" lon="6.7085">
        <ele>430.429993</ele>
        <time>2012-05-13T11:19:45Z</time>
      </trkpt>
      <trkpt lat="47.45138" lon="6.70864">
        <ele>430.927002</ele>
        <time>2012-05-13T11:19:51Z</time>
      </trkpt>
      <trkpt lat="47.4514" lon="6.7087">
        <ele>431.00531</ele>
        <time>2012-05-13T11:19:53Z</time>
      </trkpt>
      <trkpt lat="47.45145" lon="6.70878">
        <ele>431.090942</ele>
        <time>2012-05-13T11:19:57Z</time>
      </trkpt>
      <trkpt lat="47.45156" lon="6.70898">
        <ele>431.375061</ele>
        <time>2012-05-13T11:20:04Z</time>
      </trkpt>
      <trkpt lat="47.45168" lon="6.70925">
        <ele>432.160187</ele>
        <time>2012-05-13T11:20:13Z</time>
      </trkpt>
      <trkpt lat="47.45178" lon="6.70951">
        <ele>432.623749</ele>
        <time>2012-05-13T11:20:22Z</time>
      </trkpt>
      <trkpt lat="47.45186" lon="6.70967">
        <ele>432.112061</ele>
        <time>2012-05-13T11:20:28Z</time>
      </trkpt>
      <trkpt lat="47.45188" lon="6.70973">
        <ele>432.132599</ele>
        <time>2012-05-13T11:20:30Z</time>
      </trkpt>
      <trkpt lat="47.45196" lon="6.70994">
        <ele>432.34668</ele>
        <time>2012-05-13T11:20:37Z</time>
      </trkpt>
      <trkpt lat="47.45204" lon="6.71019">
        <ele>432.675079</ele>
        <time>2012-05-13T11:20:44Z</time>
      </trkpt>
      <trkpt lat="47.4521" lon="6.71042">
        <ele>433.303375</ele>
        <time>2012-05-13T11:20:51Z</time>
      </trkpt>
      <trkpt lat="47.45215" lon="6.71048">
        <ele>433.089264</ele>
        <time>2012-05-13T11:20:56Z</time>
      </trkpt>
      <trkpt lat="47.4522" lon="6.71044">
        <ele>432.15155</ele>
        <time>2012-05-13T11:20:59Z</time>
      </trkpt>
      <trkpt lat="47.4523" lon="6.71024">
        <ele>429.041382</ele>
        <time>2012-05-13T11:21:04Z</time>
      </trkpt>
      <trkpt lat="47.45234" lon="6.71017">
        <ele>427.822998</ele>
        <time>2012-05-13T11:21:06Z</time>
      </trkpt>
      <trkpt lat="47.4525" lon="6.71014">
        <ele>424.131195</ele>
        <time>2012-05-13T11:21:12Z</time>
      </trkpt>
      <trkpt lat="47.45261" lon="6.71013">
        <ele>421.772308</ele>
        <time>2012-05-13T11:21:16Z</time>
      </trkpt>
      <trkpt lat="47.45278" lon="6.71017">
        <ele>415.847198</ele>
        <time>2012-05-13T11:21:21Z</time>
      </trkpt>
      <trkpt lat="47.45289" lon="6.71035">
        <ele>414.713501</ele>
        <time>2012-05-13T11:21:26Z</time>
      </trkpt>
      <trkpt lat="47.45299" lon="6.71055">
        <ele>415.063599</ele>
        <time>2012-05-13T11:21:31Z</time>
      </trkpt>
      <trkpt lat="47.45312" lon="6.71074">
        <ele>414.625</ele>
        <time>2012-05-13T11:21:36Z</time>
      </trkpt>
      <trkpt lat="47.45325" lon="6.71097">
        <ele>412.505188</ele>
        <time>2012-05-13T11:21:42Z</time>
      </trkpt>
      <trkpt lat="47.4533" lon="6.71107">
        <ele>412.435211</ele>
        <time>2012-05-13T11:21:46Z</time>
      </trkpt>
      <trkpt lat="47.45338" lon="6.71123">
        <ele>412.920593</ele>
        <time>2012-05-13T11:21:50Z</time>
      </trkpt>
      <trkpt lat="47.45343" lon="6.71133">
        <ele>413.35141</ele>
        <time>2012-05-13T11:21:52Z</time>
      </trkpt>
      <trkpt lat="47.4536" lon="6.71154">
        <ele>410.794556</ele>
        <time>2012-05-13T11:21:56Z</time>
      </trkpt>
      <trkpt lat="47.45377" lon="6.71186">
        <ele>410.261444</ele>
        <time>2012-05-13T11:22:01Z</time>
      </trkpt>
      <trkpt lat="47.45382" lon="6.71199">
        <ele>411.601685</ele>
        <time>2012-05-13T11:22:03Z</time>
      </trkpt>
      <trkpt lat="47.45397" lon="6.71239">
        <ele>413.809753</ele>
        <time>2012-05-13T11:22:10Z</time>
      </trkpt>
      <trkpt lat="47.45405" lon="6.71266">
        <ele>414.920654</ele>
        <time>2012-05-13T11:22:15Z</time>
      </trkpt>
      <trkpt lat="47.45414" lon="6.71283">
        <ele>414.818848</ele>
        <time>2012-05-13T11:22:19Z</time>
      </trkpt>
      <trkpt lat="47.45423" lon="6.71308">
        <ele>415.284943</ele>
        <time>2012-05-13T11:22:24Z</time>
      </trkpt>
      <trkpt lat="47.45438" lon="6.71329">
        <ele>413.7258</ele>
        <time>2012-05-13T11:22:29Z</time>
      </trkpt>
      <trkpt lat="47.45442" lon="6.71333">
        <ele>412.917511</ele>
        <time>2012-05-13T11:22:30Z</time>
      </trkpt>
      <trkpt lat="47.45457" lon="6.71349">
        <ele>409.487305</ele>
        <time>2012-05-13T11:22:33Z</time>
      </trkpt>
      <trkpt lat="47.45467" lon="6.71363">
        <ele>407.694824</ele>
        <time>2012-05-13T11:22:35Z</time>
      </trkpt>
      <trkpt lat="47.45479" lon="6.71383">
        <ele>405.841919</ele>
        <time>2012-05-13T11:22:38Z</time>
      </trkpt>
      <trkpt lat="47.4549" lon="6.71418">
        <ele>406.02301</ele>
        <time>2012-05-13T11:22:44Z</time>
      </trkpt>
      <trkpt lat="47.45493" lon="6.71437">
        <ele>406.034851</ele>
        <time>2012-05-13T11:22:48Z</time>
      </trkpt>
      <trkpt lat="47.45495" lon="6.71459">
        <ele>407.312317</ele>
        <time>2012-05-13T11:22:53Z</time>
      </trkpt>
      <trkpt lat="47.45495" lon="6.71465">
        <ele>408.069672</ele>
        <time>2012-05-13T11:22:54Z</time>
      </trkpt>
      <trkpt lat="47.45498" lon="6.71502">
        <ele>408.775269</ele>
        <time>2012-05-13T11:23:01Z</time>
      </trkpt>
      <trkpt lat="47.45499" lon="6.71525">
        <ele>408.573303</ele>
        <time>2012-05-13T11:23:05Z</time>
      </trkpt>
      <trkpt lat="47.45498" lon="6.71539">
        <ele>408.781219</ele>
        <time>2012-05-13T11:23:07Z</time>
      </trkpt>
      <trkpt lat="47.455" lon="6.71554">
        <ele>408.700012</ele>
        <time>2012-05-13T11:23:09Z</time>
      </trkpt>
      <trkpt lat="47.45504" lon="6.71573">
        <ele>409.237244</ele>
        <time>2012-05-13T11:23:11Z</time>
      </trkpt>
      <trkpt lat="47.45516" lon="6.71592">
        <ele>408.806</ele>
        <time>2012-05-13T11:23:15Z</time>
      </trkpt>
      <trkpt lat="47.4552" lon="6.71603">
        <ele>409.629211</ele>
        <time>2012-05-13T11:23:18Z</time>
      </trkpt>
      <trkpt lat="47.45519" lon="6.71616">
        <ele>411.169861</ele>
        <time>2012-05-13T11:23:23Z</time>
      </trkpt>
      <trkpt lat="47.45517" lon="6.7162">
        <ele>411.647491</ele>
        <time>2012-05-13T11:23:28Z</time>
      </trkpt>
      <trkpt lat="47.45512" lon="6.71626">
        <ele>412.470886</ele>
        <time>2012-05-13T11:23:33Z</time>
      </trkpt>
      <trkpt lat="47.4551" lon="6.7163">
        <ele>412.957397</ele>
        <time>2012-05-13T11:23:35Z</time>
      </trkpt>
      <trkpt lat="47.45506" lon="6.71643">
        <ele>414.727692</ele>
        <time>2012-05-13T11:23:42Z</time>
      </trkpt>
      <trkpt lat="47.45506" lon="6.71649">
        <ele>415.319214</ele>
        <time>2012-05-13T11:23:44Z</time>
      </trkpt>
      <trkpt lat="47.45513" lon="6.71663">
        <ele>416.36969</ele>
        <time>2012-05-13T11:23:51Z</time>
      </trkpt>
      <trkpt lat="47.45522" lon="6.71667">
        <ele>416.688599</ele>
        <time>2012-05-13T11:23:57Z</time>
      </trkpt>
      <trkpt lat="47.45532" lon="6.71673">
        <ele>417.095612</ele>
        <time>2012-05-13T11:24:01Z</time>
      </trkpt>
      <trkpt lat="47.45539" lon="6.71677">
        <ele>417.485168</ele>
        <time>2012-05-13T11:24:03Z</time>
      </trkpt>
      <trkpt lat="47.45561" lon="6.71679">
        <ele>418.252808</ele>
        <time>2012-05-13T11:24:08Z</time>
      </trkpt>
      <trkpt lat="47.45572" lon="6.71674">
        <ele>418.670502</ele>
        <time>2012-05-13T11:24:11Z</time>
      </trkpt>
      <trkpt lat="47.45592" lon="6.71663">
        <ele>419.771088</ele>
        <time>2012-05-13T11:24:16Z</time>
      </trkpt>
      <trkpt lat="47.45605" lon="6.71654">
        <ele>420.420441</ele>
        <time>2012-05-13T11:24:22Z</time>
      </trkpt>
      <trkpt lat="47.45612" lon="6.71649">
        <ele>420.757172</ele>
        <time>2012-05-13T11:24:28Z</time>
      </trkpt>
      <trkpt lat="47.45622" lon="6.71641">
        <ele>421.173279</ele>
        <time>2012-05-13T11:24:35Z</time>
      </trkpt>
      <trkpt lat="47.45631" lon="6.7163">
        <ele>421.250092</ele>
        <time>2012-05-13T11:24:40Z</time>
      </trkpt>
      <trkpt lat="47.45636" lon="6.71621">
        <ele>420.938843</ele>
        <time>2012-05-13T11:24:44Z</time>
      </trkpt>
      <trkpt lat="47.45642" lon="6.71607">
        <ele>420.224762</ele>
        <time>2012-05-13T11:24:50Z</time>
      </trkpt>
      <trkpt lat="47.45644" lon="6.71595">
        <ele>419.150238</ele>
        <time>2012-05-13T11:24:54Z</time>
      </trkpt>
      <trkpt lat="47.45646" lon="6.71579">
        <ele>417.966949</ele>
        <time>2012-05-13T11:24:58Z</time>
      </trkpt>
      <trkpt lat="47.45648" lon="6.71551">
        <ele>415.350403</ele>
        <time>2012-05-13T11:25:04Z</time>
      </trkpt>
      <trkpt lat="47.4565" lon="6.71533">
        <ele>413.549988</ele>
        <time>2012-05-13T11:25:08Z</time>
      </trkpt>
      <trkpt lat="47.45652" lon="6.71515">
        <ele>411.720001</ele>
        <time>2012-05-13T11:25:14Z</time>
      </trkpt>
      <trkpt lat="47.4566" lon="6.71494">
        <ele>408.998322</ele>
        <time>2012-05-13T11:25:19Z</time>
      </trkpt>
      <trkpt lat="47.45665" lon="6.71477">
        <ele>405.563202</ele>
        <time>2012-05-13T11:25:22Z</time>
      </trkpt>
      <trkpt lat="47.45673" lon="6.71464">
        <ele>403.581238</ele>
        <time>2012-05-13T11:25:26Z</time>
      </trkpt>
      <trkpt lat="47.45681" lon="6.71453">
        <ele>402.021576</ele>
        <time>2012-05-13T11:25:30Z</time>
      </trkpt>
      <trkpt lat="47.45684" lon="6.71452">
        <ele>402.097504</ele>
        <time>2012-05-13T11:25:31Z</time>
      </trkpt>
      <trkpt lat="47.45699" lon="6.71447">
        <ele>402.667511</ele>
        <time>2012-05-13T11:25:36Z</time>
      </trkpt>
      <trkpt lat="47.4572" lon="6.7144">
        <ele>402.616302</ele>
        <time>2012-05-13T11:25:43Z</time>
      </trkpt>
      <trkpt lat="47.45735" lon="6.71436">
        <ele>402.15033</ele>
        <time>2012-05-13T11:25:49Z</time>
      </trkpt>
      <trkpt lat="47.45753" lon="6.71436">
        <ele>403.345184</ele>
        <time>2012-05-13T11:25:56Z</time>
      </trkpt>
      <trkpt lat="47.45762" lon="6.71436">
        <ele>404.205444</ele>
        <time>2012-05-13T11:26:00Z</time>
      </trkpt>
      <trkpt lat="47.45774" lon="6.71442">
        <ele>406.480499</ele>
        <time>2012-05-13T11:26:07Z</time>
      </trkpt>
      <trkpt lat="47.45788" lon="6.71441">
        <ele>407.332855</ele>
        <time>2012-05-13T11:26:13Z</time>
      </trkpt>
      <trkpt lat="47.45803" lon="6.71445">
        <ele>408.765411</ele>
        <time>2012-05-13T11:26:20Z</time>
      </trkpt>
      <trkpt lat="47.45813" lon="6.71446">
        <ele>409.481903</ele>
        <time>2012-05-13T11:26:26Z</time>
      </trkpt>
      <trkpt lat="47.45826" lon="6.71441">
        <ele>409.38031</ele>
        <time>2012-05-13T11:26:33Z</time>
      </trkpt>
      <trkpt lat="47.45836" lon="6.71442">
        <ele>410.13269</ele>
        <time>2012-05-13T11:26:39Z</time>
      </trkpt>
      <trkpt lat="47.4585" lon="6.7144">
        <ele>410.39856</ele>
        <time>2012-05-13T11:26:44Z</time>
      </trkpt>
      <trkpt lat="47.45872" lon="6.71434">
        <ele>410.275055</ele>
        <time>2012-05-13T11:26:50Z</time>
      </trkpt>
      <trkpt lat="47.45889" lon="6.71426">
        <ele>409.290863</ele>
        <time>2012-05-13T11:26:55Z</time>
      </trkpt>
      <trkpt lat="47.45902" lon="6.7142">
        <ele>408.440155</ele>
        <time>2012-05-13T11:27:00Z</time>
      </trkpt>
      <trkpt lat="47.45912" lon="6.71421">
        <ele>408.415497</ele>
        <time>2012-05-13T11:27:05Z</time>
      </trkpt>
      <trkpt lat="47.45918" lon="6.71422">
        <ele>408.509064</ele>
        <time>2012-05-13T11:27:09Z</time>
      </trkpt>
      <trkpt lat="47.45932" lon="6.71425">
        <ele>408.011841</ele>
        <time>2012-05-13T11:27:18Z</time>
      </trkpt>
      <trkpt lat="47.45933" lon="6.71426">
        <ele>407.967743</ele>
        <time>2012-05-13T11:27:19Z</time>
      </trkpt>
      <trkpt lat="47.45935" lon="6.71432">
        <ele>408.37915</ele>
        <time>2012-05-13T11:27:23Z</time>
      </trkpt>
      <trkpt lat="47.45931" lon="6.71437">
        <ele>409.157623</ele>
        <time>2012-05-13T11:27:27Z</time>
      </trkpt>
      <trkpt lat="47.45925" lon="6.71452">
        <ele>411.258209</ele>
        <time>2012-05-13T11:27:35Z</time>
      </trkpt>
      <trkpt lat="47.45926" lon="6.71469">
        <ele>411.780548</ele>
        <time>2012-05-13T11:27:42Z</time>
      </trkpt>
      <trkpt lat="47.45926" lon="6.71472">
        <ele>411.734283</ele>
        <time>2012-05-13T11:27:43Z</time>
      </trkpt>
      <trkpt lat="47.45929" lon="6.71481">
        <ele>411.481873</ele>
        <time>2012-05-13T11:27:47Z</time>
      </trkpt>
      <trkpt lat="47.4593" lon="6.71509">
        <ele>411.492096</ele>
        <time>2012-05-13T11:27:57Z</time>
      </trkpt>
      <trkpt lat="47.4593" lon="6.71534">
        <ele>411.971008</ele>
        <time>2012-05-13T11:28:06Z</time>
      </trkpt>
      <trkpt lat="47.45924" lon="6.71554">
        <ele>413.434387</ele>
        <time>2012-05-13T11:28:14Z</time>
      </trkpt>
      <trkpt lat="47.45913" lon="6.71573">
        <ele>415.874115</ele>
        <time>2012-05-13T11:28:22Z</time>
      </trkpt>
      <trkpt lat="47.45913" lon="6.71585">
        <ele>416.41394</ele>
        <time>2012-05-13T11:28:26Z</time>
      </trkpt>
      <trkpt lat="47.45918" lon="6.71608">
        <ele>417.24118</ele>
        <time>2012-05-13T11:28:35Z</time>
      </trkpt>
      <trkpt lat="47.4592" lon="6.71619">
        <ele>417.468872</ele>
        <time>2012-05-13T11:28:41Z</time>
      </trkpt>
      <trkpt lat="47.45921" lon="6.7163">
        <ele>417.769043</ele>
        <time>2012-05-13T11:28:47Z</time>
      </trkpt>
      <trkpt lat="47.45922" lon="6.71632">
        <ele>417.775085</ele>
        <time>2012-05-13T11:28:48Z</time>
      </trkpt>
      <trkpt lat="47.45922" lon="6.71643">
        <ele>418.429108</ele>
        <time>2012-05-13T11:28:55Z</time>
      </trkpt>
      <trkpt lat="47.45921" lon="6.71655">
        <ele>419.463684</ele>
        <time>2012-05-13T11:29:02Z</time>
      </trkpt>
      <trkpt lat="47.4592" lon="6.71666">
        <ele>420.375153</ele>
        <time>2012-05-13T11:29:08Z</time>
      </trkpt>
      <trkpt lat="47.45919" lon="6.71684">
        <ele>421.554382</ele>
        <time>2012-05-13T11:29:17Z</time>
      </trkpt>
      <trkpt lat="47.4592" lon="6.71692">
        <ele>421.885834</ele>
        <time>2012-05-13T11:29:23Z</time>
      </trkpt>
      <trkpt lat="47.4592" lon="6.71703">
        <ele>422.405762</ele>
        <time>2012-05-13T11:29:29Z</time>
      </trkpt>
      <trkpt lat="47.45928" lon="6.71721">
        <ele>421.014008</ele>
        <time>2012-05-13T11:29:37Z</time>
      </trkpt>
      <trkpt lat="47.45936" lon="6.71744">
        <ele>418.735382</ele>
        <time>2012-05-13T11:29:42Z</time>
      </trkpt>
      <trkpt lat="47.45937" lon="6.71771">
        <ele>418.822388</ele>
        <time>2012-05-13T11:29:46Z</time>
      </trkpt>
      <trkpt lat="47.4594" lon="6.71792">
        <ele>418.43985</ele>
        <time>2012-05-13T11:29:50Z</time>
      </trkpt>
      <trkpt lat="47.45944" lon="6.71817">
        <ele>418.200317</ele>
        <time>2012-05-13T11:29:54Z</time>
      </trkpt>
      <trkpt lat="47.45944" lon="6.71843">
        <ele>419.118958</ele>
        <time>2012-05-13T11:29:59Z</time>
      </trkpt>
      <trkpt lat="47.45941" lon="6.71862">
        <ele>420.572815</ele>
        <time>2012-05-13T11:30:05Z</time>
      </trkpt>
      <trkpt lat="47.45941" lon="6.71868">
        <ele>420.924683</ele>
        <time>2012-05-13T11:30:07Z</time>
      </trkpt>
      <trkpt lat="47.4594" lon="6.71891">
        <ele>421.675629</ele>
        <time>2012-05-13T11:30:15Z</time>
      </trkpt>
      <trkpt lat="47.45939" lon="6.71906">
        <ele>422.130585</ele>
        <time>2012-05-13T11:30:21Z</time>
      </trkpt>
      <trkpt lat="47.45941" lon="6.71923">
        <ele>422.091034</ele>
        <time>2012-05-13T11:30:28Z</time>
      </trkpt>
      <trkpt lat="47.4594" lon="6.71924">
        <ele>422.171143</ele>
        <time>2012-05-13T11:30:29Z</time>
      </trkpt>
      <trkpt lat="47.4594" lon="6.71931">
        <ele>422.399994</ele>
        <time>2012-05-13T11:30:32Z</time>
      </trkpt>
      <trkpt lat="47.45941" lon="6.71943">
        <ele>422.76236</ele>
        <time>2012-05-13T11:30:37Z</time>
      </trkpt>
      <trkpt lat="47.4594" lon="6.71945">
        <ele>422.885773</ele>
        <time>2012-05-13T11:30:38Z</time>
      </trkpt>
      <trkpt lat="47.45941" lon="6.71956">
        <ele>423.166687</ele>
        <time>2012-05-13T11:30:43Z</time>
      </trkpt>
      <trkpt lat="47.45941" lon="6.71967">
        <ele>423.356567</ele>
        <time>2012-05-13T11:30:48Z</time>
      </trkpt>
      <trkpt lat="47.45942" lon="6.71986">
        <ele>423.711517</ele>
        <time>2012-05-13T11:30:56Z</time>
      </trkpt>
      <trkpt lat="47.45944" lon="6.71997">
        <ele>423.676453</ele>
        <time>2012-05-13T11:31:01Z</time>
      </trkpt>
      <trkpt lat="47.45949" lon="6.72003">
        <ele>422.269958</ele>
        <time>2012-05-13T11:31:08Z</time>
      </trkpt>
      <trkpt lat="47.45952" lon="6.72008">
        <ele>421.86319</ele>
        <time>2012-05-13T11:31:19Z</time>
      </trkpt>
      <trkpt lat="47.45957" lon="6.72009">
        <ele>420.838806</ele>
        <time>2012-05-13T11:31:23Z</time>
      </trkpt>
      <trkpt lat="47.45961" lon="6.72017">
        <ele>420.427551</ele>
        <time>2012-05-13T11:31:28Z</time>
      </trkpt>
      <trkpt lat="47.45967" lon="6.72029">
        <ele>419.568726</ele>
        <time>2012-05-13T11:31:33Z</time>
      </trkpt>
      <trkpt lat="47.45972" lon="6.72047">
        <ele>419.058807</ele>
        <time>2012-05-13T11:31:38Z</time>
      </trkpt>
      <trkpt lat="47.45975" lon="6.72069">
        <ele>418.854187</ele>
        <time>2012-05-13T11:31:43Z</time>
      </trkpt>
      <trkpt lat="47.45976" lon="6.72088">
        <ele>419.441162</ele>
        <time>2012-05-13T11:31:48Z</time>
      </trkpt>
      <trkpt lat="47.45975" lon="6.72102">
        <ele>420.217621</ele>
        <time>2012-05-13T11:31:54Z</time>
      </trkpt>
      <trkpt lat="47.45975" lon="6.72113">
        <ele>420.440735</ele>
        <time>2012-05-13T11:31:59Z</time>
      </trkpt>
      <trkpt lat="47.45987" lon="6.7212">
        <ele>416.901245</ele>
        <time>2012-05-13T11:32:06Z</time>
      </trkpt>
      <trkpt lat="47.46" lon="6.72126">
        <ele>414.040009</ele>
        <time>2012-05-13T11:32:11Z</time>
      </trkpt>
      <trkpt lat="47.4601" lon="6.72125">
        <ele>411.790009</ele>
        <time>2012-05-13T11:32:15Z</time>
      </trkpt>
      <trkpt lat="47.46026" lon="6.72117">
        <ele>408.152496</ele>
        <time>2012-05-13T11:32:20Z</time>
      </trkpt>
      <trkpt lat="47.46046" lon="6.72116">
        <ele>402.902496</ele>
        <time>2012-05-13T11:32:27Z</time>
      </trkpt>
      <trkpt lat="47.46056" lon="6.72121">
        <ele>400.265015</ele>
        <time>2012-05-13T11:32:31Z</time>
      </trkpt>
      <trkpt lat="47.46062" lon="6.72123">
        <ele>398.894989</ele>
        <time>2012-05-13T11:32:33Z</time>
      </trkpt>
      <trkpt lat="47.46076" lon="6.72119">
        <ele>395.070007</ele>
        <time>2012-05-13T11:32:38Z</time>
      </trkpt>
      <trkpt lat="47.46096" lon="6.72117">
        <ele>389.488007</ele>
        <time>2012-05-13T11:32:44Z</time>
      </trkpt>
      <trkpt lat="47.461" lon="6.72113">
        <ele>388.232971</ele>
        <time>2012-05-13T11:32:46Z</time>
      </trkpt>
      <trkpt lat="47.46104" lon="6.72108">
        <ele>387.115601</ele>
        <time>2012-05-13T11:32:49Z</time>
      </trkpt>
      <trkpt lat="47.46104" lon="6.72101">
        <ele>387.210205</ele>
        <time>2012-05-13T11:32:52Z</time>
      </trkpt>
      <trkpt lat="47.46103" lon="6.72098">
        <ele>387.408813</ele>
        <time>2012-05-13T11:32:54Z</time>
      </trkpt>
      <trkpt lat="47.46099" lon="6.72092">
        <ele>388.320709</ele>
        <time>2012-05-13T11:32:58Z</time>
      </trkpt>
      <trkpt lat="47.46098" lon="6.72086">
        <ele>388.693207</ele>
        <time>2012-05-13T11:33:01Z</time>
      </trkpt>
      <trkpt lat="47.46098" lon="6.72075">
        <ele>388.662506</ele>
        <time>2012-05-13T11:33:06Z</time>
      </trkpt>
      <trkpt lat="47.46097" lon="6.72063">
        <ele>388.690399</ele>
        <time>2012-05-13T11:33:10Z</time>
      </trkpt>
      <trkpt lat="47.46097" lon="6.72053">
        <ele>388.517487</ele>
        <time>2012-05-13T11:33:14Z</time>
      </trkpt>
      <trkpt lat="47.461" lon="6.72036">
        <ele>387.611725</ele>
        <time>2012-05-13T11:33:19Z</time>
      </trkpt>
      <trkpt lat="47.46096" lon="6.72023">
        <ele>388.176544</ele>
        <time>2012-05-13T11:33:24Z</time>
      </trkpt>
      <trkpt lat="47.46092" lon="6.72012">
        <ele>389.093689</ele>
        <time>2012-05-13T11:33:29Z</time>
      </trkpt>
      <trkpt lat="47.4609" lon="6.72009">
        <ele>389.308167</ele>
        <time>2012-05-13T11:33:31Z</time>
      </trkpt>
      <trkpt lat="47.46088" lon="6.71989">
        <ele>389.134308</ele>
        <time>2012-05-13T11:33:37Z</time>
      </trkpt>
      <trkpt lat="47.46087" lon="6.7198">
        <ele>389.260925</ele>
        <time>2012-05-13T11:33:40Z</time>
      </trkpt>
      <trkpt lat="47.46082" lon="6.71962">
        <ele>389.684387</ele>
        <time>2012-05-13T11:33:46Z</time>
      </trkpt>
      <trkpt lat="47.46078" lon="6.71948">
        <ele>389.863007</ele>
        <time>2012-05-13T11:33:52Z</time>
      </trkpt>
      <trkpt lat="47.46078" lon="6.71945">
        <ele>389.828186</ele>
        <time>2012-05-13T11:33:53Z</time>
      </trkpt>
      <trkpt lat="47.46085" lon="6.71936">
        <ele>387.943359</ele>
        <time>2012-05-13T11:33:58Z</time>
      </trkpt>
      <trkpt lat="47.46105" lon="6.71934">
        <ele>383.848755</ele>
        <time>2012-05-13T11:34:05Z</time>
      </trkpt>
      <trkpt lat="47.46123" lon="6.71933">
        <ele>380.08374</ele>
        <time>2012-05-13T11:34:10Z</time>
      </trkpt>
      <trkpt lat="47.46137" lon="6.7193">
        <ele>377.204987</ele>
        <time>2012-05-13T11:34:15Z</time>
      </trkpt>
      <trkpt lat="47.46152" lon="6.71927">
        <ele>374.116241</ele>
        <time>2012-05-13T11:34:20Z</time>
      </trkpt>
      <trkpt lat="47.46163" lon="6.71905">
        <ele>371.255035</ele>
        <time>2012-05-13T11:34:25Z</time>
      </trkpt>
      <trkpt lat="47.46167" lon="6.71898">
        <ele>370.467316</ele>
        <time>2012-05-13T11:34:26Z</time>
      </trkpt>
      <trkpt lat="47.4619" lon="6.71847">
        <ele>365.412231</ele>
        <time>2012-05-13T11:34:33Z</time>
      </trkpt>
      <trkpt lat="47.46197" lon="6.71829">
        <ele>363.987183</ele>
        <time>2012-05-13T11:34:35Z</time>
      </trkpt>
      <trkpt lat="47.46212" lon="6.71816">
        <ele>361.637177</ele>
        <time>2012-05-13T11:34:39Z</time>
      </trkpt>
      <trkpt lat="47.46222" lon="6.71822">
        <ele>360.446991</ele>
        <time>2012-05-13T11:34:41Z</time>
      </trkpt>
      <trkpt lat="47.46244" lon="6.7184">
        <ele>358.11499</ele>
        <time>2012-05-13T11:34:45Z</time>
      </trkpt>
      <trkpt lat="47.46291" lon="6.71888">
        <ele>353.874512</ele>
        <time>2012-05-13T11:34:52Z</time>
      </trkpt>
      <trkpt lat="47.46305" lon="6.71902">
        <ele>352.915619</ele>
        <time>2012-05-13T11:34:54Z</time>
      </trkpt>
      <trkpt lat="47.46326" lon="6.71907">
        <ele>352.26001</ele>
        <time>2012-05-13T11:34:58Z</time>
      </trkpt>
      <trkpt lat="47.46329" lon="6.71896">
        <ele>351.855011</ele>
        <time>2012-05-13T11:35:01Z</time>
      </trkpt>
      <trkpt lat="47.46323" lon="6.71864">
        <ele>351.311462</ele>
        <time>2012-05-13T11:35:07Z</time>
      </trkpt>
      <trkpt lat="47.46313" lon="6.71814">
        <ele>351.156586</ele>
        <time>2012-05-13T11:35:15Z</time>
      </trkpt>
      <trkpt lat="47.46301" lon="6.71767">
        <ele>352.090973</ele>
        <time>2012-05-13T11:35:23Z</time>
      </trkpt>
      <trkpt lat="47.46282" lon="6.71726">
        <ele>352.925598</ele>
        <time>2012-05-13T11:35:31Z</time>
      </trkpt>
      <trkpt lat="47.46263" lon="6.71672">
        <ele>353.732513</ele>
        <time>2012-05-13T11:35:41Z</time>
      </trkpt>
      <trkpt lat="47.46253" lon="6.7162">
        <ele>353.19751</ele>
        <time>2012-05-13T11:35:49Z</time>
      </trkpt>
      <trkpt lat="47.4625" lon="6.7158">
        <ele>352.986237</ele>
        <time>2012-05-13T11:35:55Z</time>
      </trkpt>
      <trkpt lat="47.46249" lon="6.71536">
        <ele>352.932495</ele>
        <time>2012-05-13T11:36:02Z</time>
      </trkpt>
      <trkpt lat="47.46252" lon="6.71482">
        <ele>353.658691</ele>
        <time>2012-05-13T11:36:11Z</time>
      </trkpt>
      <trkpt lat="47.46258" lon="6.71452">
        <ele>354.044495</ele>
        <time>2012-05-13T11:36:16Z</time>
      </trkpt>
      <trkpt lat="47.46275" lon="6.71388">
        <ele>356.650757</ele>
        <time>2012-05-13T11:36:27Z</time>
      </trkpt>
      <trkpt lat="47.46276" lon="6.71353">
        <ele>358.479279</ele>
        <time>2012-05-13T11:36:33Z</time>
      </trkpt>
      <trkpt lat="47.46279" lon="6.71327">
        <ele>359.380005</ele>
        <time>2012-05-13T11:36:38Z</time>
      </trkpt>
      <trkpt lat="47.46283" lon="6.71295">
        <ele>360.467499</ele>
        <time>2012-05-13T11:36:45Z</time>
      </trkpt>
      <trkpt lat="47.46288" lon="6.7125">
        <ele>360.890015</ele>
        <time>2012-05-13T11:36:55Z</time>
      </trkpt>
      <trkpt lat="47.46287" lon="6.71227">
        <ele>360.799988</ele>
        <time>2012-05-13T11:37:00Z</time>
      </trkpt>
      <trkpt lat="47.46279" lon="6.71188">
        <ele>359.720947</ele>
        <time>2012-05-13T11:37:07Z</time>
      </trkpt>
      <trkpt lat="47.46275" lon="6.71167">
        <ele>359.24649</ele>
        <time>2012-05-13T11:37:10Z</time>
      </trkpt>
      <trkpt lat="47.46271" lon="6.7111">
        <ele>357.709991</ele>
        <time>2012-05-13T11:37:17Z</time>
      </trkpt>
      <trkpt lat="47.46276" lon="6.71068">
        <ele>356.991486</ele>
        <time>2012-05-13T11:37:22Z</time>
      </trkpt>
      <trkpt lat="47.46287" lon="6.71044">
        <ele>356.672485</ele>
        <time>2012-05-13T11:37:26Z</time>
      </trkpt>
      <trkpt lat="47.46294" lon="6.71017">
        <ele>356.475006</ele>
        <time>2012-05-13T11:37:31Z</time>
      </trkpt>
      <trkpt lat="47.46287" lon="6.71">
        <ele>357.845001</ele>
        <time>2012-05-13T11:37:35Z</time>
      </trkpt>
      <trkpt lat="47.46275" lon="6.70988">
        <ele>359.050018</ele>
        <time>2012-05-13T11:37:40Z</time>
      </trkpt>
      <trkpt lat="47.46272" lon="6.70987">
        <ele>359.225006</ele>
        <time>2012-05-13T11:37:41Z</time>
      </trkpt>
      <trkpt lat="47.46256" lon="6.70979">
        <ele>360.345001</ele>
        <time>2012-05-13T11:37:49Z</time>
      </trkpt>
      <trkpt lat="47.46246" lon="6.70971">
        <ele>360.912262</ele>
        <time>2012-05-13T11:37:55Z</time>
      </trkpt>
      <trkpt lat="47.46235" lon="6.7096">
        <ele>361.744873</ele>
        <time>2012-05-13T11:38:03Z</time>
      </trkpt>
      <trkpt lat="47.46228" lon="6.70949">
        <ele>362.644897</ele>
        <time>2012-05-13T11:38:08Z</time>
      </trkpt>
      <trkpt lat="47.46222" lon="6.70939">
        <ele>363.218964</ele>
        <time>2012-05-13T11:38:13Z</time>
      </trkpt>
      <trkpt lat="47.46216" lon="6.70922">
        <ele>364.127655</ele>
        <time>2012-05-13T11:38:19Z</time>
      </trkpt>
      <trkpt lat="47.46209" lon="6.70902">
        <ele>364.601074</ele>
        <time>2012-05-13T11:38:26Z</time>
      </trkpt>
      <trkpt lat="47.46203" lon="6.7089">
        <ele>364.723511</ele>
        <time>2012-05-13T11:38:31Z</time>
      </trkpt>
      <trkpt lat="47.462" lon="6.70874">
        <ele>364.995514</ele>
        <time>2012-05-13T11:38:38Z</time>
      </trkpt>
      <trkpt lat="47.46198" lon="6.7087">
        <ele>364.908417</ele>
        <time>2012-05-13T11:38:40Z</time>
      </trkpt>
      <trkpt lat="47.46195" lon="6.7086">
        <ele>364.776794</ele>
        <time>2012-05-13T11:38:44Z</time>
      </trkpt>
      <trkpt lat="47.46188" lon="6.70843">
        <ele>364.612823</ele>
        <time>2012-05-13T11:38:51Z</time>
      </trkpt>
      <trkpt lat="47.46184" lon="6.70819">
        <ele>364.898834</ele>
        <time>2012-05-13T11:38:58Z</time>
      </trkpt>
      <trkpt lat="47.46187" lon="6.70799">
        <ele>364.377869</ele>
        <time>2012-05-13T11:39:04Z</time>
      </trkpt>
      <trkpt lat="47.46187" lon="6.70777">
        <ele>363.411316</ele>
        <time>2012-05-13T11:39:10Z</time>
      </trkpt>
      <trkpt lat="47.46181" lon="6.70754">
        <ele>362.810303</ele>
        <time>2012-05-13T11:39:17Z</time>
      </trkpt>
      <trkpt lat="47.46175" lon="6.70731">
        <ele>363</ele>
        <time>2012-05-13T11:39:23Z</time>
      </trkpt>
      <trkpt lat="47.46173" lon="6.70716">
        <ele>362.894623</ele>
        <time>2012-05-13T11:39:27Z</time>
      </trkpt>
      <trkpt lat="47.46166" lon="6.70692">
        <ele>362.662811</ele>
        <time>2012-05-13T11:39:33Z</time>
      </trkpt>
      <trkpt lat="47.46167" lon="6.70675">
        <ele>362.768494</ele>
        <time>2012-05-13T11:39:38Z</time>
      </trkpt>
      <trkpt lat="47.46166" lon="6.70657">
        <ele>362.756409</ele>
        <time>2012-05-13T11:39:43Z</time>
      </trkpt>
      <trkpt lat="47.46161" lon="6.7064">
        <ele>362.931305</ele>
        <time>2012-05-13T11:39:47Z</time>
      </trkpt>
      <trkpt lat="47.46153" lon="6.70618">
        <ele>363.608002</ele>
        <time>2012-05-13T11:39:52Z</time>
      </trkpt>
      <trkpt lat="47.46145" lon="6.70593">
        <ele>363.787506</ele>
        <time>2012-05-13T11:39:57Z</time>
      </trkpt>
      <trkpt lat="47.46143" lon="6.70573">
        <ele>363.392517</ele>
        <time>2012-05-13T11:40:01Z</time>
      </trkpt>
      <trkpt lat="47.46138" lon="6.7055">
        <ele>363.097504</ele>
        <time>2012-05-13T11:40:06Z</time>
      </trkpt>
      <trkpt lat="47.46137" lon="6.70523">
        <ele>362.298798</ele>
        <time>2012-05-13T11:40:11Z</time>
      </trkpt>
      <trkpt lat="47.46133" lon="6.70492">
        <ele>361.14505</ele>
        <time>2012-05-13T11:40:16Z</time>
      </trkpt>
      <trkpt lat="47.46125" lon="6.70465">
        <ele>360.665863</ele>
        <time>2012-05-13T11:40:21Z</time>
      </trkpt>
      <trkpt lat="47.46121" lon="6.70442">
        <ele>360.727539</ele>
        <time>2012-05-13T11:40:25Z</time>
      </trkpt>
      <trkpt lat="47.46119" lon="6.70414">
        <ele>360.983551</ele>
        <time>2012-05-13T11:40:30Z</time>
      </trkpt>
      <trkpt lat="47.46114" lon="6.70389">
        <ele>360.774872</ele>
        <time>2012-05-13T11:40:34Z</time>
      </trkpt>
      <trkpt lat="47.46112" lon="6.70363">
        <ele>360.310913</ele>
        <time>2012-05-13T11:40:38Z</time>
      </trkpt>
      <trkpt lat="47.46104" lon="6.70334">
        <ele>360.394989</ele>
        <time>2012-05-13T11:40:43Z</time>
      </trkpt>
      <trkpt lat="47.46101" lon="6.70309">
        <ele>359.997498</ele>
        <time>2012-05-13T11:40:47Z</time>
      </trkpt>
      <trkpt lat="47.461" lon="6.70303">
        <ele>359.758942</ele>
        <time>2012-05-13T11:40:48Z</time>
      </trkpt>
      <trkpt lat="47.46095" lon="6.70284">
        <ele>359.013611</ele>
        <time>2012-05-13T11:40:51Z</time>
      </trkpt>
      <trkpt lat="47.46084" lon="6.70256">
        <ele>358.424072</ele>
        <time>2012-05-13T11:40:56Z</time>
      </trkpt>
      <trkpt lat="47.46082" lon="6.70245">
        <ele>358.30896</ele>
        <time>2012-05-13T11:40:58Z</time>
      </trkpt>
      <trkpt lat="47.4608" lon="6.70216">
        <ele>358.064697</ele>
        <time>2012-05-13T11:41:04Z</time>
      </trkpt>
      <trkpt lat="47.46078" lon="6.70194">
        <ele>357.670349</ele>
        <time>2012-05-13T11:41:09Z</time>
      </trkpt>
      <trkpt lat="47.46076" lon="6.70167">
        <ele>357.02475</ele>
        <time>2012-05-13T11:41:14Z</time>
      </trkpt>
      <trkpt lat="47.46075" lon="6.7015">
        <ele>356.658966</ele>
        <time>2012-05-13T11:41:17Z</time>
      </trkpt>
      <trkpt lat="47.46073" lon="6.70128">
        <ele>355.99649</ele>
        <time>2012-05-13T11:41:20Z</time>
      </trkpt>
      <trkpt lat="47.4607" lon="6.70086">
        <ele>354.1828</ele>
        <time>2012-05-13T11:41:26Z</time>
      </trkpt>
      <trkpt lat="47.4607" lon="6.70077">
        <ele>353.834991</ele>
        <time>2012-05-13T11:41:27Z</time>
      </trkpt>
      <trkpt lat="47.46066" lon="6.70039">
        <ele>353.477478</ele>
        <time>2012-05-13T11:41:31Z</time>
      </trkpt>
      <trkpt lat="47.46063" lon="6.69989">
        <ele>351.415436</ele>
        <time>2012-05-13T11:41:37Z</time>
      </trkpt>
      <trkpt lat="47.46061" lon="6.69953">
        <ele>349.044006</ele>
        <time>2012-05-13T11:41:41Z</time>
      </trkpt>
      <trkpt lat="47.46062" lon="6.69913">
        <ele>346.820251</ele>
        <time>2012-05-13T11:41:46Z</time>
      </trkpt>
      <trkpt lat="47.46059" lon="6.6986">
        <ele>343.33606</ele>
        <time>2012-05-13T11:41:52Z</time>
      </trkpt>
      <trkpt lat="47.4606" lon="6.69837">
        <ele>341.601532</ele>
        <time>2012-05-13T11:41:55Z</time>
      </trkpt>
      <trkpt lat="47.46063" lon="6.69806">
        <ele>339.561462</ele>
        <time>2012-05-13T11:42:00Z</time>
      </trkpt>
      <trkpt lat="47.46075" lon="6.69797">
        <ele>339.994324</ele>
        <time>2012-05-13T11:42:03Z</time>
      </trkpt>
      <trkpt lat="47.46083" lon="6.69793">
        <ele>339.019989</ele>
        <time>2012-05-13T11:42:05Z</time>
      </trkpt>
      <trkpt lat="47.46102" lon="6.69778">
        <ele>336.410004</ele>
        <time>2012-05-13T11:42:10Z</time>
      </trkpt>
      <trkpt lat="47.46104" lon="6.69771">
        <ele>335.630005</ele>
        <time>2012-05-13T11:42:12Z</time>
      </trkpt>
      <trkpt lat="47.4609" lon="6.69756">
        <ele>335.277496</ele>
        <time>2012-05-13T11:42:16Z</time>
      </trkpt>
      <trkpt lat="47.4607" lon="6.69747">
        <ele>334.44635</ele>
        <time>2012-05-13T11:42:20Z</time>
      </trkpt>
      <trkpt lat="47.46055" lon="6.69752">
        <ele>332.901489</ele>
        <time>2012-05-13T11:42:23Z</time>
      </trkpt>
      <trkpt lat="47.46037" lon="6.69767">
        <ele>332.25592</ele>
        <time>2012-05-13T11:42:27Z</time>
      </trkpt>
      <trkpt lat="47.46014" lon="6.69783">
        <ele>327.598785</ele>
        <time>2012-05-13T11:42:33Z</time>
      </trkpt>
      <trkpt lat="47.46001" lon="6.6979">
        <ele>323.38269</ele>
        <time>2012-05-13T11:42:38Z</time>
      </trkpt>
      <trkpt lat="47.45982" lon="6.69803">
        <ele>317.876465</ele>
        <time>2012-05-13T11:42:44Z</time>
      </trkpt>
      <trkpt lat="47.45979" lon="6.69806">
        <ele>317.72641</ele>
        <time>2012-05-13T11:42:46Z</time>
      </trkpt>
      <trkpt lat="47.45971" lon="6.69808">
        <ele>317.007263</ele>
        <time>2012-05-13T11:42:50Z</time>
      </trkpt>
      <trkpt lat="47.45965" lon="6.6981">
        <ele>316.415375</ele>
        <time>2012-05-13T11:42:56Z</time>
      </trkpt>
      <trkpt lat="47.45964" lon="6.69809">
        <ele>316.177948</ele>
        <time>2012-05-13T11:43:00Z</time>
      </trkpt>
      <trkpt lat="47.4596" lon="6.69791">
        <ele>314.950012</ele>
        <time>2012-05-13T11:43:05Z</time>
      </trkpt>
      <trkpt lat="47.45952" lon="6.69745">
        <ele>312.589996</ele>
        <time>2012-05-13T11:43:12Z</time>
      </trkpt>
      <trkpt lat="47.45943" lon="6.69682">
        <ele>310.189392</ele>
        <time>2012-05-13T11:43:20Z</time>
      </trkpt>
      <trkpt lat="47.45924" lon="6.696">
        <ele>307.984009</ele>
        <time>2012-05-13T11:43:30Z</time>
      </trkpt>
      <trkpt lat="47.45906" lon="6.6953">
        <ele>306.042938</ele>
        <time>2012-05-13T11:43:39Z</time>
      </trkpt>
      <trkpt lat="47.45904" lon="6.69522">
        <ele>305.908325</ele>
        <time>2012-05-13T11:43:40Z</time>
      </trkpt>
      <trkpt lat="47.45891" lon="6.69484">
        <ele>305.582367</ele>
        <time>2012-05-13T11:43:45Z</time>
      </trkpt>
      <trkpt lat="47.45893" lon="6.69454">
        <ele>305.230011</ele>
        <time>2012-05-13T11:43:49Z</time>
      </trkpt>
      <trkpt lat="47.45897" lon="6.69447">
        <ele>305.047516</ele>
        <time>2012-05-13T11:43:50Z</time>
      </trkpt>
      <trkpt lat="47.45905" lon="6.69435">
        <ele>304.663757</ele>
        <time>2012-05-13T11:43:52Z</time>
      </trkpt>
      <trkpt lat="47.45914" lon="6.69411">
        <ele>304.216248</ele>
        <time>2012-05-13T11:43:56Z</time>
      </trkpt>
      <trkpt lat="47.45914" lon="6.69396">
        <ele>303.993744</ele>
        <time>2012-05-13T11:44:00Z</time>
      </trkpt>
      <trkpt lat="47.45909" lon="6.69397">
        <ele>304.028748</ele>
        <time>2012-05-13T11:44:03Z</time>
      </trkpt>
      <trkpt lat="47.45906" lon="6.69396">
        <ele>304.082489</ele>
        <time>2012-05-13T11:44:05Z</time>
      </trkpt>
      <trkpt lat="47.45904" lon="6.69391">
        <ele>304.0625</ele>
        <time>2012-05-13T11:44:11Z</time>
      </trkpt>
      <trkpt lat="47.45906" lon="6.69393">
        <ele>304.051239</ele>
        <time>2012-05-13T11:44:18Z</time>
      </trkpt>
      <trkpt lat="47.45906" lon="6.69394">
        <ele>304.056244</ele>
        <time>2012-05-13T11:44:19Z</time>
      </trkpt>
      <trkpt lat="47.45922" lon="6.69381">
        <ele>303.765015</ele>
        <time>2012-05-13T11:44:58Z</time>
      </trkpt>
      <trkpt lat="47.45935" lon="6.69371">
        <ele>303.600006</ele>
        <time>2012-05-13T11:45:06Z</time>
      </trkpt>
      <trkpt lat="47.45928" lon="6.69383">
        <ele>303.778748</ele>
        <time>2012-05-13T11:45:41Z</time>
      </trkpt>
      <trkpt lat="47.45922" lon="6.69387">
        <ele>303.856262</ele>
        <time>2012-05-13T11:46:58Z</time>
      </trkpt>
      <trkpt lat="47.45925" lon="6.69385">
        <ele>303.817505</ele>
        <time>2012-05-13T11:47:28Z</time>
      </trkpt>
      <trkpt lat="47.45924" lon="6.69382">
        <ele>303.779999</ele>
        <time>2012-05-13T11:47:37Z</time>
      </trkpt>
      <trkpt lat="47.45917" lon="6.69396">
        <ele>303.98999</ele>
        <time>2012-05-13T11:47:48Z</time>
      </trkpt>
      <trkpt lat="47.45912" lon="6.69402">
        <ele>304.09375</ele>
        <time>2012-05-13T11:48:01Z</time>
      </trkpt>
      <trkpt lat="47.45918" lon="6.69393">
        <ele>303.945007</ele>
        <time>2012-05-13T11:48:17Z</time>
      </trkpt>
      <trkpt lat="47.45921" lon="6.69386">
        <ele>303.83374</ele>
        <time>2012-05-13T11:48:26Z</time>
      </trkpt>
      <trkpt lat="47.45923" lon="6.6938">
        <ele>303.743744</ele>
        <time>2012-05-13T11:48:37Z</time>
      </trkpt>
      <trkpt lat="47.45922" lon="6.69386">
        <ele>303.828735</ele>
        <time>2012-05-13T11:48:50Z</time>
      </trkpt>
      <trkpt lat="47.4592" lon="6.69391">
        <ele>303.917511</ele>
        <time>2012-05-13T11:49:14Z</time>
      </trkpt>
      <trkpt lat="47.45921" lon="6.69392">
        <ele>303.926239</ele>
        <time>2012-05-13T11:50:08Z</time>
      </trkpt>
      <trkpt lat="47.45921" lon="6.69395">
        <ele>303.966248</ele>
        <time>2012-05-13T11:50:44Z</time>
      </trkpt>
      <trkpt lat="47.45918" lon="6.69399">
        <ele>304.029999</ele>
        <time>2012-05-13T11:51:25Z</time>
      </trkpt>
      <trkpt lat="47.45918" lon="6.69399">
        <ele>304.033752</ele>
        <time>2012-05-13T11:51:26Z</time>
      </trkpt>
      <trkpt lat="47.45918" lon="6.69395">
        <ele>303.973755</ele>
        <time>2012-05-13T11:51:33Z</time>
      </trkpt>
      <trkpt lat="47.45916" lon="6.69394">
        <ele>303.970001</ele>
        <time>2012-05-13T11:51:38Z</time>
      </trkpt>
      <trkpt lat="47.45911" lon="6.69396">
        <ele>303.996246</ele>
        <time>2012-05-13T11:51:47Z</time>
      </trkpt>
      <trkpt lat="47.45909" lon="6.69396">
        <ele>304.02124</ele>
        <time>2012-05-13T11:51:55Z</time>
      </trkpt>
      <trkpt lat="47.45908" lon="6.69396">
        <ele>304.048737</ele>
        <time>2012-05-13T11:52:02Z</time>
      </trkpt>
      <trkpt lat="47.45901" lon="6.69392">
        <ele>304.151245</ele>
        <time>2012-05-13T11:54:14Z</time>
      </trkpt>
      <trkpt lat="47.45901" lon="6.69391">
        <ele>304.13501</ele>
        <time>2012-05-13T11:54:18Z</time>
      </trkpt>
      <trkpt lat="47.45912" lon="6.69386">
        <ele>303.850006</ele>
        <time>2012-05-13T11:55:07Z</time>
      </trkpt>
      <trkpt lat="47.45912" lon="6.69387">
        <ele>303.862488</ele>
        <time>2012-05-13T11:55:08Z</time>
      </trkpt>
      <trkpt lat="47.45913" lon="6.6939">
        <ele>303.907501</ele>
        <time>2012-05-13T11:55:15Z</time>
      </trkpt>
      <trkpt lat="47.45913" lon="6.6939">
        <ele>303.912506</ele>
        <time>2012-05-13T11:55:21Z</time>
      </trkpt>
      <trkpt lat="47.45908" lon="6.6939">
        <ele>303.964996</ele>
        <time>2012-05-13T11:55:27Z</time>
      </trkpt>
      <trkpt lat="47.45906" lon="6.69392">
        <ele>304.023743</ele>
        <time>2012-05-13T11:55:37Z</time>
      </trkpt>
      <trkpt lat="47.45904" lon="6.69387">
        <ele>304.017487</ele>
        <time>2012-05-13T11:55:42Z</time>
      </trkpt>
      <trkpt lat="47.45906" lon="6.69382">
        <ele>303.894989</ele>
        <time>2012-05-13T11:55:49Z</time>
      </trkpt>
      <trkpt lat="47.45908" lon="6.69383">
        <ele>303.869995</ele>
        <time>2012-05-13T11:55:54Z</time>
      </trkpt>
      <trkpt lat="47.45911" lon="6.69387">
        <ele>303.867493</ele>
        <time>2012-05-13T11:55:59Z</time>
      </trkpt>
      <trkpt lat="47.45916" lon="6.69388">
        <ele>303.867493</ele>
        <time>2012-05-13T11:56:06Z</time>
      </trkpt>
      <trkpt lat="47.45917" lon="6.69387">
        <ele>303.852509</ele>
        <time>2012-05-13T11:56:14Z</time>
      </trkpt>
      <trkpt lat="47.45917" lon="6.69383">
        <ele>303.797485</ele>
        <time>2012-05-13T11:56:20Z</time>
      </trkpt>
      <trkpt lat="47.45911" lon="6.69383">
        <ele>303.809998</ele>
        <time>2012-05-13T11:56:35Z</time>
      </trkpt>
      <trkpt lat="47.4591" lon="6.69388">
        <ele>303.875</ele>
        <time>2012-05-13T11:56:59Z</time>
      </trkpt>
      <trkpt lat="47.45911" lon="6.69388">
        <ele>303.873749</ele>
        <time>2012-05-13T11:57:06Z</time>
      </trkpt>
      <trkpt lat="47.4591" lon="6.69391">
        <ele>303.936249</ele>
        <time>2012-05-13T11:57:15Z</time>
      </trkpt>
      <trkpt lat="47.45908" lon="6.69396">
        <ele>304.05249</ele>
        <time>2012-05-13T11:57:23Z</time>
      </trkpt>
      <trkpt lat="47.45908" lon="6.69396">
        <ele>304.053741</ele>
        <time>2012-05-13T11:57:28Z</time>
      </trkpt>
      <trkpt lat="47.45907" lon="6.69396">
        <ele>304.063751</ele>
        <time>2012-05-13T11:57:36Z</time>
      </trkpt>
      <trkpt lat="47.45907" lon="6.69396">
        <ele>304.082489</ele>
        <time>2012-05-13T11:57:47Z</time>
      </trkpt>
      <trkpt lat="47.45902" lon="6.69396">
        <ele>304.176239</ele>
        <time>2012-05-13T11:58:14Z</time>
      </trkpt>
      <trkpt lat="47.45899" lon="6.69388">
        <ele>304.149994</ele>
        <time>2012-05-13T11:58:20Z</time>
      </trkpt>
      <trkpt lat="47.45896" lon="6.69374">
        <ele>304.029999</ele>
        <time>2012-05-13T11:58:28Z</time>
      </trkpt>
      <trkpt lat="47.45894" lon="6.69372">
        <ele>304.040009</ele>
        <time>2012-05-13T11:58:30Z</time>
      </trkpt>
      <trkpt lat="47.4588" lon="6.69362">
        <ele>304.226257</ele>
        <time>2012-05-13T11:58:36Z</time>
      </trkpt>
      <trkpt lat="47.4586" lon="6.69351">
        <ele>304.388763</ele>
        <time>2012-05-13T11:58:44Z</time>
      </trkpt>
      <trkpt lat="47.45843" lon="6.69334">
        <ele>304.154999</ele>
        <time>2012-05-13T11:58:51Z</time>
      </trkpt>
      <trkpt lat="47.45833" lon="6.69312">
        <ele>303.834991</ele>
        <time>2012-05-13T11:58:56Z</time>
      </trkpt>
      <trkpt lat="47.45812" lon="6.6928">
        <ele>303.371246</ele>
        <time>2012-05-13T11:59:04Z</time>
      </trkpt>
      <trkpt lat="47.45795" lon="6.69259">
        <ele>303.082489</ele>
        <time>2012-05-13T11:59:09Z</time>
      </trkpt>
      <trkpt lat="47.45768" lon="6.69248">
        <ele>303.265289</ele>
        <time>2012-05-13T11:59:15Z</time>
      </trkpt>
      <trkpt lat="47.45724" lon="6.69252">
        <ele>304</ele>
        <time>2012-05-13T11:59:24Z</time>
      </trkpt>
      <trkpt lat="47.4572" lon="6.69253">
        <ele>304</ele>
        <time>2012-05-13T11:59:25Z</time>
      </trkpt>
      <trkpt lat="47.45672" lon="6.69244">
        <ele>304</ele>
        <time>2012-05-13T11:59:35Z</time>
      </trkpt>
      <trkpt lat="47.45659" lon="6.69238">
        <ele>303.924988</ele>
        <time>2012-05-13T11:59:38Z</time>
      </trkpt>
      <trkpt lat="47.45635" lon="6.69215">
        <ele>303.611237</ele>
        <time>2012-05-13T11:59:44Z</time>
      </trkpt>
      <trkpt lat="47.456" lon="6.69172">
        <ele>303.006256</ele>
        <time>2012-05-13T11:59:53Z</time>
      </trkpt>
      <trkpt lat="47.45565" lon="6.69128">
        <ele>303</ele>
        <time>2012-05-13T12:00:02Z</time>
      </trkpt>
      <trkpt lat="47.45523" lon="6.69088">
        <ele>303</ele>
        <time>2012-05-13T12:00:11Z</time>
      </trkpt>
      <trkpt lat="47.45471" lon="6.69053">
        <ele>303</ele>
        <time>2012-05-13T12:00:21Z</time>
      </trkpt>
      <trkpt lat="47.45451" lon="6.6904">
        <ele>303</ele>
        <time>2012-05-13T12:00:25Z</time>
      </trkpt>
      <trkpt lat="47.45442" lon="6.69033">
        <ele>303</ele>
        <time>2012-05-13T12:00:27Z</time>
      </trkpt>
      <trkpt lat="47.45424" lon="6.69035">
        <ele>303.014465</ele>
        <time>2012-05-13T12:00:31Z</time>
      </trkpt>
      <trkpt lat="47.45396" lon="6.69069">
        <ele>303.493347</ele>
        <time>2012-05-13T12:00:39Z</time>
      </trkpt>
      <trkpt lat="47.45358" lon="6.69116">
        <ele>304</ele>
        <time>2012-05-13T12:00:49Z</time>
      </trkpt>
      <trkpt lat="47.45325" lon="6.69152">
        <ele>304.008759</ele>
        <time>2012-05-13T12:00:57Z</time>
      </trkpt>
      <trkpt lat="47.45291" lon="6.69192">
        <ele>304.627838</ele>
        <time>2012-05-13T12:01:06Z</time>
      </trkpt>
      <trkpt lat="47.45259" lon="6.69224">
        <ele>306.082916</ele>
        <time>2012-05-13T12:01:16Z</time>
      </trkpt>
      <trkpt lat="47.45241" lon="6.69237">
        <ele>307.25824</ele>
        <time>2012-05-13T12:01:23Z</time>
      </trkpt>
      <trkpt lat="47.45228" lon="6.69238">
        <ele>308.190002</ele>
        <time>2012-05-13T12:01:29Z</time>
      </trkpt>
      <trkpt lat="47.45216" lon="6.69217">
        <ele>308.137482</ele>
        <time>2012-05-13T12:01:35Z</time>
      </trkpt>
      <trkpt lat="47.45203" lon="6.69185">
        <ele>307.779419</ele>
        <time>2012-05-13T12:01:40Z</time>
      </trkpt>
      <trkpt lat="47.45184" lon="6.69137">
        <ele>306.334991</ele>
        <time>2012-05-13T12:01:46Z</time>
      </trkpt>
      <trkpt lat="47.45178" lon="6.69123">
        <ele>306.075256</ele>
        <time>2012-05-13T12:01:48Z</time>
      </trkpt>
      <trkpt lat="47.45159" lon="6.69113">
        <ele>305.947998</ele>
        <time>2012-05-13T12:01:52Z</time>
      </trkpt>
      <trkpt lat="47.45149" lon="6.69113">
        <ele>305.976074</ele>
        <time>2012-05-13T12:01:54Z</time>
      </trkpt>
      <trkpt lat="47.45131" lon="6.69102">
        <ele>305.576416</ele>
        <time>2012-05-13T12:01:58Z</time>
      </trkpt>
      <trkpt lat="47.45105" lon="6.69063">
        <ele>305.838409</ele>
        <time>2012-05-13T12:02:06Z</time>
      </trkpt>
      <trkpt lat="47.45074" lon="6.69019">
        <ele>307.38739</ele>
        <time>2012-05-13T12:02:15Z</time>
      </trkpt>
      <trkpt lat="47.45047" lon="6.68994">
        <ele>308.579376</ele>
        <time>2012-05-13T12:02:22Z</time>
      </trkpt>
      <trkpt lat="47.45005" lon="6.68964">
        <ele>312.415802</ele>
        <time>2012-05-13T12:02:33Z</time>
      </trkpt>
      <trkpt lat="47.44981" lon="6.68945">
        <ele>313.650818</ele>
        <time>2012-05-13T12:02:40Z</time>
      </trkpt>
      <trkpt lat="47.44956" lon="6.68925">
        <ele>315.505188</ele>
        <time>2012-05-13T12:02:48Z</time>
      </trkpt>
      <trkpt lat="47.44927" lon="6.68897">
        <ele>317.033752</ele>
        <time>2012-05-13T12:02:58Z</time>
      </trkpt>
      <trkpt lat="47.449" lon="6.68864">
        <ele>316.292816</ele>
        <time>2012-05-13T12:03:07Z</time>
      </trkpt>
      <trkpt lat="47.44877" lon="6.68835">
        <ele>316.039154</ele>
        <time>2012-05-13T12:03:16Z</time>
      </trkpt>
      <trkpt lat="47.44876" lon="6.68829">
        <ele>315.32724</ele>
        <time>2012-05-13T12:03:19Z</time>
      </trkpt>
      <trkpt lat="47.44867" lon="6.68816">
        <ele>315.004333</ele>
        <time>2012-05-13T12:03:23Z</time>
      </trkpt>
      <trkpt lat="47.44847" lon="6.68803">
        <ele>315.679871</ele>
        <time>2012-05-13T12:03:30Z</time>
      </trkpt>
      <trkpt lat="47.44826" lon="6.68801">
        <ele>316.283752</ele>
        <time>2012-05-13T12:03:38Z</time>
      </trkpt>
      <trkpt lat="47.44812" lon="6.688">
        <ele>316.755341</ele>
        <time>2012-05-13T12:03:45Z</time>
      </trkpt>
      <trkpt lat="47.44802" lon="6.68796">
        <ele>317.51358</ele>
        <time>2012-05-13T12:03:52Z</time>
      </trkpt>
      <trkpt lat="47.44799" lon="6.68792">
        <ele>317.695709</ele>
        <time>2012-05-13T12:03:55Z</time>
      </trkpt>
      <trkpt lat="47.44796" lon="6.68772">
        <ele>317.209595</ele>
        <time>2012-05-13T12:04:01Z</time>
      </trkpt>
      <trkpt lat="47.44798" lon="6.68749">
        <ele>315.132233</ele>
        <time>2012-05-13T12:04:06Z</time>
      </trkpt>
      <trkpt lat="47.44797" lon="6.68732">
        <ele>314.145142</ele>
        <time>2012-05-13T12:04:10Z</time>
      </trkpt>
      <trkpt lat="47.4479" lon="6.68713">
        <ele>314.016693</ele>
        <time>2012-05-13T12:04:14Z</time>
      </trkpt>
      <trkpt lat="47.44779" lon="6.68689">
        <ele>313.890411</ele>
        <time>2012-05-13T12:04:19Z</time>
      </trkpt>
      <trkpt lat="47.44769" lon="6.68673">
        <ele>313.843689</ele>
        <time>2012-05-13T12:04:24Z</time>
      </trkpt>
      <trkpt lat="47.44765" lon="6.68657">
        <ele>312.666962</ele>
        <time>2012-05-13T12:04:28Z</time>
      </trkpt>
      <trkpt lat="47.44762" lon="6.68648">
        <ele>312.642456</ele>
        <time>2012-05-13T12:04:30Z</time>
      </trkpt>
      <trkpt lat="47.44753" lon="6.68614">
        <ele>312.251495</ele>
        <time>2012-05-13T12:04:36Z</time>
      </trkpt>
      <trkpt lat="47.44746" lon="6.68595">
        <ele>312.17337</ele>
        <time>2012-05-13T12:04:40Z</time>
      </trkpt>
      <trkpt lat="47.44738" lon="6.68571">
        <ele>311.140747</ele>
        <time>2012-05-13T12:04:45Z</time>
      </trkpt>
      <trkpt lat="47.44727" lon="6.68546">
        <ele>310.496094</ele>
        <time>2012-05-13T12:04:51Z</time>
      </trkpt>
      <trkpt lat="47.44722" lon="6.68522">
        <ele>309.536713</ele>
        <time>2012-05-13T12:04:56Z</time>
      </trkpt>
      <trkpt lat="47.44709" lon="6.68496">
        <ele>310.062164</ele>
        <time>2012-05-13T12:05:02Z</time>
      </trkpt>
      <trkpt lat="47.44703" lon="6.68478">
        <ele>310.27832</ele>
        <time>2012-05-13T12:05:06Z</time>
      </trkpt>
      <trkpt lat="47.4469" lon="6.68439">
        <ele>308.321259</ele>
        <time>2012-05-13T12:05:14Z</time>
      </trkpt>
      <trkpt lat="47.44688" lon="6.68422">
        <ele>307.284393</ele>
        <time>2012-05-13T12:05:19Z</time>
      </trkpt>
      <trkpt lat="47.44683" lon="6.68403">
        <ele>307.277069</ele>
        <time>2012-05-13T12:05:25Z</time>
      </trkpt>
      <trkpt lat="47.44682" lon="6.68397">
        <ele>307.114655</ele>
        <time>2012-05-13T12:05:29Z</time>
      </trkpt>
      <trkpt lat="47.44675" lon="6.68392">
        <ele>308.152252</ele>
        <time>2012-05-13T12:05:35Z</time>
      </trkpt>
      <trkpt lat="47.44672" lon="6.6839">
        <ele>308.681091</ele>
        <time>2012-05-13T12:05:38Z</time>
      </trkpt>
      <trkpt lat="47.44666" lon="6.68375">
        <ele>308.331665</ele>
        <time>2012-05-13T12:05:45Z</time>
      </trkpt>
      <trkpt lat="47.44664" lon="6.68372">
        <ele>308.272705</ele>
        <time>2012-05-13T12:05:46Z</time>
      </trkpt>
      <trkpt lat="47.44657" lon="6.68351">
        <ele>307.549805</ele>
        <time>2012-05-13T12:05:53Z</time>
      </trkpt>
      <trkpt lat="47.44655" lon="6.68345">
        <ele>307.389862</ele>
        <time>2012-05-13T12:05:55Z</time>
      </trkpt>
      <trkpt lat="47.44649" lon="6.68332">
        <ele>307.127106</ele>
        <time>2012-05-13T12:06:01Z</time>
      </trkpt>
      <trkpt lat="47.44648" lon="6.68329">
        <ele>307.081512</ele>
        <time>2012-05-13T12:06:02Z</time>
      </trkpt>
      <trkpt lat="47.44637" lon="6.68308">
        <ele>307.407745</ele>
        <time>2012-05-13T12:06:10Z</time>
      </trkpt>
      <trkpt lat="47.44625" lon="6.68281">
        <ele>307.376495</ele>
        <time>2012-05-13T12:06:17Z</time>
      </trkpt>
      <trkpt lat="47.44609" lon="6.68242">
        <ele>306.098328</ele>
        <time>2012-05-13T12:06:25Z</time>
      </trkpt>
      <trkpt lat="47.44598" lon="6.68218">
        <ele>305.753601</ele>
        <time>2012-05-13T12:06:30Z</time>
      </trkpt>
      <trkpt lat="47.44589" lon="6.68197">
        <ele>306.19931</ele>
        <time>2012-05-13T12:06:35Z</time>
      </trkpt>
      <trkpt lat="47.44578" lon="6.68169">
        <ele>305.724945</ele>
        <time>2012-05-13T12:06:40Z</time>
      </trkpt>
      <trkpt lat="47.44572" lon="6.68154">
        <ele>305.101166</ele>
        <time>2012-05-13T12:06:44Z</time>
      </trkpt>
      <trkpt lat="47.44564" lon="6.68137">
        <ele>304.909302</ele>
        <time>2012-05-13T12:06:48Z</time>
      </trkpt>
      <trkpt lat="47.44559" lon="6.68126">
        <ele>304.970093</ele>
        <time>2012-05-13T12:06:50Z</time>
      </trkpt>
      <trkpt lat="47.44547" lon="6.68102">
        <ele>305.388947</ele>
        <time>2012-05-13T12:06:55Z</time>
      </trkpt>
      <trkpt lat="47.44539" lon="6.68081">
        <ele>304.933167</ele>
        <time>2012-05-13T12:07:00Z</time>
      </trkpt>
      <trkpt lat="47.4453" lon="6.68064">
        <ele>305.178192</ele>
        <time>2012-05-13T12:07:04Z</time>
      </trkpt>
      <trkpt lat="47.44517" lon="6.68036">
        <ele>305.213287</ele>
        <time>2012-05-13T12:07:10Z</time>
      </trkpt>
      <trkpt lat="47.44505" lon="6.68011">
        <ele>305.482788</ele>
        <time>2012-05-13T12:07:16Z</time>
      </trkpt>
      <trkpt lat="47.44495" lon="6.67984">
        <ele>305.173584</ele>
        <time>2012-05-13T12:07:22Z</time>
      </trkpt>
      <trkpt lat="47.44486" lon="6.67962">
        <ele>304.475311</ele>
        <time>2012-05-13T12:07:28Z</time>
      </trkpt>
      <trkpt lat="47.44475" lon="6.67938">
        <ele>304.258606</ele>
        <time>2012-05-13T12:07:34Z</time>
      </trkpt>
      <trkpt lat="47.4446" lon="6.67902">
        <ele>304.8172</ele>
        <time>2012-05-13T12:07:41Z</time>
      </trkpt>
      <trkpt lat="47.44446" lon="6.67861">
        <ele>304.003265</ele>
        <time>2012-05-13T12:07:48Z</time>
      </trkpt>
      <trkpt lat="47.44441" lon="6.67844">
        <ele>303.743225</ele>
        <time>2012-05-13T12:07:51Z</time>
      </trkpt>
      <trkpt lat="47.44431" lon="6.67815">
        <ele>303.832794</ele>
        <time>2012-05-13T12:07:56Z</time>
      </trkpt>
      <trkpt lat="47.44421" lon="6.67785">
        <ele>304.022339</ele>
        <time>2012-05-13T12:08:02Z</time>
      </trkpt>
      <trkpt lat="47.44411" lon="6.67753">
        <ele>303.617126</ele>
        <time>2012-05-13T12:08:08Z</time>
      </trkpt>
      <trkpt lat="47.44402" lon="6.67721">
        <ele>303.44809</ele>
        <time>2012-05-13T12:08:14Z</time>
      </trkpt>
      <trkpt lat="47.44391" lon="6.67684">
        <ele>304.109009</ele>
        <time>2012-05-13T12:08:21Z</time>
      </trkpt>
      <trkpt lat="47.44382" lon="6.67661">
        <ele>304.593811</ele>
        <time>2012-05-13T12:08:26Z</time>
      </trkpt>
      <trkpt lat="47.44372" lon="6.67627">
        <ele>304.110107</ele>
        <time>2012-05-13T12:08:32Z</time>
      </trkpt>
      <trkpt lat="47.4436" lon="6.67589">
        <ele>303.535614</ele>
        <time>2012-05-13T12:08:38Z</time>
      </trkpt>
      <trkpt lat="47.4435" lon="6.67553">
        <ele>304.282013</ele>
        <time>2012-05-13T12:08:44Z</time>
      </trkpt>
      <trkpt lat="47.44341" lon="6.67518">
        <ele>304.402039</ele>
        <time>2012-05-13T12:08:50Z</time>
      </trkpt>
      <trkpt lat="47.44336" lon="6.67495">
        <ele>304.157623</ele>
        <time>2012-05-13T12:08:55Z</time>
      </trkpt>
      <trkpt lat="47.4433" lon="6.67475">
        <ele>303.713989</ele>
        <time>2012-05-13T12:09:00Z</time>
      </trkpt>
      <trkpt lat="47.44322" lon="6.67454">
        <ele>303.567505</ele>
        <time>2012-05-13T12:09:06Z</time>
      </trkpt>
      <trkpt lat="47.44319" lon="6.67428">
        <ele>303.29126</ele>
        <time>2012-05-13T12:09:12Z</time>
      </trkpt>
      <trkpt lat="47.44317" lon="6.67397">
        <ele>303.165131</ele>
        <time>2012-05-13T12:09:18Z</time>
      </trkpt>
      <trkpt lat="47.44316" lon="6.67368">
        <ele>303.748352</ele>
        <time>2012-05-13T12:09:24Z</time>
      </trkpt>
      <trkpt lat="47.44314" lon="6.67347">
        <ele>304.339813</ele>
        <time>2012-05-13T12:09:29Z</time>
      </trkpt>
      <trkpt lat="47.44313" lon="6.67335">
        <ele>304.611023</ele>
        <time>2012-05-13T12:09:31Z</time>
      </trkpt>
      <trkpt lat="47.44313" lon="6.6728">
        <ele>304.531433</ele>
        <time>2012-05-13T12:09:37Z</time>
      </trkpt>
      <trkpt lat="47.44312" lon="6.6723">
        <ele>304.267487</ele>
        <time>2012-05-13T12:09:43Z</time>
      </trkpt>
      <trkpt lat="47.44312" lon="6.67214">
        <ele>304.107513</ele>
        <time>2012-05-13T12:09:45Z</time>
      </trkpt>
      <trkpt lat="47.44313" lon="6.67167">
        <ele>303.805298</ele>
        <time>2012-05-13T12:09:52Z</time>
      </trkpt>
      <trkpt lat="47.44316" lon="6.67126">
        <ele>303.144409</ele>
        <time>2012-05-13T12:09:59Z</time>
      </trkpt>
      <trkpt lat="47.44316" lon="6.67101">
        <ele>303.420532</ele>
        <time>2012-05-13T12:10:03Z</time>
      </trkpt>
      <trkpt lat="47.44321" lon="6.67075">
        <ele>302.47049</ele>
        <time>2012-05-13T12:10:08Z</time>
      </trkpt>
      <trkpt lat="47.44324" lon="6.67053">
        <ele>302.943909</ele>
        <time>2012-05-13T12:10:13Z</time>
      </trkpt>
      <trkpt lat="47.44329" lon="6.67025">
        <ele>303.13031</ele>
        <time>2012-05-13T12:10:19Z</time>
      </trkpt>
      <trkpt lat="47.44333" lon="6.67002">
        <ele>303.166626</ele>
        <time>2012-05-13T12:10:24Z</time>
      </trkpt>
      <trkpt lat="47.44333" lon="6.66981">
        <ele>303.342743</ele>
        <time>2012-05-13T12:10:29Z</time>
      </trkpt>
      <trkpt lat="47.44335" lon="6.6696">
        <ele>302.98999</ele>
        <time>2012-05-13T12:10:35Z</time>
      </trkpt>
      <trkpt lat="47.44339" lon="6.6694">
        <ele>302.816986</ele>
        <time>2012-05-13T12:10:40Z</time>
      </trkpt>
      <trkpt lat="47.44342" lon="6.66923">
        <ele>302.467041</ele>
        <time>2012-05-13T12:10:44Z</time>
      </trkpt>
      <trkpt lat="47.44343" lon="6.66894">
        <ele>302.082336</ele>
        <time>2012-05-13T12:10:50Z</time>
      </trkpt>
      <trkpt lat="47.44348" lon="6.6687">
        <ele>302.052887</ele>
        <time>2012-05-13T12:10:55Z</time>
      </trkpt>
      <trkpt lat="47.44355" lon="6.66839">
        <ele>302.82663</ele>
        <time>2012-05-13T12:11:01Z</time>
      </trkpt>
      <trkpt lat="47.44359" lon="6.66814">
        <ele>303.326813</ele>
        <time>2012-05-13T12:11:06Z</time>
      </trkpt>
      <trkpt lat="47.44362" lon="6.6679">
        <ele>303.321228</ele>
        <time>2012-05-13T12:11:11Z</time>
      </trkpt>
      <trkpt lat="47.44362" lon="6.66765">
        <ele>303.593262</ele>
        <time>2012-05-13T12:11:16Z</time>
      </trkpt>
      <trkpt lat="47.44366" lon="6.66732">
        <ele>303.475006</ele>
        <time>2012-05-13T12:11:22Z</time>
      </trkpt>
      <trkpt lat="47.4437" lon="6.66703">
        <ele>303.149994</ele>
        <time>2012-05-13T12:11:27Z</time>
      </trkpt>
      <trkpt lat="47.44374" lon="6.66657">
        <ele>303.52356</ele>
        <time>2012-05-13T12:11:35Z</time>
      </trkpt>
      <trkpt lat="47.44376" lon="6.66617">
        <ele>304.447174</ele>
        <time>2012-05-13T12:11:42Z</time>
      </trkpt>
      <trkpt lat="47.44379" lon="6.6658">
        <ele>304.398254</ele>
        <time>2012-05-13T12:11:48Z</time>
      </trkpt>
      <trkpt lat="47.44381" lon="6.66545">
        <ele>304.274994</ele>
        <time>2012-05-13T12:11:54Z</time>
      </trkpt>
      <trkpt lat="47.44385" lon="6.66511">
        <ele>303.820007</ele>
        <time>2012-05-13T12:12:00Z</time>
      </trkpt>
      <trkpt lat="47.44388" lon="6.66491">
        <ele>303.540009</ele>
        <time>2012-05-13T12:12:05Z</time>
      </trkpt>
      <trkpt lat="47.4439" lon="6.66462">
        <ele>303.748901</ele>
        <time>2012-05-13T12:12:13Z</time>
      </trkpt>
      <trkpt lat="47.44394" lon="6.66443">
        <ele>303.475403</ele>
        <time>2012-05-13T12:12:17Z</time>
      </trkpt>
      <trkpt lat="47.44401" lon="6.66412">
        <ele>303.172821</ele>
        <time>2012-05-13T12:12:22Z</time>
      </trkpt>
      <trkpt lat="47.44401" lon="6.66378">
        <ele>304.313873</ele>
        <time>2012-05-13T12:12:26Z</time>
      </trkpt>
      <trkpt lat="47.444" lon="6.66354">
        <ele>305.431854</ele>
        <time>2012-05-13T12:12:29Z</time>
      </trkpt>
      <trkpt lat="47.44401" lon="6.66338">
        <ele>305.558899</ele>
        <time>2012-05-13T12:12:31Z</time>
      </trkpt>
      <trkpt lat="47.44407" lon="6.66313">
        <ele>305.517487</ele>
        <time>2012-05-13T12:12:35Z</time>
      </trkpt>
      <trkpt lat="47.44408" lon="6.66299">
        <ele>305.720001</ele>
        <time>2012-05-13T12:12:37Z</time>
      </trkpt>
      <trkpt lat="47.44409" lon="6.66283">
        <ele>305.797974</ele>
        <time>2012-05-13T12:12:39Z</time>
      </trkpt>
      <trkpt lat="47.44411" lon="6.66256">
        <ele>304.264404</ele>
        <time>2012-05-13T12:12:43Z</time>
      </trkpt>
      <trkpt lat="47.44416" lon="6.66237">
        <ele>303.29248</ele>
        <time>2012-05-13T12:12:46Z</time>
      </trkpt>
      <trkpt lat="47.44418" lon="6.66201">
        <ele>302.370056</ele>
        <time>2012-05-13T12:12:51Z</time>
      </trkpt>
      <trkpt lat="47.44423" lon="6.66171">
        <ele>302.365753</ele>
        <time>2012-05-13T12:12:56Z</time>
      </trkpt>
      <trkpt lat="47.44428" lon="6.66134">
        <ele>301.97641</ele>
        <time>2012-05-13T12:13:02Z</time>
      </trkpt>
      <trkpt lat="47.4443" lon="6.66111">
        <ele>301.488251</ele>
        <time>2012-05-13T12:13:05Z</time>
      </trkpt>
      <trkpt lat="47.4444" lon="6.66071">
        <ele>301.114502</ele>
        <time>2012-05-13T12:13:11Z</time>
      </trkpt>
      <trkpt lat="47.44449" lon="6.66033">
        <ele>300.446686</ele>
        <time>2012-05-13T12:13:18Z</time>
      </trkpt>
      <trkpt lat="47.44454" lon="6.66003">
        <ele>299.971252</ele>
        <time>2012-05-13T12:13:24Z</time>
      </trkpt>
      <trkpt lat="47.4446" lon="6.65969">
        <ele>299.296631</ele>
        <time>2012-05-13T12:13:30Z</time>
      </trkpt>
      <trkpt lat="47.44467" lon="6.65939">
        <ele>299.324829</ele>
        <time>2012-05-13T12:13:36Z</time>
      </trkpt>
      <trkpt lat="47.4447" lon="6.65927">
        <ele>299.478394</ele>
        <time>2012-05-13T12:13:38Z</time>
      </trkpt>
      <trkpt lat="47.44474" lon="6.65901">
        <ele>299.72049</ele>
        <time>2012-05-13T12:13:42Z</time>
      </trkpt>
      <trkpt lat="47.44477" lon="6.65881">
        <ele>299.970306</ele>
        <time>2012-05-13T12:13:45Z</time>
      </trkpt>
      <trkpt lat="47.44485" lon="6.65837">
        <ele>300.274994</ele>
        <time>2012-05-13T12:13:52Z</time>
      </trkpt>
      <trkpt lat="47.4449" lon="6.65817">
        <ele>300.021454</ele>
        <time>2012-05-13T12:13:56Z</time>
      </trkpt>
      <trkpt lat="47.44493" lon="6.65799">
        <ele>299.708405</ele>
        <time>2012-05-13T12:13:59Z</time>
      </trkpt>
      <trkpt lat="47.44498" lon="6.65767">
        <ele>299.184143</ele>
        <time>2012-05-13T12:14:04Z</time>
      </trkpt>
      <trkpt lat="47.44502" lon="6.65745">
        <ele>299.277496</ele>
        <time>2012-05-13T12:14:09Z</time>
      </trkpt>
      <trkpt lat="47.44503" lon="6.65744">
        <ele>299.179993</ele>
        <time>2012-05-13T12:14:10Z</time>
      </trkpt>
      <trkpt lat="47.44509" lon="6.65746">
        <ele>298.362488</ele>
        <time>2012-05-13T12:14:13Z</time>
      </trkpt>
      <trkpt lat="47.44519" lon="6.65744">
        <ele>297.45224</ele>
        <time>2012-05-13T12:14:18Z</time>
      </trkpt>
      <trkpt lat="47.44527" lon="6.6574">
        <ele>297.300476</ele>
        <time>2012-05-13T12:14:22Z</time>
      </trkpt>
      <trkpt lat="47.44546" lon="6.65734">
        <ele>296.657043</ele>
        <time>2012-05-13T12:14:30Z</time>
      </trkpt>
      <trkpt lat="47.44551" lon="6.65737">
        <ele>296.40976</ele>
        <time>2012-05-13T12:14:37Z</time>
      </trkpt>
      <trkpt lat="47.44557" lon="6.65735">
        <ele>296.173248</ele>
        <time>2012-05-13T12:14:41Z</time>
      </trkpt>
      <trkpt lat="47.44567" lon="6.65726">
        <ele>296.054413</ele>
        <time>2012-05-13T12:14:47Z</time>
      </trkpt>
      <trkpt lat="47.44573" lon="6.65721">
        <ele>296.078827</ele>
        <time>2012-05-13T12:14:50Z</time>
      </trkpt>
      <trkpt lat="47.4458" lon="6.6571">
        <ele>296.049377</ele>
        <time>2012-05-13T12:14:54Z</time>
      </trkpt>
      <trkpt lat="47.44598" lon="6.65697">
        <ele>296.020416</ele>
        <time>2012-05-13T12:15:02Z</time>
      </trkpt>
      <trkpt lat="47.44611" lon="6.65692">
        <ele>296.079987</ele>
        <time>2012-05-13T12:15:09Z</time>
      </trkpt>
      <trkpt lat="47.44624" lon="6.65689">
        <ele>296.359985</ele>
        <time>2012-05-13T12:15:15Z</time>
      </trkpt>
      <trkpt lat="47.44625" lon="6.65688">
        <ele>296.394989</ele>
        <time>2012-05-13T12:15:16Z</time>
      </trkpt>
      <trkpt lat="47.4463" lon="6.65688">
        <ele>296.5</ele>
        <time>2012-05-13T12:15:19Z</time>
      </trkpt>
      <trkpt lat="47.44643" lon="6.65677">
        <ele>296.779999</ele>
        <time>2012-05-13T12:15:25Z</time>
      </trkpt>
      <trkpt lat="47.44651" lon="6.6567">
        <ele>296.950012</ele>
        <time>2012-05-13T12:15:30Z</time>
      </trkpt>
      <trkpt lat="47.44657" lon="6.65666">
        <ele>297.116028</ele>
        <time>2012-05-13T12:15:35Z</time>
      </trkpt>
      <trkpt lat="47.4467" lon="6.65658">
        <ele>297.436218</ele>
        <time>2012-05-13T12:15:42Z</time>
      </trkpt>
      <trkpt lat="47.44674" lon="6.65654">
        <ele>297.5159</ele>
        <time>2012-05-13T12:15:45Z</time>
      </trkpt>
      <trkpt lat="47.44677" lon="6.65645">
        <ele>297.512512</ele>
        <time>2012-05-13T12:15:51Z</time>
      </trkpt>
      <trkpt lat="47.44678" lon="6.65623">
        <ele>297.212494</ele>
        <time>2012-05-13T12:16:01Z</time>
      </trkpt>
      <trkpt lat="47.44679" lon="6.65598">
        <ele>296.83374</ele>
        <time>2012-05-13T12:16:06Z</time>
      </trkpt>
      <trkpt lat="47.44676" lon="6.65554">
        <ele>296.415009</ele>
        <time>2012-05-13T12:16:13Z</time>
      </trkpt>
      <trkpt lat="47.44679" lon="6.65518">
        <ele>296.450012</ele>
        <time>2012-05-13T12:16:19Z</time>
      </trkpt>
      <trkpt lat="47.44684" lon="6.65484">
        <ele>296.529999</ele>
        <time>2012-05-13T12:16:25Z</time>
      </trkpt>
      <trkpt lat="47.44689" lon="6.65446">
        <ele>296.609985</ele>
        <time>2012-05-13T12:16:32Z</time>
      </trkpt>
      <trkpt lat="47.44693" lon="6.65402">
        <ele>297.296234</ele>
        <time>2012-05-13T12:16:39Z</time>
      </trkpt>
      <trkpt lat="47.44697" lon="6.65349">
        <ele>297.709991</ele>
        <time>2012-05-13T12:16:47Z</time>
      </trkpt>
      <trkpt lat="47.44704" lon="6.65296">
        <ele>297.76059</ele>
        <time>2012-05-13T12:16:55Z</time>
      </trkpt>
      <trkpt lat="47.44707" lon="6.65276">
        <ele>297.773071</ele>
        <time>2012-05-13T12:16:58Z</time>
      </trkpt>
      <trkpt lat="47.44703" lon="6.65203">
        <ele>296.970581</ele>
        <time>2012-05-13T12:17:08Z</time>
      </trkpt>
      <trkpt lat="47.44701" lon="6.65162">
        <ele>296.804047</ele>
        <time>2012-05-13T12:17:14Z</time>
      </trkpt>
      <trkpt lat="47.44685" lon="6.65102">
        <ele>296.918152</ele>
        <time>2012-05-13T12:17:23Z</time>
      </trkpt>
      <trkpt lat="47.44665" lon="6.65062">
        <ele>298.134644</ele>
        <time>2012-05-13T12:17:30Z</time>
      </trkpt>
      <trkpt lat="47.4465" lon="6.65028">
        <ele>299.378357</ele>
        <time>2012-05-13T12:17:37Z</time>
      </trkpt>
      <trkpt lat="47.44657" lon="6.65009">
        <ele>299.763306</ele>
        <time>2012-05-13T12:17:41Z</time>
      </trkpt>
      <trkpt lat="47.44659" lon="6.65005">
        <ele>299.834259</ele>
        <time>2012-05-13T12:17:42Z</time>
      </trkpt>
      <trkpt lat="47.44673" lon="6.64992">
        <ele>299.902985</ele>
        <time>2012-05-13T12:17:46Z</time>
      </trkpt>
      <trkpt lat="47.44702" lon="6.64985">
        <ele>299.971832</ele>
        <time>2012-05-13T12:17:52Z</time>
      </trkpt>
      <trkpt lat="47.44739" lon="6.64977">
        <ele>300</ele>
        <time>2012-05-13T12:18:00Z</time>
      </trkpt>
      <trkpt lat="47.44762" lon="6.64973">
        <ele>300</ele>
        <time>2012-05-13T12:18:06Z</time>
      </trkpt>
      <trkpt lat="47.44785" lon="6.64968">
        <ele>300</ele>
        <time>2012-05-13T12:18:13Z</time>
      </trkpt>
      <trkpt lat="47.44809" lon="6.64966">
        <ele>300</ele>
        <time>2012-05-13T12:18:21Z</time>
      </trkpt>
      <trkpt lat="47.44833" lon="6.64975">
        <ele>299.895721</ele>
        <time>2012-05-13T12:18:27Z</time>
      </trkpt>
      <trkpt lat="47.44867" lon="6.64984">
        <ele>299.685608</ele>
        <time>2012-05-13T12:18:35Z</time>
      </trkpt>
      <trkpt lat="47.44908" lon="6.64998">
        <ele>299</ele>
        <time>2012-05-13T12:18:44Z</time>
      </trkpt>
      <trkpt lat="47.44936" lon="6.65008">
        <ele>299</ele>
        <time>2012-05-13T12:18:51Z</time>
      </trkpt>
      <trkpt lat="47.44953" lon="6.65012">
        <ele>299</ele>
        <time>2012-05-13T12:18:55Z</time>
      </trkpt>
      <trkpt lat="47.44985" lon="6.65007">
        <ele>299</ele>
        <time>2012-05-13T12:19:02Z</time>
      </trkpt>
      <trkpt lat="47.44989" lon="6.65006">
        <ele>299</ele>
        <time>2012-05-13T12:19:03Z</time>
      </trkpt>
      <trkpt lat="47.45026" lon="6.64999">
        <ele>299</ele>
        <time>2012-05-13T12:19:11Z</time>
      </trkpt>
      <trkpt lat="47.45071" lon="6.64991">
        <ele>299.489105</ele>
        <time>2012-05-13T12:19:21Z</time>
      </trkpt>
      <trkpt lat="47.45115" lon="6.64982">
        <ele>300.539642</ele>
        <time>2012-05-13T12:19:31Z</time>
      </trkpt>
      <trkpt lat="47.45141" lon="6.64979">
        <ele>301</ele>
        <time>2012-05-13T12:19:38Z</time>
      </trkpt>
      <trkpt lat="47.45148" lon="6.64981">
        <ele>301</ele>
        <time>2012-05-13T12:19:42Z</time>
      </trkpt>
      <trkpt lat="47.45162" lon="6.64982">
        <ele>301</ele>
        <time>2012-05-13T12:19:46Z</time>
      </trkpt>
      <trkpt lat="47.45184" lon="6.64974">
        <ele>301.25473</ele>
        <time>2012-05-13T12:19:51Z</time>
      </trkpt>
      <trkpt lat="47.45197" lon="6.64969">
        <ele>301.586853</ele>
        <time>2012-05-13T12:19:54Z</time>
      </trkpt>
      <trkpt lat="47.4523" lon="6.64964">
        <ele>303.670013</ele>
        <time>2012-05-13T12:20:02Z</time>
      </trkpt>
      <trkpt lat="47.45255" lon="6.64961">
        <ele>307.346252</ele>
        <time>2012-05-13T12:20:09Z</time>
      </trkpt>
      <trkpt lat="47.45273" lon="6.64958">
        <ele>310.368042</ele>
        <time>2012-05-13T12:20:16Z</time>
      </trkpt>
      <trkpt lat="47.45284" lon="6.64951">
        <ele>312.103241</ele>
        <time>2012-05-13T12:20:21Z</time>
      </trkpt>
      <trkpt lat="47.45291" lon="6.64936">
        <ele>313.223938</ele>
        <time>2012-05-13T12:20:28Z</time>
      </trkpt>
      <trkpt lat="47.45299" lon="6.6492">
        <ele>314.45047</ele>
        <time>2012-05-13T12:20:36Z</time>
      </trkpt>
      <trkpt lat="47.45308" lon="6.649">
        <ele>316.104492</ele>
        <time>2012-05-13T12:20:47Z</time>
      </trkpt>
      <trkpt lat="47.45316" lon="6.64885">
        <ele>317.57019</ele>
        <time>2012-05-13T12:20:56Z</time>
      </trkpt>
      <trkpt lat="47.4533" lon="6.64869">
        <ele>319.553314</ele>
        <time>2012-05-13T12:21:07Z</time>
      </trkpt>
      <trkpt lat="47.45342" lon="6.64855">
        <ele>321.092834</ele>
        <time>2012-05-13T12:21:17Z</time>
      </trkpt>
      <trkpt lat="47.45351" lon="6.64842">
        <ele>322.075409</ele>
        <time>2012-05-13T12:21:25Z</time>
      </trkpt>
      <trkpt lat="47.45359" lon="6.64825">
        <ele>322.824585</ele>
        <time>2012-05-13T12:21:34Z</time>
      </trkpt>
      <trkpt lat="47.45369" lon="6.64812">
        <ele>323.864288</ele>
        <time>2012-05-13T12:21:43Z</time>
      </trkpt>
      <trkpt lat="47.45382" lon="6.64807">
        <ele>325.132111</ele>
        <time>2012-05-13T12:21:52Z</time>
      </trkpt>
      <trkpt lat="47.45398" lon="6.64804">
        <ele>326.605499</ele>
        <time>2012-05-13T12:22:02Z</time>
      </trkpt>
      <trkpt lat="47.45416" lon="6.64801">
        <ele>327.897491</ele>
        <time>2012-05-13T12:22:13Z</time>
      </trkpt>
      <trkpt lat="47.45432" lon="6.648">
        <ele>328.861237</ele>
        <time>2012-05-13T12:22:23Z</time>
      </trkpt>
      <trkpt lat="47.45443" lon="6.64801">
        <ele>329.554993</ele>
        <time>2012-05-13T12:22:29Z</time>
      </trkpt>
      <trkpt lat="47.45453" lon="6.64787">
        <ele>329.568909</ele>
        <time>2012-05-13T12:22:36Z</time>
      </trkpt>
      <trkpt lat="47.45465" lon="6.6477">
        <ele>330.049988</ele>
        <time>2012-05-13T12:22:44Z</time>
      </trkpt>
      <trkpt lat="47.45479" lon="6.64748">
        <ele>331.654999</ele>
        <time>2012-05-13T12:22:55Z</time>
      </trkpt>
      <trkpt lat="47.4549" lon="6.64729">
        <ele>332.915009</ele>
        <time>2012-05-13T12:23:05Z</time>
      </trkpt>
      <trkpt lat="47.455" lon="6.64704">
        <ele>334.297485</ele>
        <time>2012-05-13T12:23:17Z</time>
      </trkpt>
      <trkpt lat="47.4551" lon="6.64688">
        <ele>335.380005</ele>
        <time>2012-05-13T12:23:26Z</time>
      </trkpt>
      <trkpt lat="47.45515" lon="6.64679">
        <ele>335.97998</ele>
        <time>2012-05-13T12:23:32Z</time>
      </trkpt>
      <trkpt lat="47.45521" lon="6.6467">
        <ele>336.675018</ele>
        <time>2012-05-13T12:23:39Z</time>
      </trkpt>
      <trkpt lat="47.45529" lon="6.6466">
        <ele>337.542511</ele>
        <time>2012-05-13T12:23:46Z</time>
      </trkpt>
      <trkpt lat="47.45541" lon="6.6465">
        <ele>338.581573</ele>
        <time>2012-05-13T12:23:53Z</time>
      </trkpt>
      <trkpt lat="47.45552" lon="6.6464">
        <ele>339.179993</ele>
        <time>2012-05-13T12:24:00Z</time>
      </trkpt>
      <trkpt lat="47.45567" lon="6.64626">
        <ele>339.839996</ele>
        <time>2012-05-13T12:24:09Z</time>
      </trkpt>
      <trkpt lat="47.45586" lon="6.64606">
        <ele>340.660004</ele>
        <time>2012-05-13T12:24:19Z</time>
      </trkpt>
      <trkpt lat="47.45603" lon="6.64588">
        <ele>341.524628</ele>
        <time>2012-05-13T12:24:27Z</time>
      </trkpt>
      <trkpt lat="47.45619" lon="6.64569">
        <ele>342.455048</ele>
        <time>2012-05-13T12:24:35Z</time>
      </trkpt>
      <trkpt lat="47.45632" lon="6.64554">
        <ele>343.321472</ele>
        <time>2012-05-13T12:24:42Z</time>
      </trkpt>
      <trkpt lat="47.45649" lon="6.64534">
        <ele>344.51001</ele>
        <time>2012-05-13T12:24:52Z</time>
      </trkpt>
      <trkpt lat="47.45665" lon="6.64518">
        <ele>345.445099</ele>
        <time>2012-05-13T12:25:01Z</time>
      </trkpt>
      <trkpt lat="47.45681" lon="6.64502">
        <ele>346.470856</ele>
        <time>2012-05-13T12:25:11Z</time>
      </trkpt>
      <trkpt lat="47.45699" lon="6.64484">
        <ele>347.690002</ele>
        <time>2012-05-13T12:25:22Z</time>
      </trkpt>
      <trkpt lat="47.45711" lon="6.6447">
        <ele>348.5</ele>
        <time>2012-05-13T12:25:29Z</time>
      </trkpt>
      <trkpt lat="47.45724" lon="6.64457">
        <ele>349.125</ele>
        <time>2012-05-13T12:25:37Z</time>
      </trkpt>
      <trkpt lat="47.45735" lon="6.64441">
        <ele>349.643188</ele>
        <time>2012-05-13T12:25:45Z</time>
      </trkpt>
      <trkpt lat="47.45749" lon="6.64424">
        <ele>351.237213</ele>
        <time>2012-05-13T12:25:53Z</time>
      </trkpt>
      <trkpt lat="47.4576" lon="6.64409">
        <ele>352.684998</ele>
        <time>2012-05-13T12:26:00Z</time>
      </trkpt>
      <trkpt lat="47.45771" lon="6.64384">
        <ele>353.807404</ele>
        <time>2012-05-13T12:26:10Z</time>
      </trkpt>
      <trkpt lat="47.45778" lon="6.64359">
        <ele>353.954254</ele>
        <time>2012-05-13T12:26:19Z</time>
      </trkpt>
      <trkpt lat="47.45786" lon="6.64334">
        <ele>354.333008</ele>
        <time>2012-05-13T12:26:27Z</time>
      </trkpt>
      <trkpt lat="47.45794" lon="6.64308">
        <ele>355.053162</ele>
        <time>2012-05-13T12:26:37Z</time>
      </trkpt>
      <trkpt lat="47.45801" lon="6.6429">
        <ele>355.821228</ele>
        <time>2012-05-13T12:26:44Z</time>
      </trkpt>
      <trkpt lat="47.45806" lon="6.64274">
        <ele>356.40976</ele>
        <time>2012-05-13T12:26:51Z</time>
      </trkpt>
      <trkpt lat="47.45812" lon="6.6426">
        <ele>357.621887</ele>
        <time>2012-05-13T12:26:59Z</time>
      </trkpt>
      <trkpt lat="47.45818" lon="6.64248">
        <ele>358.563995</ele>
        <time>2012-05-13T12:27:05Z</time>
      </trkpt>
      <trkpt lat="47.45823" lon="6.6423">
        <ele>359.509216</ele>
        <time>2012-05-13T12:27:13Z</time>
      </trkpt>
      <trkpt lat="47.4583" lon="6.64211">
        <ele>360.303589</ele>
        <time>2012-05-13T12:27:22Z</time>
      </trkpt>
      <trkpt lat="47.45832" lon="6.64189">
        <ele>360.307404</ele>
        <time>2012-05-13T12:27:31Z</time>
      </trkpt>
      <trkpt lat="47.45825" lon="6.64171">
        <ele>359.013947</ele>
        <time>2012-05-13T12:27:37Z</time>
      </trkpt>
      <trkpt lat="47.45814" lon="6.64148">
        <ele>357.453735</ele>
        <time>2012-05-13T12:27:43Z</time>
      </trkpt>
      <trkpt lat="47.45809" lon="6.6412">
        <ele>356.992645</ele>
        <time>2012-05-13T12:27:49Z</time>
      </trkpt>
      <trkpt lat="47.45813" lon="6.64079">
        <ele>357.612488</ele>
        <time>2012-05-13T12:27:58Z</time>
      </trkpt>
      <trkpt lat="47.4581" lon="6.64047">
        <ele>357.258881</ele>
        <time>2012-05-13T12:28:05Z</time>
      </trkpt>
      <trkpt lat="47.4581" lon="6.6402">
        <ele>357.402496</ele>
        <time>2012-05-13T12:28:11Z</time>
      </trkpt>
      <trkpt lat="47.4581" lon="6.63981">
        <ele>357.076843</ele>
        <time>2012-05-13T12:28:17Z</time>
      </trkpt>
      <trkpt lat="47.4581" lon="6.63949">
        <ele>356.673615</ele>
        <time>2012-05-13T12:28:22Z</time>
      </trkpt>
      <trkpt lat="47.45812" lon="6.63923">
        <ele>356.39624</ele>
        <time>2012-05-13T12:28:27Z</time>
      </trkpt>
      <trkpt lat="47.45815" lon="6.63892">
        <ele>356.16626</ele>
        <time>2012-05-13T12:28:33Z</time>
      </trkpt>
      <trkpt lat="47.45813" lon="6.63853">
        <ele>355.154999</ele>
        <time>2012-05-13T12:28:40Z</time>
      </trkpt>
      <trkpt lat="47.45817" lon="6.63833">
        <ele>355.206238</ele>
        <time>2012-05-13T12:28:45Z</time>
      </trkpt>
      <trkpt lat="47.45812" lon="6.63815">
        <ele>354.295013</ele>
        <time>2012-05-13T12:28:50Z</time>
      </trkpt>
      <trkpt lat="47.45805" lon="6.63789">
        <ele>350.832794</ele>
        <time>2012-05-13T12:28:56Z</time>
      </trkpt>
      <trkpt lat="47.45799" lon="6.63778">
        <ele>348.851563</ele>
        <time>2012-05-13T12:28:59Z</time>
      </trkpt>
      <trkpt lat="47.45795" lon="6.63762">
        <ele>346.597046</ele>
        <time>2012-05-13T12:29:04Z</time>
      </trkpt>
      <trkpt lat="47.4579" lon="6.63726">
        <ele>341.385284</ele>
        <time>2012-05-13T12:29:10Z</time>
      </trkpt>
      <trkpt lat="47.45789" lon="6.63721">
        <ele>340.564392</ele>
        <time>2012-05-13T12:29:11Z</time>
      </trkpt>
      <trkpt lat="47.45781" lon="6.63712">
        <ele>338.82254</ele>
        <time>2012-05-13T12:29:15Z</time>
      </trkpt>
      <trkpt lat="47.45762" lon="6.63697">
        <ele>336.322601</ele>
        <time>2012-05-13T12:29:22Z</time>
      </trkpt>
      <trkpt lat="47.45753" lon="6.6369">
        <ele>335.302795</ele>
        <time>2012-05-13T12:29:26Z</time>
      </trkpt>
      <trkpt lat="47.45739" lon="6.63683">
        <ele>334.311981</ele>
        <time>2012-05-13T12:29:31Z</time>
      </trkpt>
      <trkpt lat="47.45735" lon="6.6368">
        <ele>333.996307</ele>
        <time>2012-05-13T12:29:32Z</time>
      </trkpt>
      <trkpt lat="47.45714" lon="6.63663">
        <ele>331.99176</ele>
        <time>2012-05-13T12:29:37Z</time>
      </trkpt>
      <trkpt lat="47.45688" lon="6.63649">
        <ele>329.480072</ele>
        <time>2012-05-13T12:29:42Z</time>
      </trkpt>
      <trkpt lat="47.45668" lon="6.63639">
        <ele>328.08136</ele>
        <time>2012-05-13T12:29:46Z</time>
      </trkpt>
      <trkpt lat="47.45664" lon="6.63637">
        <ele>327.821106</ele>
        <time>2012-05-13T12:29:47Z</time>
      </trkpt>
      <trkpt lat="47.45642" lon="6.63633">
        <ele>327.447815</ele>
        <time>2012-05-13T12:29:53Z</time>
      </trkpt>
      <trkpt lat="47.45621" lon="6.63624">
        <ele>326.505493</ele>
        <time>2012-05-13T12:29:58Z</time>
      </trkpt>
      <trkpt lat="47.45601" lon="6.63619">
        <ele>325.936005</ele>
        <time>2012-05-13T12:30:03Z</time>
      </trkpt>
      <trkpt lat="47.45585" lon="6.6362">
        <ele>325.957489</ele>
        <time>2012-05-13T12:30:07Z</time>
      </trkpt>
      <trkpt lat="47.45568" lon="6.63613">
        <ele>324.957489</ele>
        <time>2012-05-13T12:30:11Z</time>
      </trkpt>
      <trkpt lat="47.45551" lon="6.63608">
        <ele>324.38208</ele>
        <time>2012-05-13T12:30:15Z</time>
      </trkpt>
      <trkpt lat="47.45535" lon="6.6361">
        <ele>323.846436</ele>
        <time>2012-05-13T12:30:19Z</time>
      </trkpt>
      <trkpt lat="47.45517" lon="6.63613">
        <ele>322.386047</ele>
        <time>2012-05-13T12:30:24Z</time>
      </trkpt>
      <trkpt lat="47.45511" lon="6.63613">
        <ele>321.919403</ele>
        <time>2012-05-13T12:30:25Z</time>
      </trkpt>
      <trkpt lat="47.45488" lon="6.6363">
        <ele>319.164001</ele>
        <time>2012-05-13T12:30:30Z</time>
      </trkpt>
      <trkpt lat="47.45479" lon="6.63643">
        <ele>317.677887</ele>
        <time>2012-05-13T12:30:33Z</time>
      </trkpt>
      <trkpt lat="47.45463" lon="6.63674">
        <ele>315.370209</ele>
        <time>2012-05-13T12:30:39Z</time>
      </trkpt>
      <trkpt lat="47.45453" lon="6.63681">
        <ele>313.872864</ele>
        <time>2012-05-13T12:30:42Z</time>
      </trkpt>
      <trkpt lat="47.45448" lon="6.63667">
        <ele>312.518005</ele>
        <time>2012-05-13T12:30:46Z</time>
      </trkpt>
      <trkpt lat="47.4545" lon="6.63637">
        <ele>311.643005</ele>
        <time>2012-05-13T12:30:50Z</time>
      </trkpt>
      <trkpt lat="47.45454" lon="6.63611">
        <ele>311.175751</ele>
        <time>2012-05-13T12:30:53Z</time>
      </trkpt>
      <trkpt lat="47.45445" lon="6.63583">
        <ele>308.327515</ele>
        <time>2012-05-13T12:30:57Z</time>
      </trkpt>
      <trkpt lat="47.45424" lon="6.63584">
        <ele>306.186249</ele>
        <time>2012-05-13T12:31:00Z</time>
      </trkpt>
      <trkpt lat="47.45407" lon="6.63593">
        <ele>304.816254</ele>
        <time>2012-05-13T12:31:03Z</time>
      </trkpt>
      <trkpt lat="47.45376" lon="6.63616">
        <ele>305.230011</ele>
        <time>2012-05-13T12:31:09Z</time>
      </trkpt>
      <trkpt lat="47.45355" lon="6.63627">
        <ele>305.271393</ele>
        <time>2012-05-13T12:31:13Z</time>
      </trkpt>
      <trkpt lat="47.4534" lon="6.63629">
        <ele>304.814606</ele>
        <time>2012-05-13T12:31:17Z</time>
      </trkpt>
      <trkpt lat="47.45336" lon="6.6363">
        <ele>304.717438</ele>
        <time>2012-05-13T12:31:22Z</time>
      </trkpt>
      <trkpt lat="47.45342" lon="6.63629">
        <ele>304.883392</ele>
        <time>2012-05-13T12:34:41Z</time>
      </trkpt>
      <trkpt lat="47.4534" lon="6.6363">
        <ele>304.853088</ele>
        <time>2012-05-13T12:35:04Z</time>
      </trkpt>
      <trkpt lat="47.45337" lon="6.63633">
        <ele>304.855011</ele>
        <time>2012-05-13T12:35:24Z</time>
      </trkpt>
      <trkpt lat="47.45325" lon="6.63636">
        <ele>304.467041</ele>
        <time>2012-05-13T12:35:30Z</time>
      </trkpt>
      <trkpt lat="47.45309" lon="6.63641">
        <ele>304.325989</ele>
        <time>2012-05-13T12:35:36Z</time>
      </trkpt>
      <trkpt lat="47.45306" lon="6.63629">
        <ele>303.707489</ele>
        <time>2012-05-13T12:35:40Z</time>
      </trkpt>
      <trkpt lat="47.45315" lon="6.6359">
        <ele>303.282501</ele>
        <time>2012-05-13T12:35:48Z</time>
      </trkpt>
      <trkpt lat="47.45334" lon="6.63535">
        <ele>303.364655</ele>
        <time>2012-05-13T12:36:00Z</time>
      </trkpt>
      <trkpt lat="47.45349" lon="6.63498">
        <ele>303.649841</ele>
        <time>2012-05-13T12:36:10Z</time>
      </trkpt>
      <trkpt lat="47.45366" lon="6.63459">
        <ele>304.468658</ele>
        <time>2012-05-13T12:36:21Z</time>
      </trkpt>
      <trkpt lat="47.4538" lon="6.63425">
        <ele>305.459778</ele>
        <time>2012-05-13T12:36:31Z</time>
      </trkpt>
      <trkpt lat="47.45393" lon="6.63393">
        <ele>306.331757</ele>
        <time>2012-05-13T12:36:40Z</time>
      </trkpt>
      <trkpt lat="47.45405" lon="6.63358">
        <ele>307.474213</ele>
        <time>2012-05-13T12:36:50Z</time>
      </trkpt>
      <trkpt lat="47.45419" lon="6.63333">
        <ele>308.668304</ele>
        <time>2012-05-13T12:36:58Z</time>
      </trkpt>
      <trkpt lat="47.45443" lon="6.63323">
        <ele>308.796265</ele>
        <time>2012-05-13T12:37:06Z</time>
      </trkpt>
      <trkpt lat="47.45454" lon="6.63308">
        <ele>309.591644</ele>
        <time>2012-05-13T12:37:11Z</time>
      </trkpt>
      <trkpt lat="47.45457" lon="6.63287">
        <ele>310.785553</ele>
        <time>2012-05-13T12:37:17Z</time>
      </trkpt>
      <trkpt lat="47.45466" lon="6.63263">
        <ele>312.174988</ele>
        <time>2012-05-13T12:37:25Z</time>
      </trkpt>
      <trkpt lat="47.45476" lon="6.6324">
        <ele>313.412079</ele>
        <time>2012-05-13T12:37:34Z</time>
      </trkpt>
      <trkpt lat="47.45486" lon="6.6322">
        <ele>314.683777</ele>
        <time>2012-05-13T12:37:43Z</time>
      </trkpt>
      <trkpt lat="47.45492" lon="6.6321">
        <ele>315.31134</ele>
        <time>2012-05-13T12:37:50Z</time>
      </trkpt>
      <trkpt lat="47.45501" lon="6.63201">
        <ele>315.941315</ele>
        <time>2012-05-13T12:37:57Z</time>
      </trkpt>
      <trkpt lat="47.45508" lon="6.63194">
        <ele>316.488525</ele>
        <time>2012-05-13T12:38:03Z</time>
      </trkpt>
      <trkpt lat="47.45518" lon="6.63181">
        <ele>317.665527</ele>
        <time>2012-05-13T12:38:11Z</time>
      </trkpt>
      <trkpt lat="47.45526" lon="6.63169">
        <ele>319.296448</ele>
        <time>2012-05-13T12:38:19Z</time>
      </trkpt>
      <trkpt lat="47.45534" lon="6.63153">
        <ele>321.879883</ele>
        <time>2012-05-13T12:38:27Z</time>
      </trkpt>
      <trkpt lat="47.4554" lon="6.63138">
        <ele>324.494568</ele>
        <time>2012-05-13T12:38:35Z</time>
      </trkpt>
      <trkpt lat="47.45544" lon="6.63121">
        <ele>327.528748</ele>
        <time>2012-05-13T12:38:44Z</time>
      </trkpt>
      <trkpt lat="47.45546" lon="6.63109">
        <ele>329.119263</ele>
        <time>2012-05-13T12:38:50Z</time>
      </trkpt>
      <trkpt lat="47.45548" lon="6.63093">
        <ele>331.118896</ele>
        <time>2012-05-13T12:38:57Z</time>
      </trkpt>
      <trkpt lat="47.4555" lon="6.63073">
        <ele>333.506256</ele>
        <time>2012-05-13T12:39:06Z</time>
      </trkpt>
      <trkpt lat="47.45548" lon="6.63057">
        <ele>334.960724</ele>
        <time>2012-05-13T12:39:12Z</time>
      </trkpt>
      <trkpt lat="47.4555" lon="6.63038">
        <ele>335.179993</ele>
        <time>2012-05-13T12:39:19Z</time>
      </trkpt>
      <trkpt lat="47.45554" lon="6.63017">
        <ele>335.670013</ele>
        <time>2012-05-13T12:39:27Z</time>
      </trkpt>
      <trkpt lat="47.4556" lon="6.62999">
        <ele>336.404999</ele>
        <time>2012-05-13T12:39:35Z</time>
      </trkpt>
      <trkpt lat="47.45566" lon="6.62991">
        <ele>337.256195</ele>
        <time>2012-05-13T12:39:41Z</time>
      </trkpt>
      <trkpt lat="47.45573" lon="6.62983">
        <ele>337.875244</ele>
        <time>2012-05-13T12:39:46Z</time>
      </trkpt>
      <trkpt lat="47.45576" lon="6.62968">
        <ele>337.389465</ele>
        <time>2012-05-13T12:39:52Z</time>
      </trkpt>
      <trkpt lat="47.4558" lon="6.62954">
        <ele>337.159729</ele>
        <time>2012-05-13T12:39:57Z</time>
      </trkpt>
      <trkpt lat="47.45586" lon="6.62941">
        <ele>337.279877</ele>
        <time>2012-05-13T12:40:03Z</time>
      </trkpt>
      <trkpt lat="47.45586" lon="6.62938">
        <ele>337.216064</ele>
        <time>2012-05-13T12:40:04Z</time>
      </trkpt>
      <trkpt lat="47.45581" lon="6.62932">
        <ele>335.967041</ele>
        <time>2012-05-13T12:40:08Z</time>
      </trkpt>
      <trkpt lat="47.45574" lon="6.6293">
        <ele>334.661224</ele>
        <time>2012-05-13T12:40:15Z</time>
      </trkpt>
      <trkpt lat="47.45572" lon="6.62928">
        <ele>334.226135</ele>
        <time>2012-05-13T12:40:18Z</time>
      </trkpt>
      <trkpt lat="47.45562" lon="6.6293">
        <ele>332.750305</ele>
        <time>2012-05-13T12:40:26Z</time>
      </trkpt>
      <trkpt lat="47.45556" lon="6.62936">
        <ele>332.306152</ele>
        <time>2012-05-13T12:40:31Z</time>
      </trkpt>
      <trkpt lat="47.45544" lon="6.62944">
        <ele>331.207489</ele>
        <time>2012-05-13T12:40:36Z</time>
      </trkpt>
      <trkpt lat="47.45528" lon="6.62955">
        <ele>329.529724</ele>
        <time>2012-05-13T12:40:43Z</time>
      </trkpt>
      <trkpt lat="47.4552" lon="6.62959">
        <ele>328.644714</ele>
        <time>2012-05-13T12:40:48Z</time>
      </trkpt>
      <trkpt lat="47.45506" lon="6.62965">
        <ele>327.293396</ele>
        <time>2012-05-13T12:40:53Z</time>
      </trkpt>
      <trkpt lat="47.45502" lon="6.62967">
        <ele>326.794006</ele>
        <time>2012-05-13T12:40:55Z</time>
      </trkpt>
      <trkpt lat="47.45489" lon="6.62959">
        <ele>324.924438</ele>
        <time>2012-05-13T12:40:59Z</time>
      </trkpt>
      <trkpt lat="47.45477" lon="6.62951">
        <ele>323.149261</ele>
        <time>2012-05-13T12:41:03Z</time>
      </trkpt>
      <trkpt lat="47.45461" lon="6.62951">
        <ele>321.558685</ele>
        <time>2012-05-13T12:41:07Z</time>
      </trkpt>
      <trkpt lat="47.45427" lon="6.62966">
        <ele>318.048889</ele>
        <time>2012-05-13T12:41:13Z</time>
      </trkpt>
      <trkpt lat="47.45411" lon="6.62962">
        <ele>316.862762</ele>
        <time>2012-05-13T12:41:16Z</time>
      </trkpt>
      <trkpt lat="47.45405" lon="6.62951">
        <ele>316.682037</ele>
        <time>2012-05-13T12:41:18Z</time>
      </trkpt>
      <trkpt lat="47.45391" lon="6.62913">
        <ele>317.137329</ele>
        <time>2012-05-13T12:41:27Z</time>
      </trkpt>
      <trkpt lat="47.45381" lon="6.62885">
        <ele>318.045685</ele>
        <time>2012-05-13T12:41:36Z</time>
      </trkpt>
      <trkpt lat="47.45368" lon="6.6286">
        <ele>319.39917</ele>
        <time>2012-05-13T12:41:46Z</time>
      </trkpt>
      <trkpt lat="47.45359" lon="6.62831">
        <ele>321.723389</ele>
        <time>2012-05-13T12:41:57Z</time>
      </trkpt>
      <trkpt lat="47.45352" lon="6.62809">
        <ele>323.506592</ele>
        <time>2012-05-13T12:42:06Z</time>
      </trkpt>
      <trkpt lat="47.45343" lon="6.62787">
        <ele>325.137512</ele>
        <time>2012-05-13T12:42:15Z</time>
      </trkpt>
      <trkpt lat="47.45335" lon="6.62766">
        <ele>326.581116</ele>
        <time>2012-05-13T12:42:23Z</time>
      </trkpt>
      <trkpt lat="47.45326" lon="6.62743">
        <ele>327.85379</ele>
        <time>2012-05-13T12:42:31Z</time>
      </trkpt>
      <trkpt lat="47.45318" lon="6.62726">
        <ele>328.611694</ele>
        <time>2012-05-13T12:42:37Z</time>
      </trkpt>
      <trkpt lat="47.45313" lon="6.62713">
        <ele>329.034485</ele>
        <time>2012-05-13T12:42:42Z</time>
      </trkpt>
      <trkpt lat="47.45307" lon="6.62696">
        <ele>329.538757</ele>
        <time>2012-05-13T12:42:48Z</time>
      </trkpt>
      <trkpt lat="47.45297" lon="6.62674">
        <ele>330.245514</ele>
        <time>2012-05-13T12:42:54Z</time>
      </trkpt>
      <trkpt lat="47.45287" lon="6.62646">
        <ele>330.878571</ele>
        <time>2012-05-13T12:43:02Z</time>
      </trkpt>
      <trkpt lat="47.45274" lon="6.62614">
        <ele>330.960114</ele>
        <time>2012-05-13T12:43:11Z</time>
      </trkpt>
      <trkpt lat="47.45259" lon="6.62576">
        <ele>330.798767</ele>
        <time>2012-05-13T12:43:21Z</time>
      </trkpt>
      <trkpt lat="47.45239" lon="6.62535">
        <ele>331.111877</ele>
        <time>2012-05-13T12:43:31Z</time>
      </trkpt>
      <trkpt lat="47.45222" lon="6.625">
        <ele>331.024933</ele>
        <time>2012-05-13T12:43:39Z</time>
      </trkpt>
      <trkpt lat="47.45206" lon="6.62463">
        <ele>331.089996</ele>
        <time>2012-05-13T12:43:47Z</time>
      </trkpt>
      <trkpt lat="47.45191" lon="6.62431">
        <ele>330.769989</ele>
        <time>2012-05-13T12:43:54Z</time>
      </trkpt>
      <trkpt lat="47.45173" lon="6.62391">
        <ele>330.622498</ele>
        <time>2012-05-13T12:44:01Z</time>
      </trkpt>
      <trkpt lat="47.45169" lon="6.62385">
        <ele>330.592499</ele>
        <time>2012-05-13T12:44:02Z</time>
      </trkpt>
      <trkpt lat="47.45157" lon="6.62357">
        <ele>330.472504</ele>
        <time>2012-05-13T12:44:06Z</time>
      </trkpt>
      <trkpt lat="47.45133" lon="6.62309">
        <ele>330.058838</ele>
        <time>2012-05-13T12:44:13Z</time>
      </trkpt>
      <trkpt lat="47.45128" lon="6.6228">
        <ele>330.337494</ele>
        <time>2012-05-13T12:44:17Z</time>
      </trkpt>
      <trkpt lat="47.45125" lon="6.62253">
        <ele>330.774994</ele>
        <time>2012-05-13T12:44:22Z</time>
      </trkpt>
      <trkpt lat="47.45122" lon="6.62222">
        <ele>331.316254</ele>
        <time>2012-05-13T12:44:27Z</time>
      </trkpt>
      <trkpt lat="47.45126" lon="6.62176">
        <ele>332.217499</ele>
        <time>2012-05-13T12:44:34Z</time>
      </trkpt>
      <trkpt lat="47.45126" lon="6.62169">
        <ele>332.329987</ele>
        <time>2012-05-13T12:44:35Z</time>
      </trkpt>
      <trkpt lat="47.45128" lon="6.6214">
        <ele>332.761261</ele>
        <time>2012-05-13T12:44:39Z</time>
      </trkpt>
      <trkpt lat="47.45131" lon="6.62081">
        <ele>334.284821</ele>
        <time>2012-05-13T12:44:47Z</time>
      </trkpt>
      <trkpt lat="47.45131" lon="6.62074">
        <ele>334.551208</ele>
        <time>2012-05-13T12:44:48Z</time>
      </trkpt>
      <trkpt lat="47.45127" lon="6.62031">
        <ele>336.379456</ele>
        <time>2012-05-13T12:44:56Z</time>
      </trkpt>
      <trkpt lat="47.45122" lon="6.61997">
        <ele>337.277069</ele>
        <time>2012-05-13T12:45:03Z</time>
      </trkpt>
      <trkpt lat="47.45112" lon="6.61973">
        <ele>337.700348</ele>
        <time>2012-05-13T12:45:09Z</time>
      </trkpt>
      <trkpt lat="47.45096" lon="6.61954">
        <ele>337.612427</ele>
        <time>2012-05-13T12:45:15Z</time>
      </trkpt>
      <trkpt lat="47.45079" lon="6.61948">
        <ele>337.09079</ele>
        <time>2012-05-13T12:45:21Z</time>
      </trkpt>
      <trkpt lat="47.45056" lon="6.61948">
        <ele>336.345001</ele>
        <time>2012-05-13T12:45:28Z</time>
      </trkpt>
      <trkpt lat="47.45031" lon="6.61948">
        <ele>336.236237</ele>
        <time>2012-05-13T12:45:35Z</time>
      </trkpt>
      <trkpt lat="47.45002" lon="6.61947">
        <ele>336.172485</ele>
        <time>2012-05-13T12:45:42Z</time>
      </trkpt>
      <trkpt lat="47.44992" lon="6.61939">
        <ele>336.494995</ele>
        <time>2012-05-13T12:45:47Z</time>
      </trkpt>
      <trkpt lat="47.4499" lon="6.61917">
        <ele>337.481262</ele>
        <time>2012-05-13T12:45:53Z</time>
      </trkpt>
      <trkpt lat="47.44982" lon="6.61898">
        <ele>338.313751</ele>
        <time>2012-05-13T12:45:58Z</time>
      </trkpt>
      <trkpt lat="47.44974" lon="6.61869">
        <ele>339.611237</ele>
        <time>2012-05-13T12:46:05Z</time>
      </trkpt>
      <trkpt lat="47.44964" lon="6.61854">
        <ele>340.237488</ele>
        <time>2012-05-13T12:46:10Z</time>
      </trkpt>
      <trkpt lat="47.44949" lon="6.61832">
        <ele>341.190002</ele>
        <time>2012-05-13T12:46:17Z</time>
      </trkpt>
      <trkpt lat="47.44947" lon="6.61828">
        <ele>341.34375</ele>
        <time>2012-05-13T12:46:18Z</time>
      </trkpt>
      <trkpt lat="47.44937" lon="6.61825">
        <ele>341.463745</ele>
        <time>2012-05-13T12:46:23Z</time>
      </trkpt>
      <trkpt lat="47.44927" lon="6.61821">
        <ele>341.601257</ele>
        <time>2012-05-13T12:46:29Z</time>
      </trkpt>
      <trkpt lat="47.44916" lon="6.61818">
        <ele>341.731689</ele>
        <time>2012-05-13T12:46:35Z</time>
      </trkpt>
      <trkpt lat="47.44904" lon="6.61814">
        <ele>341.850952</ele>
        <time>2012-05-13T12:46:41Z</time>
      </trkpt>
      <trkpt lat="47.4489" lon="6.61809">
        <ele>341.989685</ele>
        <time>2012-05-13T12:46:48Z</time>
      </trkpt>
      <trkpt lat="47.44877" lon="6.61799">
        <ele>342.229187</ele>
        <time>2012-05-13T12:46:54Z</time>
      </trkpt>
      <trkpt lat="47.44874" lon="6.61795">
        <ele>342.321808</ele>
        <time>2012-05-13T12:46:56Z</time>
      </trkpt>
      <trkpt lat="47.44869" lon="6.61782">
        <ele>342.612274</ele>
        <time>2012-05-13T12:47:03Z</time>
      </trkpt>
      <trkpt lat="47.44862" lon="6.61768">
        <ele>342.82016</ele>
        <time>2012-05-13T12:47:10Z</time>
      </trkpt>
      <trkpt lat="47.44854" lon="6.61756">
        <ele>342.928741</ele>
        <time>2012-05-13T12:47:16Z</time>
      </trkpt>
      <trkpt lat="47.4485" lon="6.61744">
        <ele>343.054504</ele>
        <time>2012-05-13T12:47:21Z</time>
      </trkpt>
      <trkpt lat="47.44845" lon="6.61735">
        <ele>343.022705</ele>
        <time>2012-05-13T12:47:25Z</time>
      </trkpt>
      <trkpt lat="47.4484" lon="6.61719">
        <ele>342.759033</ele>
        <time>2012-05-13T12:47:30Z</time>
      </trkpt>
      <trkpt lat="47.44836" lon="6.61702">
        <ele>342.440918</ele>
        <time>2012-05-13T12:47:36Z</time>
      </trkpt>
      <trkpt lat="47.4483" lon="6.6168">
        <ele>341.949249</ele>
        <time>2012-05-13T12:47:43Z</time>
      </trkpt>
      <trkpt lat="47.44823" lon="6.61661">
        <ele>341.433807</ele>
        <time>2012-05-13T12:47:50Z</time>
      </trkpt>
      <trkpt lat="47.44818" lon="6.61646">
        <ele>341.110046</ele>
        <time>2012-05-13T12:47:56Z</time>
      </trkpt>
      <trkpt lat="47.44808" lon="6.61635">
        <ele>340.404938</ele>
        <time>2012-05-13T12:48:01Z</time>
      </trkpt>
      <trkpt lat="47.44806" lon="6.61626">
        <ele>340.164703</ele>
        <time>2012-05-13T12:48:03Z</time>
      </trkpt>
      <trkpt lat="47.44802" lon="6.61605">
        <ele>339.781586</ele>
        <time>2012-05-13T12:48:10Z</time>
      </trkpt>
      <trkpt lat="47.44797" lon="6.61585">
        <ele>339.299988</ele>
        <time>2012-05-13T12:48:16Z</time>
      </trkpt>
      <trkpt lat="47.44789" lon="6.61571">
        <ele>338.480011</ele>
        <time>2012-05-13T12:48:21Z</time>
      </trkpt>
      <trkpt lat="47.44785" lon="6.61566">
        <ele>338.119995</ele>
        <time>2012-05-13T12:48:23Z</time>
      </trkpt>
      <trkpt lat="47.44782" lon="6.61561">
        <ele>337.839996</ele>
        <time>2012-05-13T12:48:25Z</time>
      </trkpt>
      <trkpt lat="47.44781" lon="6.61538">
        <ele>337.73999</ele>
        <time>2012-05-13T12:48:32Z</time>
      </trkpt>
      <trkpt lat="47.44777" lon="6.61512">
        <ele>337.26001</ele>
        <time>2012-05-13T12:48:38Z</time>
      </trkpt>
      <trkpt lat="47.4478" lon="6.6149">
        <ele>337.440002</ele>
        <time>2012-05-13T12:48:45Z</time>
      </trkpt>
      <trkpt lat="47.44783" lon="6.61464">
        <ele>337.752075</ele>
        <time>2012-05-13T12:48:54Z</time>
      </trkpt>
      <trkpt lat="47.44786" lon="6.61452">
        <ele>338.072296</ele>
        <time>2012-05-13T12:49:00Z</time>
      </trkpt>
      <trkpt lat="47.4479" lon="6.61437">
        <ele>338.654938</ele>
        <time>2012-05-13T12:49:06Z</time>
      </trkpt>
      <trkpt lat="47.44794" lon="6.61421">
        <ele>339.415619</ele>
        <time>2012-05-13T12:49:13Z</time>
      </trkpt>
      <trkpt lat="47.44802" lon="6.61407">
        <ele>340.594208</ele>
        <time>2012-05-13T12:49:20Z</time>
      </trkpt>
      <trkpt lat="47.44808" lon="6.61395">
        <ele>341.614655</ele>
        <time>2012-05-13T12:49:27Z</time>
      </trkpt>
      <trkpt lat="47.44816" lon="6.61386">
        <ele>342.786438</ele>
        <time>2012-05-13T12:49:35Z</time>
      </trkpt>
      <trkpt lat="47.44822" lon="6.61384">
        <ele>343.645691</ele>
        <time>2012-05-13T12:49:40Z</time>
      </trkpt>
      <trkpt lat="47.4483" lon="6.61385">
        <ele>344.830505</ele>
        <time>2012-05-13T12:49:46Z</time>
      </trkpt>
      <trkpt lat="47.44841" lon="6.6139">
        <ele>346.195648</ele>
        <time>2012-05-13T12:49:53Z</time>
      </trkpt>
      <trkpt lat="47.44849" lon="6.61395">
        <ele>347.327698</ele>
        <time>2012-05-13T12:50:00Z</time>
      </trkpt>
      <trkpt lat="47.44862" lon="6.61399">
        <ele>348.690002</ele>
        <time>2012-05-13T12:50:08Z</time>
      </trkpt>
      <trkpt lat="47.44874" lon="6.61405">
        <ele>349.649994</ele>
        <time>2012-05-13T12:50:16Z</time>
      </trkpt>
      <trkpt lat="47.44883" lon="6.61408">
        <ele>350.390015</ele>
        <time>2012-05-13T12:50:23Z</time>
      </trkpt>
      <trkpt lat="47.44892" lon="6.61411">
        <ele>351.113739</ele>
        <time>2012-05-13T12:50:30Z</time>
      </trkpt>
      <trkpt lat="47.44903" lon="6.61416">
        <ele>351.835327</ele>
        <time>2012-05-13T12:50:38Z</time>
      </trkpt>
      <trkpt lat="47.44912" lon="6.61421">
        <ele>351.907501</ele>
        <time>2012-05-13T12:50:44Z</time>
      </trkpt>
      <trkpt lat="47.44923" lon="6.61428">
        <ele>351.959381</ele>
        <time>2012-05-13T12:50:51Z</time>
      </trkpt>
      <trkpt lat="47.44932" lon="6.6143">
        <ele>352.150879</ele>
        <time>2012-05-13T12:50:56Z</time>
      </trkpt>
      <trkpt lat="47.44943" lon="6.61435">
        <ele>352.337555</ele>
        <time>2012-05-13T12:51:03Z</time>
      </trkpt>
      <trkpt lat="47.4495" lon="6.61439">
        <ele>352.39502</ele>
        <time>2012-05-13T12:51:09Z</time>
      </trkpt>
      <trkpt lat="47.44955" lon="6.61439">
        <ele>352.505005</ele>
        <time>2012-05-13T12:51:12Z</time>
      </trkpt>
      <trkpt lat="47.44965" lon="6.61443">
        <ele>352.647491</ele>
        <time>2012-05-13T12:51:18Z</time>
      </trkpt>
      <trkpt lat="47.4498" lon="6.6145">
        <ele>352.807495</ele>
        <time>2012-05-13T12:51:25Z</time>
      </trkpt>
      <trkpt lat="47.44993" lon="6.61455">
        <ele>352.917511</ele>
        <time>2012-05-13T12:51:31Z</time>
      </trkpt>
      <trkpt lat="47.45006" lon="6.61462">
        <ele>352.720001</ele>
        <time>2012-05-13T12:51:37Z</time>
      </trkpt>
      <trkpt lat="47.45019" lon="6.61468">
        <ele>352.575012</ele>
        <time>2012-05-13T12:51:44Z</time>
      </trkpt>
      <trkpt lat="47.45033" lon="6.61472">
        <ele>352.5</ele>
        <time>2012-05-13T12:51:51Z</time>
      </trkpt>
      <trkpt lat="47.45046" lon="6.61473">
        <ele>352.316315</ele>
        <time>2012-05-13T12:51:57Z</time>
      </trkpt>
      <trkpt lat="47.45062" lon="6.6147">
        <ele>352.195648</ele>
        <time>2012-05-13T12:52:05Z</time>
      </trkpt>
      <trkpt lat="47.45078" lon="6.61466">
        <ele>352.191345</ele>
        <time>2012-05-13T12:52:12Z</time>
      </trkpt>
      <trkpt lat="47.45096" lon="6.61458">
        <ele>352.080994</ele>
        <time>2012-05-13T12:52:19Z</time>
      </trkpt>
      <trkpt lat="47.45111" lon="6.6145">
        <ele>351.894379</ele>
        <time>2012-05-13T12:52:25Z</time>
      </trkpt>
      <trkpt lat="47.45128" lon="6.61442">
        <ele>351.568176</ele>
        <time>2012-05-13T12:52:31Z</time>
      </trkpt>
      <trkpt lat="47.45154" lon="6.61432">
        <ele>351.378876</ele>
        <time>2012-05-13T12:52:40Z</time>
      </trkpt>
      <trkpt lat="47.45173" lon="6.61426">
        <ele>351.105011</ele>
        <time>2012-05-13T12:52:46Z</time>
      </trkpt>
      <trkpt lat="47.45191" lon="6.6142">
        <ele>350.172516</ele>
        <time>2012-05-13T12:52:51Z</time>
      </trkpt>
      <trkpt lat="47.45203" lon="6.61413">
        <ele>349.619995</ele>
        <time>2012-05-13T12:52:54Z</time>
      </trkpt>
      <trkpt lat="47.45216" lon="6.61394">
        <ele>349.369995</ele>
        <time>2012-05-13T12:53:00Z</time>
      </trkpt>
      <trkpt lat="47.45233" lon="6.61374">
        <ele>349.252502</ele>
        <time>2012-05-13T12:53:05Z</time>
      </trkpt>
      <trkpt lat="47.4525" lon="6.61357">
        <ele>349.097504</ele>
        <time>2012-05-13T12:53:10Z</time>
      </trkpt>
      <trkpt lat="47.45277" lon="6.61345">
        <ele>348.503021</ele>
        <time>2012-05-13T12:53:16Z</time>
      </trkpt>
      <trkpt lat="47.45295" lon="6.61339">
        <ele>348.065796</ele>
        <time>2012-05-13T12:53:19Z</time>
      </trkpt>
      <trkpt lat="47.45326" lon="6.61346">
        <ele>347.687683</ele>
        <time>2012-05-13T12:53:24Z</time>
      </trkpt>
      <trkpt lat="47.45332" lon="6.61352">
        <ele>347.708557</ele>
        <time>2012-05-13T12:53:25Z</time>
      </trkpt>
      <trkpt lat="47.45372" lon="6.61388">
        <ele>349.344055</ele>
        <time>2012-05-13T12:53:32Z</time>
      </trkpt>
      <trkpt lat="47.45383" lon="6.61413">
        <ele>350.817841</ele>
        <time>2012-05-13T12:53:38Z</time>
      </trkpt>
      <trkpt lat="47.45392" lon="6.61437">
        <ele>352.279205</ele>
        <time>2012-05-13T12:53:44Z</time>
      </trkpt>
      <trkpt lat="47.45403" lon="6.61458">
        <ele>354.070526</ele>
        <time>2012-05-13T12:53:49Z</time>
      </trkpt>
      <trkpt lat="47.45416" lon="6.61475">
        <ele>356.464905</ele>
        <time>2012-05-13T12:53:55Z</time>
      </trkpt>
      <trkpt lat="47.45435" lon="6.61499">
        <ele>360.001007</ele>
        <time>2012-05-13T12:54:03Z</time>
      </trkpt>
      <trkpt lat="47.45446" lon="6.61512">
        <ele>361.778748</ele>
        <time>2012-05-13T12:54:08Z</time>
      </trkpt>
      <trkpt lat="47.45461" lon="6.61524">
        <ele>363.661713</ele>
        <time>2012-05-13T12:54:14Z</time>
      </trkpt>
      <trkpt lat="47.45479" lon="6.61531">
        <ele>365.190308</ele>
        <time>2012-05-13T12:54:20Z</time>
      </trkpt>
      <trkpt lat="47.45501" lon="6.61532">
        <ele>366.272491</ele>
        <time>2012-05-13T12:54:27Z</time>
      </trkpt>
      <trkpt lat="47.45517" lon="6.61533">
        <ele>367.02002</ele>
        <time>2012-05-13T12:54:33Z</time>
      </trkpt>
      <trkpt lat="47.45537" lon="6.6153">
        <ele>367.477509</ele>
        <time>2012-05-13T12:54:41Z</time>
      </trkpt>
      <trkpt lat="47.45549" lon="6.61526">
        <ele>367.674988</ele>
        <time>2012-05-13T12:54:46Z</time>
      </trkpt>
      <trkpt lat="47.45567" lon="6.61524">
        <ele>368.14624</ele>
        <time>2012-05-13T12:54:52Z</time>
      </trkpt>
      <trkpt lat="47.45576" lon="6.6152">
        <ele>368.165009</ele>
        <time>2012-05-13T12:54:56Z</time>
      </trkpt>
      <trkpt lat="47.45587" lon="6.61515">
        <ele>367.920013</ele>
        <time>2012-05-13T12:55:01Z</time>
      </trkpt>
      <trkpt lat="47.45599" lon="6.61506">
        <ele>367.470001</ele>
        <time>2012-05-13T12:55:06Z</time>
      </trkpt>
      <trkpt lat="47.45611" lon="6.61496">
        <ele>366.912506</ele>
        <time>2012-05-13T12:55:12Z</time>
      </trkpt>
      <trkpt lat="47.45622" lon="6.61492">
        <ele>366.786255</ele>
        <time>2012-05-13T12:55:17Z</time>
      </trkpt>
      <trkpt lat="47.45633" lon="6.61491">
        <ele>366.891235</ele>
        <time>2012-05-13T12:55:23Z</time>
      </trkpt>
      <trkpt lat="47.45644" lon="6.61493">
        <ele>367.174988</ele>
        <time>2012-05-13T12:55:29Z</time>
      </trkpt>
      <trkpt lat="47.45652" lon="6.61497">
        <ele>367.654999</ele>
        <time>2012-05-13T12:55:34Z</time>
      </trkpt>
      <trkpt lat="47.45661" lon="6.61504">
        <ele>368.327515</ele>
        <time>2012-05-13T12:55:40Z</time>
      </trkpt>
      <trkpt lat="47.45672" lon="6.61517">
        <ele>369.456238</ele>
        <time>2012-05-13T12:55:47Z</time>
      </trkpt>
      <trkpt lat="47.45682" lon="6.61527">
        <ele>370.407501</ele>
        <time>2012-05-13T12:55:54Z</time>
      </trkpt>
      <trkpt lat="47.45689" lon="6.61528">
        <ele>370.559998</ele>
        <time>2012-05-13T12:55:59Z</time>
      </trkpt>
      <trkpt lat="47.45695" lon="6.61508">
        <ele>369.17749</ele>
        <time>2012-05-13T12:56:05Z</time>
      </trkpt>
      <trkpt lat="47.45697" lon="6.61503">
        <ele>368.831238</ele>
        <time>2012-05-13T12:56:06Z</time>
      </trkpt>
      <trkpt lat="47.45706" lon="6.6148">
        <ele>367.195007</ele>
        <time>2012-05-13T12:56:10Z</time>
      </trkpt>
      <trkpt lat="47.45713" lon="6.61461">
        <ele>366.145203</ele>
        <time>2012-05-13T12:56:13Z</time>
      </trkpt>
      <trkpt lat="47.45723" lon="6.61425">
        <ele>364.288391</ele>
        <time>2012-05-13T12:56:18Z</time>
      </trkpt>
      <trkpt lat="47.45728" lon="6.61412">
        <ele>363.679993</ele>
        <time>2012-05-13T12:56:20Z</time>
      </trkpt>
      <trkpt lat="47.45736" lon="6.614">
        <ele>363.37561</ele>
        <time>2012-05-13T12:56:22Z</time>
      </trkpt>
      <trkpt lat="47.4575" lon="6.61383">
        <ele>362.868469</ele>
        <time>2012-05-13T12:56:25Z</time>
      </trkpt>
      <trkpt lat="47.45772" lon="6.61356">
        <ele>361.916901</ele>
        <time>2012-05-13T12:56:30Z</time>
      </trkpt>
      <trkpt lat="47.45794" lon="6.61339">
        <ele>361.928497</ele>
        <time>2012-05-13T12:56:34Z</time>
      </trkpt>
      <trkpt lat="47.4583" lon="6.61311">
        <ele>361.757568</ele>
        <time>2012-05-13T12:56:42Z</time>
      </trkpt>
      <trkpt lat="47.4585" lon="6.61298">
        <ele>362.086487</ele>
        <time>2012-05-13T12:56:48Z</time>
      </trkpt>
      <trkpt lat="47.45864" lon="6.61292">
        <ele>361.764801</ele>
        <time>2012-05-13T12:56:53Z</time>
      </trkpt>
      <trkpt lat="47.45883" lon="6.61284">
        <ele>360.850677</ele>
        <time>2012-05-13T12:56:58Z</time>
      </trkpt>
      <trkpt lat="47.45904" lon="6.61275">
        <ele>359.220001</ele>
        <time>2012-05-13T12:57:02Z</time>
      </trkpt>
      <trkpt lat="47.45925" lon="6.61262">
        <ele>356.753754</ele>
        <time>2012-05-13T12:57:06Z</time>
      </trkpt>
      <trkpt lat="47.4594" lon="6.61248">
        <ele>354.643738</ele>
        <time>2012-05-13T12:57:09Z</time>
      </trkpt>
      <trkpt lat="47.45939" lon="6.61212">
        <ele>352.325012</ele>
        <time>2012-05-13T12:57:13Z</time>
      </trkpt>
      <trkpt lat="47.4592" lon="6.61144">
        <ele>350.296082</ele>
        <time>2012-05-13T12:57:19Z</time>
      </trkpt>
      <trkpt lat="47.45912" lon="6.61104">
        <ele>348.817261</ele>
        <time>2012-05-13T12:57:22Z</time>
      </trkpt>
      <trkpt lat="47.459" lon="6.61043">
        <ele>343.852509</ele>
        <time>2012-05-13T12:57:27Z</time>
      </trkpt>
      <trkpt lat="47.4589" lon="6.60973">
        <ele>342.53183</ele>
        <time>2012-05-13T12:57:32Z</time>
      </trkpt>
      <trkpt lat="47.45884" lon="6.609">
        <ele>341.244507</ele>
        <time>2012-05-13T12:57:37Z</time>
      </trkpt>
      <trkpt lat="47.45871" lon="6.60845">
        <ele>337.905579</ele>
        <time>2012-05-13T12:57:41Z</time>
      </trkpt>
      <trkpt lat="47.45856" lon="6.60783">
        <ele>337.214508</ele>
        <time>2012-05-13T12:57:46Z</time>
      </trkpt>
      <trkpt lat="47.45839" lon="6.60722">
        <ele>333.659454</ele>
        <time>2012-05-13T12:57:51Z</time>
      </trkpt>
      <trkpt lat="47.45828" lon="6.60674">
        <ele>331.814087</ele>
        <time>2012-05-13T12:57:55Z</time>
      </trkpt>
      <trkpt lat="47.45822" lon="6.60596">
        <ele>332.591949</ele>
        <time>2012-05-13T12:58:01Z</time>
      </trkpt>
      <trkpt lat="47.45815" lon="6.60552">
        <ele>329.644653</ele>
        <time>2012-05-13T12:58:04Z</time>
      </trkpt>
      <trkpt lat="47.45807" lon="6.60471">
        <ele>326.605835</ele>
        <time>2012-05-13T12:58:10Z</time>
      </trkpt>
      <trkpt lat="47.45797" lon="6.60405">
        <ele>322.870758</ele>
        <time>2012-05-13T12:58:15Z</time>
      </trkpt>
      <trkpt lat="47.45794" lon="6.60392">
        <ele>322.351013</ele>
        <time>2012-05-13T12:58:16Z</time>
      </trkpt>
      <trkpt lat="47.45789" lon="6.60346">
        <ele>320.6875</ele>
        <time>2012-05-13T12:58:19Z</time>
      </trkpt>
      <trkpt lat="47.45794" lon="6.60265">
        <ele>313.302002</ele>
        <time>2012-05-13T12:58:25Z</time>
      </trkpt>
      <trkpt lat="47.45802" lon="6.60216">
        <ele>306.337982</ele>
        <time>2012-05-13T12:58:30Z</time>
      </trkpt>
      <trkpt lat="47.45787" lon="6.60198">
        <ele>304.03067</ele>
        <time>2012-05-13T12:58:33Z</time>
      </trkpt>
      <trkpt lat="47.45748" lon="6.60165">
        <ele>300.336487</ele>
        <time>2012-05-13T12:58:39Z</time>
      </trkpt>
      <trkpt lat="47.45709" lon="6.60114">
        <ele>297.967987</ele>
        <time>2012-05-13T12:58:46Z</time>
      </trkpt>
      <trkpt lat="47.45677" lon="6.6008">
        <ele>295.355896</ele>
        <time>2012-05-13T12:58:52Z</time>
      </trkpt>
      <trkpt lat="47.45664" lon="6.60062">
        <ele>295.266449</ele>
        <time>2012-05-13T12:58:55Z</time>
      </trkpt>
      <trkpt lat="47.45653" lon="6.60043">
        <ele>295.427185</ele>
        <time>2012-05-13T12:58:58Z</time>
      </trkpt>
      <trkpt lat="47.45646" lon="6.60017">
        <ele>295.12146</ele>
        <time>2012-05-13T12:59:02Z</time>
      </trkpt>
      <trkpt lat="47.45652" lon="6.60011">
        <ele>295.003723</ele>
        <time>2012-05-13T12:59:04Z</time>
      </trkpt>
      <trkpt lat="47.4568" lon="6.6">
        <ele>295.698395</ele>
        <time>2012-05-13T12:59:11Z</time>
      </trkpt>
      <trkpt lat="47.45697" lon="6.59977">
        <ele>297.813446</ele>
        <time>2012-05-13T12:59:17Z</time>
      </trkpt>
      <trkpt lat="47.45711" lon="6.5995">
        <ele>299.882202</ele>
        <time>2012-05-13T12:59:25Z</time>
      </trkpt>
      <trkpt lat="47.45716" lon="6.59933">
        <ele>301.473755</ele>
        <time>2012-05-13T12:59:30Z</time>
      </trkpt>
      <trkpt lat="47.45712" lon="6.59907">
        <ele>302.536224</ele>
        <time>2012-05-13T12:59:35Z</time>
      </trkpt>
      <trkpt lat="47.45708" lon="6.59856">
        <ele>303.586273</ele>
        <time>2012-05-13T12:59:44Z</time>
      </trkpt>
      <trkpt lat="47.45709" lon="6.59783">
        <ele>304.165009</ele>
        <time>2012-05-13T12:59:56Z</time>
      </trkpt>
      <trkpt lat="47.45715" lon="6.59732">
        <ele>304.551239</ele>
        <time>2012-05-13T13:00:03Z</time>
      </trkpt>
      <trkpt lat="47.45729" lon="6.59661">
        <ele>304.783539</ele>
        <time>2012-05-13T13:00:11Z</time>
      </trkpt>
      <trkpt lat="47.45747" lon="6.59596">
        <ele>307.528625</ele>
        <time>2012-05-13T13:00:18Z</time>
      </trkpt>
      <trkpt lat="47.45776" lon="6.59508">
        <ele>314.017181</ele>
        <time>2012-05-13T13:00:27Z</time>
      </trkpt>
      <trkpt lat="47.45788" lon="6.59457">
        <ele>314.482086</ele>
        <time>2012-05-13T13:00:32Z</time>
      </trkpt>
      <trkpt lat="47.45795" lon="6.59393">
        <ele>311.47049</ele>
        <time>2012-05-13T13:00:38Z</time>
      </trkpt>
      <trkpt lat="47.45801" lon="6.59293">
        <ele>309.297852</ele>
        <time>2012-05-13T13:00:48Z</time>
      </trkpt>
      <trkpt lat="47.45803" lon="6.59205">
        <ele>309.082794</ele>
        <time>2012-05-13T13:00:57Z</time>
      </trkpt>
      <trkpt lat="47.45799" lon="6.59117">
        <ele>306.6409</ele>
        <time>2012-05-13T13:01:06Z</time>
      </trkpt>
      <trkpt lat="47.45792" lon="6.59006">
        <ele>309.253571</ele>
        <time>2012-05-13T13:01:18Z</time>
      </trkpt>
      <trkpt lat="47.45781" lon="6.58928">
        <ele>309.092468</ele>
        <time>2012-05-13T13:01:27Z</time>
      </trkpt>
      <trkpt lat="47.45768" lon="6.58868">
        <ele>306.125885</ele>
        <time>2012-05-13T13:01:35Z</time>
      </trkpt>
      <trkpt lat="47.45743" lon="6.58784">
        <ele>304.588867</ele>
        <time>2012-05-13T13:01:47Z</time>
      </trkpt>
      <trkpt lat="47.45718" lon="6.58697">
        <ele>303.882507</ele>
        <time>2012-05-13T13:01:59Z</time>
      </trkpt>
      <trkpt lat="47.45694" lon="6.58636">
        <ele>303.925903</ele>
        <time>2012-05-13T13:02:07Z</time>
      </trkpt>
      <trkpt lat="47.45661" lon="6.5858">
        <ele>301.619293</ele>
        <time>2012-05-13T13:02:15Z</time>
      </trkpt>
      <trkpt lat="47.45625" lon="6.58521">
        <ele>299.184448</ele>
        <time>2012-05-13T13:02:22Z</time>
      </trkpt>
      <trkpt lat="47.45572" lon="6.58433">
        <ele>298.970398</ele>
        <time>2012-05-13T13:02:32Z</time>
      </trkpt>
      <trkpt lat="47.45531" lon="6.5836">
        <ele>298.95929</ele>
        <time>2012-05-13T13:02:40Z</time>
      </trkpt>
      <trkpt lat="47.45477" lon="6.58259">
        <ele>296.538757</ele>
        <time>2012-05-13T13:02:50Z</time>
      </trkpt>
      <trkpt lat="47.45426" lon="6.58164">
        <ele>295.711273</ele>
        <time>2012-05-13T13:02:59Z</time>
      </trkpt>
      <trkpt lat="47.45379" lon="6.58076">
        <ele>295.512604</ele>
        <time>2012-05-13T13:03:07Z</time>
      </trkpt>
      <trkpt lat="47.45343" lon="6.58014">
        <ele>296.734192</ele>
        <time>2012-05-13T13:03:13Z</time>
      </trkpt>
      <trkpt lat="47.45301" lon="6.57966">
        <ele>293.906403</ele>
        <time>2012-05-13T13:03:19Z</time>
      </trkpt>
      <trkpt lat="47.45245" lon="6.57898">
        <ele>293.623413</ele>
        <time>2012-05-13T13:03:27Z</time>
      </trkpt>
      <trkpt lat="47.45205" lon="6.57851">
        <ele>292.633301</ele>
        <time>2012-05-13T13:03:33Z</time>
      </trkpt>
      <trkpt lat="47.45165" lon="6.5781">
        <ele>293.010986</ele>
        <time>2012-05-13T13:03:39Z</time>
      </trkpt>
      <trkpt lat="47.45138" lon="6.57811">
        <ele>291.673004</ele>
        <time>2012-05-13T13:03:43Z</time>
      </trkpt>
      <trkpt lat="47.45134" lon="6.57819">
        <ele>291.192474</ele>
        <time>2012-05-13T13:03:44Z</time>
      </trkpt>
      <trkpt lat="47.45111" lon="6.57867">
        <ele>290</ele>
        <time>2012-05-13T13:03:50Z</time>
      </trkpt>
      <trkpt lat="47.45114" lon="6.57898">
        <ele>290</ele>
        <time>2012-05-13T13:03:54Z</time>
      </trkpt>
      <trkpt lat="47.45128" lon="6.57909">
        <ele>290.004608</ele>
        <time>2012-05-13T13:03:57Z</time>
      </trkpt>
      <trkpt lat="47.45139" lon="6.57915">
        <ele>290</ele>
        <time>2012-05-13T13:04:03Z</time>
      </trkpt>
      <trkpt lat="47.45139" lon="6.57917">
        <ele>290</ele>
        <time>2012-05-13T13:04:10Z</time>
      </trkpt>
      <trkpt lat="47.45142" lon="6.57921">
        <ele>290</ele>
        <time>2012-05-13T13:04:39Z</time>
      </trkpt>
      <trkpt lat="47.45152" lon="6.57938">
        <ele>290</ele>
        <time>2012-05-13T13:04:45Z</time>
      </trkpt>
      <trkpt lat="47.45162" lon="6.57955">
        <ele>290</ele>
        <time>2012-05-13T13:04:52Z</time>
      </trkpt>
      <trkpt lat="47.45163" lon="6.57961">
        <ele>290</ele>
        <time>2012-05-13T13:04:57Z</time>
      </trkpt>
      <trkpt lat="47.45163" lon="6.57962">
        <ele>290</ele>
        <time>2012-05-13T13:05:15Z</time>
      </trkpt>
    </trkseg>
  </trk>
</gpx>